[[{"header":{"parameterUnit":"m.s-1","parameterCategory":1,"la1":30.6,"la2":28.766,"lo1":-90.7593,"lo2":-88.6598,"dy":0.0162,"dx":0.0183,"nx":116,"ny":114,"refTime":"2023-04-06T06:00:00:Z","depth":0,"parameterNumber":2,"parameterNumberName":"U-component_of_WINDS"},"data":[0.0,0.0,0.0,0.0,0.0,0.0,0.0,0.0,0.0,0.0,0.0,0.0,0.0,0.0,0.0,0.0,0.0,0.0,0.0,0.0,0.0,0.0,0.0,0.0,0.0,0.0,0.0,0.0,0.0,0.0,0.0,0.0,0.0,0.0,0.0,0.0,0.0,0.0,0.0,0.0,0.0,0.0,0.0,0.0,0.0,0.0,0.0,0.0,0.0,0.0,0.0,0.0,0.0,0.0,0.0,0.0,0.0,0.0,0.0,0.0,0.0,0.0,0.0,0.0,0.0,0.0,0.0,0.0,0.0,0.0,0.0,0.0,0.0,0.0,0.0,0.0,0.0,0.0,0.0,0.0,0.0,0.0,0.0,0.0,0.0,0.0,0.0,0.0,0.0,0.0,0.0,0.0,0.0,0.0,0.0,0.0,0.0,0.0,0.0,0.0,0.0,0.0,0.0,0.0,0.0,0.0,0.0,0.0,0.0,0.0,0.0,0.0,0.0,0.0,0.0,0.0,0.0,0.0,0.0,0.0,0.0,0.0,0.0,0.0,0.0,0.0,0.0,0.0,0.0,0.0,0.0,0.0,0.0,0.0,0.0,0.0,0.0,0.0,0.0,0.0,0.0,0.0,0.0,0.0,0.0,0.0,0.0,0.0,0.0,0.0,0.0,0.0,0.0,0.0,0.0,0.0,0.0,0.0,0.0,0.0,0.0,0.0,0.0,0.0,0.0,0.0,0.0,0.0,0.0,0.0,0.0,0.0,0.0,0.0,0.0,0.0,0.0,0.0,0.0,0.0,0.0,0.0,0.0,0.0,0.0,0.0,0.0,0.0,0.0,0.0,0.0,0.0,0.0,0.0,0.0,0.0,0.0,0.0,0.0,0.0,0.0,0.0,0.0,0.0,0.0,0.0,0.0,0.0,0.0,0.0,0.0,0.0,0.0,0.0,0.0,0.0,0.0,0.0,0.0,0.0,0.0,0.0,0.0,0.0,0.0,0.0,0.0,0.0,0.0,0.0,0.0,0.0,0.0,0.0,0.0,0.0,0.0,0.0,0.0,0.0,0.0,0.0,0.0,0.0,0.0,0.0,0.0,0.0,0.0,0.0,0.0,0.0,0.0,0.0,0.0,0.0,0.0,0.0,0.0,0.0,0.0,0.0,0.0,0.0,0.0,0.0,0.0,0.0,0.0,0.0,0.0,0.0,0.0,0.0,0.0,0.0,0.0,0.0,0.0,0.0,0.0,0.0,0.0,0.0,0.0,0.0,0.0,0.0,0.0,0.0,0.0,0.0,0.0,0.0,0.0,0.0,0.0,0.0,0.0,0.0,0.0,0.0,0.0,0.0,0.0,0.0,0.0,0.0,0.0,0.0,0.0,0.0,0.0,0.0,0.0,0.0,0.0,0.0,0.0,0.0,0.0,0.0,0.0,0.0,0.0,0.0,0.0,0.0,0.0,0.0,0.0,0.0,0.0,0.0,0.0,0.0,0.0,0.0,0.0,0.0,0.0,0.0,0.0,0.0,0.0,0.0,0.0,0.0,0.0,0.0,0.0,0.0,0.0,0.0,0.0,0.0,0.0,0.0,0.0,0.0,0.0,0.0,0.0,0.0,0.0,0.0,0.0,0.0,0.0,0.0,0.0,0.0,0.0,0.0,0.0,0.0,0.0,0.0,0.0,0.0,0.0,0.0,0.0,0.0,0.0,0.0,0.0,0.0,0.0,0.0,0.0,0.0,0.0,0.0,0.0,0.0,0.0,0.0,0.0,0.0,0.0,0.0,0.0,0.0,0.0,0.0,0.0,0.0,0.0,0.0,0.0,0.0,0.0,0.0,0.0,0.0,0.0,0.0,0.0,0.0,0.0,0.0,0.0,0.0,0.0,0.0,0.0,0.0,0.0,0.0,0.0,0.0,0.0,0.0,0.0,0.0,0.0,0.0,0.0,0.0,0.0,0.0,0.0,0.0,0.0,0.0,0.0,0.0,0.0,0.0,0.0,0.0,0.0,0.0,0.0,0.0,0.0,0.0,0.0,0.0,0.0,0.0,0.0,0.0,0.0,0.0,0.0,0.0,0.0,0.0,0.0,0.0,0.0,0.0,0.0,0.0,0.0,0.0,0.0,0.0,0.0,0.0,0.0,0.0,0.0,0.0,0.0,0.0,0.0,0.0,0.0,0.0,0.0,0.0,0.0,0.0,0.0,0.0,0.0,0.0,0.0,0.0,0.0,0.0,0.0,0.0,0.0,0.0,0.0,0.0,0.0,0.0,0.0,0.0,0.0,0.0,0.0,0.0,0.0,0.0,0.0,0.0,0.0,0.0,0.0,0.0,0.0,0.0,0.0,0.0,0.0,0.0,0.0,0.0,0.0,0.0,0.0,0.0,0.0,0.0,0.0,0.0,0.0,0.0,0.0,0.0,0.0,0.0,0.0,0.0,0.0,0.0,0.0,0.0,0.0,0.0,0.0,0.0,0.0,0.0,0.0,0.0,0.0,0.0,0.0,0.0,0.0,0.0,0.0,0.0,0.0,0.0,0.0,0.0,0.0,0.0,0.0,0.0,0.0,0.0,0.0,0.0,0.0,0.0,0.0,0.0,0.0,0.0,0.0,0.0,0.0,0.0,0.0,0.0,0.0,0.0,0.0,0.0,0.0,0.0,0.0,0.0,0.0,0.0,0.0,0.0,0.0,0.0,0.0,0.0,0.0,0.0,0.0,0.0,0.0,0.0,0.0,0.0,0.0,0.0,0.0,0.0,0.0,0.0,0.0,0.0,0.0,0.0,0.0,0.0,0.0,0.0,0.0,0.0,0.0,0.0,0.0,0.0,0.0,0.0,0.0,0.0,0.0,0.0,0.0,0.0,0.0,0.0,0.0,0.0,0.0,0.0,0.0,0.0,0.0,0.0,0.0,0.0,0.0,0.0,0.0,0.0,0.0,0.0,0.0,0.0,0.0,0.0,0.0,0.0,0.0,0.0,0.0,0.0,0.0,0.0,0.0,0.0,0.0,0.0,0.0,0.0,0.0,0.0,0.0,0.0,0.0,0.0,0.0,0.0,0.0,0.0,0.0,0.0,0.0,0.0,0.0,0.0,0.0,0.0,0.0,0.0,0.0,0.0,0.0,0.0,0.0,0.0,0.0,0.0,0.0,0.0,0.0,0.0,0.0,0.0,0.0,0.0,0.0,0.0,0.0,0.0,0.0,0.0,0.0,0.0,0.0,0.0,0.0,0.0,0.0,0.0,0.0,0.0,0.0,0.0,0.0,0.0,0.0,0.0,0.0,0.0,0.0,0.0,0.0,0.0,0.0,0.0,0.0,0.0,0.0,0.0,0.0,0.0,0.0,0.0,0.0,0.0,0.0,0.0,0.0,0.0,0.0,0.0,0.0,0.0,0.0,0.0,0.0,0.0,0.0,0.0,0.0,0.0,0.0,0.0,0.0,0.0,0.0,0.0,0.0,0.0,0.0,0.0,0.0,0.0,0.0,0.0,0.0,0.0,0.0,0.0,0.0,0.0,0.0,0.0,0.0,0.0,0.0,0.0,0.0,0.0,0.0,0.0,0.0,0.0,0.0,0.0,0.0,0.0,0.0,0.0,0.0,0.0,0.0,0.0,0.0,0.0,0.0,0.0,0.0,0.0,0.0,0.0,0.0,0.0,0.0,0.0,0.0,0.0,0.0,0.0,0.0,0.0,0.0,0.0,0.0,0.0,0.0,0.0,0.0,0.0,0.0,0.0,0.0,0.0,0.0,0.0,0.0,0.0,0.0,0.0,0.0,0.0,0.0,0.0,0.0,0.0,0.0,0.0,0.0,0.0,0.0,0.0,0.0,0.0,0.0,0.0,0.0,0.0,0.0,0.0,0.0,0.0,0.0,0.0,0.0,0.0,0.0,0.0,0.0,0.0,0.0,0.0,0.0,0.0,0.0,0.0,0.0,0.0,0.0,0.0,0.0,0.0,0.0,0.0,0.0,0.0,0.0,0.0,0.0,0.0,0.0,0.0,0.0,0.0,0.0,0.0,0.0,0.0,0.0,0.0,0.0,0.0,0.0,0.0,0.0,0.0,0.0,0.0,0.0,0.0,0.0,0.0,0.0,0.0,0.0,0.0,0.0,0.0,0.0,0.0,0.0,0.0,0.0,0.0,0.0,0.0,0.0,0.0,0.0,0.0,0.0,0.0,0.0,0.0,0.0,0.0,0.0,0.0,0.0,0.0,0.0,0.0,0.0,0.0,0.0,0.0,0.0,0.0,0.0,0.0,0.0,0.0,0.0,0.0,0.0,0.0,0.0,0.0,0.0,0.0,0.0,0.0,0.0,0.0,0.0,0.0,0.0,0.0,0.0,0.0,0.0,0.0,0.0,0.0,0.0,0.0,0.0,0.0,0.0,0.0,0.0,0.0,0.0,0.0,0.0,0.0,0.0,0.0,0.0,0.0,0.0,0.0,0.0,0.0,0.0,0.0,0.0,0.0,0.0,0.0,0.0,0.0,0.0,0.0,0.0,0.0,0.0,0.0,0.0,0.0,0.0,0.0,0.0,0.0,0.0,0.0,0.0,0.0,0.0,0.0,0.0,0.0,0.0,0.0,0.0,0.0,0.0,0.0,0.0,0.0,0.0,0.0,0.0,0.0,0.0,0.0,0.0,0.0,0.0,0.0,0.0,0.0,0.0,0.0,0.0,0.0,0.0,0.0,0.0,0.0,0.0,0.0,0.0,0.0,0.0,0.0,0.0,0.0,0.0,0.0,0.0,0.0,0.0,0.0,0.0,0.0,0.0,0.0,0.0,0.0,0.0,0.0,0.0,0.0,0.0,0.0,0.0,0.0,0.0,0.0,0.0,0.0,0.0,0.0,0.0,0.0,0.0,0.0,0.0,0.0,0.0,0.0,0.0,0.0,0.0,0.0,0.0,0.0,0.0,0.0,0.0,0.0,0.0,0.0,0.0,0.0,0.0,0.0,0.0,0.0,0.0,0.0,0.0,0.0,0.0,0.0,0.0,0.0,0.0,0.0,0.0,0.0,0.0,0.0,0.0,0.0,0.0,0.0,0.0,0.0,0.0,0.0,0.0,0.0,0.0,0.0,0.0,0.0,0.0,0.0,0.0,0.0,0.0,0.0,0.0,0.0,0.0,0.0,0.0,0.0,0.0,0.0,0.0,0.0,0.0,0.0,0.0,0.0,0.0,0.0,0.0,0.0,0.0,0.0,0.0,0.0,0.0,0.0,0.0,0.0,0.0,0.0,0.0,0.0,0.0,0.0,0.0,0.0,0.0,0.0,0.0,0.0,0.0,0.0,0.0,0.0,0.0,0.0,0.0,0.0,0.0,0.0,0.0,0.0,0.0,0.0,0.0,0.0,0.0,0.0,0.0,0.0,0.0,0.0,0.0,0.0,0.0,0.0,0.0,0.0,0.0,0.0,0.0,0.0,0.0,0.0,0.0,0.0,0.0,0.0,0.0,0.0,0.0,0.0,0.0,0.0,0.0,0.0,0.0,0.0,0.0,0.0,0.0,0.0,0.0,0.0,0.0,0.0,0.0,0.0,0.0,0.0,0.0,0.0,0.0,0.0,0.0,0.0,0.0,0.0,0.0,0.0,0.0,0.0,0.0,0.0,0.0,0.0,0.0,0.0,0.0,0.0,0.0,0.0,0.0,0.0,0.0,0.0,0.0,0.0,0.0,0.0,0.0,0.0,0.0,0.0,0.0,0.0,0.0,0.0,0.0,0.0,0.0,0.0,0.0,0.0,0.0,0.0,0.0,0.0,0.0,0.0,0.0,0.0,0.0,0.0,0.0,0.0,0.0,0.0,0.0,0.0,0.0,0.0,0.0,0.0,0.0,0.0,0.0,0.0,0.0,0.0,0.0,0.0,0.0,0.0,0.0,0.0,0.0,0.0,0.0,0.0,0.0,0.0,0.0,0.0,0.0,0.0,0.0,0.0,0.0,0.0,0.0,0.0,0.0,0.0,0.0,0.0,0.0,0.0,0.0,0.0,0.0,0.0,0.0,0.0,0.0,0.0,0.0,0.0,0.0,0.0,0.0,0.0,0.0,0.0,0.0,0.0,0.0,0.0,0.0,0.0,0.0,0.0,0.0,0.0,0.0,0.0,-0.3675,-0.4254,0.0,0.0,0.0,0.0,0.0,0.0,0.0,0.0,0.0,0.0,0.0,0.0,0.0,0.0,0.0,0.0,0.0,0.0,0.0,0.0,0.0,0.0,0.0,0.0,0.0,0.0,0.0,0.0,0.0,0.0,0.0,0.0,0.0,0.0,0.0,0.0,0.0,0.0,0.7393,0.889,1.0433,1.1323,0.9894,0.6588,0.0,0.0,0.0,0.0,0.0,0.0,0.0,0.0,0.0,0.0,0.0,0.0,0.0,0.0,0.0,0.0,0.0,0.0,0.0,0.0,0.0,0.0,0.0,0.0,0.0,0.0,0.0,0.0,0.0,0.0,0.0,0.0,0.0,0.0,0.0,0.0,0.0,0.0,0.0,0.0,0.0,0.0,0.0,0.0,0.0,0.0,0.0,0.0,0.0,0.0,0.0,0.0,0.0,0.0,0.0,0.0,0.0,0.0,0.0,0.0,0.0,0.0,0.0,0.0,0.0,0.0,0.0,0.0,0.0,0.0,-0.2911,-0.3452,0.0,0.0,0.0,0.0,0.0,0.0,0.0,0.0,0.0,0.0,0.0,0.0,0.0,0.0,0.0,0.0,0.0,0.0,0.0,0.0,0.0,0.0,0.0,0.0,0.7402,0.7054,0.7078,0.7092,0.0,0.0,0.0,0.0,0.0,0.0,0.0,0.5213,0.5559,0.6338,0.9776,1.2909,1.5781,1.6649,1.3908,0.8207,0.7589,0.0,0.0,0.0,0.0,0.0,0.0,0.0,0.0,0.0,0.0,0.0,0.0,0.0,0.0,0.0,0.0,0.0,0.0,0.0,0.0,0.0,0.0,0.0,0.0,0.0,0.0,0.0,0.0,0.0,0.0,0.0,0.0,0.0,0.0,0.0,0.0,0.0,0.0,0.0,0.0,0.0,0.0,0.0,0.0,0.0,0.0,0.0,0.0,0.0,0.0,0.0,0.0,0.0,0.0,0.0,0.0,0.0,0.0,0.0,0.0,0.0,0.0,0.0,-0.1161,-0.1637,-0.1638,-0.1805,-0.179,-0.1676,-0.1965,-0.2347,-0.2783,-0.3122,0.0,0.0,0.0,0.0,0.0,0.0,0.0,0.0,0.0,0.0,0.0,0.0,0.0,0.0,0.0,0.0,0.0,0.0,0.0,0.0,0.0,0.7729,0.7642,0.7032,0.7463,0.7543,0.0,0.0,0.0,0.0,0.0,0.0,0.0,0.4961,0.6424,0.9769,1.3906,1.5972,1.5973,1.6677,1.6202,1.4742,1.4669,1.2752,0.9533,0.0,0.0,0.0,0.0,0.0,0.0,0.0,0.0,0.0,0.0,0.0,0.0,0.0,0.0,0.0,0.0,0.0,0.0,0.0,0.0,0.0,0.0,0.0,0.0,0.0,0.0,0.0,0.0,0.0,0.0,0.0,0.0,0.0,0.0,0.0,0.0,0.0,0.0,0.0,0.0,0.0,-0.2752,-0.3397,0.0,0.0,0.0,0.0,0.0,0.0,0.0,0.0,0.0,0.0,0.0,0.0,0.0,0.0896,0.1225,0.1316,0.1415,0.1523,0.0802,0.0493,0.0493,-0.0086,-0.026,-0.0254,-0.0339,0.0,-0.2154,-0.2738,0.0,0.0,0.0,0.0,0.0,0.0,0.0,0.0,0.0,0.0,0.0,0.0,0.0,0.0,0.0,0.0,0.0,0.0,0.0,0.0,0.0,0.9698,1.0957,1.0677,1.3215,1.3432,1.0241,1.0041,0.0,0.0,0.0,0.4459,0.4459,0.6039,0.9947,1.6149,1.9228,2.1534,2.3082,2.3744,2.3933,2.3622,2.3622,1.9606,1.2624,0.9703,0.0,0.0,0.0,0.0,0.0,0.0,0.0,0.0,0.0,0.0,0.0,0.0,0.0,0.0,0.0,0.0,0.0,0.0,0.0,0.0,0.0,0.0,0.0,0.0,0.0,0.0,0.0,0.0,0.0,0.0,0.0,0.0,0.0,0.0,0.0,0.0,0.0,0.0,0.0,-0.3368,-0.3202,-0.4037,-0.3758,-0.3823,0.0,0.0,0.0,0.0,0.0,0.0,0.0,0.0,0.0,0.0285,0.2101,0.3113,0.3257,0.3643,0.3904,0.3945,0.3101,0.2608,0.2611,0.1564,0.1109,0.1099,0.0367,-0.0351,-0.0969,-0.1604,-0.2101,-0.2525,0.0,0.0,0.0,0.0,-0.3309,-0.3389,0.0,0.0,0.0,0.0,0.0,0.0,0.0,0.0,0.0,0.0,0.0,0.0,0.9508,1.2983,1.5392,1.5481,1.8372,1.8156,1.3295,1.2533,0.0,0.0,0.0,0.3809,0.3849,0.8524,1.4384,2.1403,2.4537,2.7176,2.937,3.0028,3.0238,3.0088,3.0088,2.5163,1.6605,1.2815,1.0195,0.8184,0.0,0.0,0.0,0.0,0.0,0.0,0.0,0.0,0.0,0.0,0.0,0.0,0.0,0.0,0.0,0.0,0.0,0.0,0.0,0.0,0.0,0.0,0.0,0.0,0.0,0.0,0.0,0.0,0.0,0.0,0.0,0.0,0.0,0.0,0.0,0.0,0.0,-0.3457,-0.3261,-0.4354,-0.3813,-0.3616,0.0,0.0,0.0,0.0,0.0,0.0,-0.0484,0.1332,0.2409,0.2548,0.4257,0.5245,0.5302,0.5847,0.6191,0.6225,0.507,0.4528,0.4432,0.3087,0.2504,0.2491,0.1438,0.1043,0.0924,-0.0501,-0.1314,-0.176,-0.2084,-0.214,-0.2211,-0.2211,-0.2202,-0.2336,0.0,0.0,0.0,0.0,0.0,0.0,0.0,0.0,0.0,0.0,0.0,1.3125,1.3833,1.7764,2.047,2.0851,2.0448,1.8582,1.4744,1.2415,0.9585,0.6072,0.4578,0.386,0.4005,1.2783,1.9422,2.3633,2.9347,3.1891,3.1347,3.2063,3.2033,3.1377,3.1377,2.7982,2.2031,2.0584,1.7331,1.2745,0.7591,0.0,0.0,0.0,0.0,0.0,0.0,0.0,0.0,0.0,0.0,0.0,0.0,0.0,0.0,0.0,0.0,0.0,0.0,0.0,0.0,0.0,0.0,0.0,0.0,0.0,0.0,0.0,0.0,0.0,0.0,0.0,0.0,0.0,0.0,0.0,0.0,0.0,0.0,-0.3648,-0.3074,0.0,0.0,0.0,0.0,-0.0517,0.0833,0.1614,0.1615,0.3388,0.4437,0.4538,0.6269,0.7376,0.7654,0.7681,0.7764,0.7905,0.6512,0.5912,0.5812,0.4506,0.3871,0.3905,0.3808,0.3766,0.3581,0.0434,-0.1003,-0.1241,-0.1776,-0.2102,-0.2177,-0.2177,-0.2219,-0.2245,0.0,0.0,0.0,0.0,0.0,0.0,0.0,0.0,0.7094,0.7281,1.0854,1.3718,1.4697,2.107,2.5349,2.5469,2.7535,2.6423,2.0836,1.7361,1.3258,0.8161,0.5458,0.664,1.212,1.8871,2.4739,2.9531,3.2492,3.3805,3.3533,3.3261,3.3021,3.2796,3.2796,3.0921,2.7565,2.3475,1.9726,1.6135,1.1776,0.7897,0.0,0.0,0.0,0.0,0.0,0.0,0.0,0.0,0.0,0.0,0.0,0.0,0.0,0.0,0.0,0.0,0.0,0.0,0.0,0.0,0.0,0.0,0.0,0.0,0.0,0.0,0.0,0.0,0.0,0.0,0.0,0.0,0.0,0.0,0.0,0.0,0.0,-0.3029,-0.2287,0.0,-0.1525,-0.1142,-0.0306,0.0996,0.266,0.3675,0.381,0.5631,0.6856,0.6994,0.7677,0.8092,0.8106,0.8106,0.8085,0.8038,0.7537,0.7335,0.7235,0.5927,0.5304,0.5273,0.4377,0.3963,0.3931,0.2771,0.2234,0.2085,0.0962,0.0517,0.0431,-0.0432,-0.0773,-0.0853,0.0,0.0,0.0,0.0,0.0,0.0,0.0,0.0,0.7504,0.8845,1.2947,1.6672,1.8982,2.5956,3.0545,3.0833,3.2329,3.0307,2.3277,1.9359,1.446,0.8088,0.6998,1.0526,1.893,2.3602,2.8353,3.3391,3.4731,3.5272,3.4926,3.4407,3.4173,3.4173,3.4173,3.3013,3.0908,2.713,2.3829,2.0606,1.6325,1.1331,0.6299,0.0,0.0,0.0,0.0,0.0,0.0,0.0,0.0,0.0,0.0,0.0,0.0,0.0,0.0,0.0,0.0,0.0,0.0,0.0,0.0,0.0,0.0,0.0,0.0,0.0,0.0,0.0,0.0,0.0,0.0,0.0,0.0,0.0,0.0,-0.1944,-0.1158,-0.1189,-0.0357,0.0361,0.077,0.1199,0.1978,0.3272,0.4963,0.6067,0.6145,0.7464,0.8235,0.834,0.8431,0.8435,0.8343,0.8296,0.8245,0.8187,0.814,0.8143,0.8187,0.7223,0.6796,0.6693,0.5739,0.532,0.532,0.532,0.5046,0.4544,0.2676,0.1989,0.1884,0.0472,0.0,-0.0187,0.0,0.0,0.0,0.0,0.0,0.0,0.0,0.7027,0.8219,1.1632,1.6853,2.2087,2.6914,3.2381,3.5977,3.6705,3.4282,2.9441,2.1718,1.7918,1.2921,0.6,0.9418,1.5362,2.364,2.6585,3.0295,3.4778,3.6052,3.6279,3.5504,3.5504,3.5504,3.5504,3.5439,3.4074,3.1792,3.1792,2.9693,2.6083,2.119,1.5577,0.9649,0.0,0.0,0.0,0.0,0.0,0.0,0.0,0.0,0.0,0.0,0.0,0.0,0.0,0.0,0.0,0.0,0.0,0.0,0.0,0.0,0.0,0.0,0.0,0.0,0.0,0.0,0.0,0.0,0.0,0.0,0.0,0.0,0.0,-0.1156,0.0085,0.1212,0.1788,0.2633,0.3193,0.3228,0.4334,0.5544,0.6487,0.7767,0.8482,0.8489,0.8489,0.8489,0.8496,0.8496,0.8492,0.8489,0.8353,0.835,0.8479,0.8343,0.835,0.8476,0.834,0.8275,0.8262,0.8113,0.8045,0.8038,0.7939,0.7132,0.5727,0.3118,0.199,0.1861,0.0491,0.0,-0.0191,0.0,0.0,0.0,0.0,0.0,0.0,0.0,0.7208,0.8723,1.2582,1.7924,2.3167,2.7967,3.3746,3.6922,3.6089,3.4464,3.056,2.3509,1.863,1.4107,0.9813,1.556,2.1104,2.5838,2.9958,3.3426,3.614,3.6472,3.649,3.6275,3.5718,3.5504,3.5439,3.4758,3.3654,3.2274,3.0737,2.8925,2.6902,2.5184,2.0347,1.4033,0.0,0.0,0.0,0.0,0.0,0.0,0.0,0.0,0.0,0.0,0.0,0.0,0.0,0.0,0.0,0.0,0.0,0.0,0.0,0.0,0.0,0.0,0.0,0.0,0.0,0.0,0.0,0.0,0.0,0.0,0.0,0.0326,0.1752,0.1761,0.2295,0.2884,0.3626,0.4003,0.4448,0.5451,0.5884,0.6657,0.7887,0.8246,0.853,0.8642,0.8648,0.8699,0.8811,0.8815,0.876,0.8648,0.8608,0.8554,0.8482,0.8442,0.8445,0.8479,0.8442,0.8367,0.8269,0.8225,0.8143,0.7939,0.6933,0.6331,0.5827,0.4117,0.2906,0.1798,0.0501,0.0,0.0,0.0,0.0,0.0,0.0,0.0,0.0,0.0,0.7355,0.9432,1.4873,1.9453,2.4574,3.0564,3.4949,3.6969,3.5861,3.2514,2.7876,2.1765,1.6735,1.4597,1.6004,2.0789,2.5425,2.9622,3.2874,3.5232,3.6663,3.6596,3.6446,3.6117,3.5733,3.5279,3.4839,3.4245,3.2989,3.1209,2.9986,2.8395,2.6593,2.6249,2.2051,1.594,1.5842,1.192,0.6563,0.6535,0.6314,0.555,0.2587,0.0,0.0,0.0,0.0,0.0,0.0,0.0,0.0,0.0,0.0,0.0,0.0,0.0,0.0,0.0,0.0,0.0,0.0,0.0,0.0,0.0,0.0,0.0,0.0,0.2237,0.4415,0.5412,0.5069,0.512,0.6251,0.6396,0.6614,0.7478,0.7481,0.7803,0.8565,0.873,0.8777,0.8804,0.8923,0.8974,0.894,0.8998,0.8957,0.8808,0.8743,0.8699,0.8672,0.8608,0.8611,0.8672,0.8608,0.8499,0.8357,0.7773,0.7357,0.7033,0.5724,0.4822,0.4221,0.0,0.0,0.0,0.0,0.0,0.0,0.0,0.0,0.0,0.0,0.0,0.0,0.0,0.754,1.0188,1.7555,2.1101,2.586,3.3466,3.5738,3.6405,3.5613,2.9581,2.3525,1.8251,1.4493,1.5708,2.2829,2.5246,2.877,3.3692,3.4948,3.5905,3.6508,3.6508,3.6165,3.5504,3.5359,3.4839,3.4027,3.3642,3.1996,2.9451,2.9192,2.7684,2.5477,2.5451,2.1967,1.6923,1.6545,1.2711,0.7513,0.7437,0.6562,0.5351,0.4428,0.0,0.0,0.0,0.0,0.0,0.0,0.0,0.0,0.0,0.0,0.0,0.0,0.0,0.0,0.0,0.0,0.0,0.0,0.0,0.0,0.0,0.0,0.0,0.0,0.4227,0.6908,0.8967,0.7943,0.7503,0.8725,0.8964,0.8964,0.8964,0.8964,0.8971,0.8988,0.9089,0.9113,0.9018,0.9232,0.0,0.0,0.0,0.9093,0.8964,0.8811,0.8804,0.8937,0.8801,0.8808,0.8933,0.8577,0.8424,0.8157,0.6671,0.5935,0.5627,0.4318,0.3015,0.1812,0.1812,0.1812,0.1611,0.0404,0.0,0.0,0.0,0.0,0.0,0.0,0.0,0.0,0.0,0.7682,1.0591,1.8345,2.1619,2.5716,3.2192,3.4816,3.5313,3.3504,2.8286,2.2869,1.7517,1.9324,2.1937,2.5003,2.9042,3.2153,3.4286,3.5115,3.5597,3.5733,3.5733,3.5604,3.5504,3.4691,3.4177,3.3876,3.1462,3.0049,2.9309,2.713,2.5732,2.4935,2.441,2.3056,2.1306,2.0285,1.8308,1.5834,1.4827,1.4379,1.3529,0.8524,0.7339,0.6981,0.1287,-0.1894,0.0,0.0,0.0,0.0,0.0,0.0,0.0,0.0,0.0,0.0,0.0,0.0,0.0,0.0,0.0,0.0,0.0,0.0,0.0,0.1751,0.5581,0.8686,0.9296,0.9056,0.8987,0.912,0.9113,0.9113,0.9113,0.9113,0.9164,0.9286,0.9208,0.9249,0.9469,0.93,0.9283,0.9473,0.9266,0.914,0.9113,0.8967,0.891,0.894,0.891,0.0,0.8826,0.768,0.6991,0.6782,0.5282,0.4556,0.4318,0.2916,0.1611,0.0404,0.0404,0.0404,0.0404,0.0101,0.0,0.0,0.0,0.0,0.0,0.0,0.0,0.0,0.0,0.7929,1.0037,1.6001,1.8358,2.1445,2.6612,2.8179,2.8203,2.6468,2.2956,1.9899,1.7634,2.1731,2.5846,2.9468,3.2105,3.3963,3.4966,3.5325,3.5504,3.5504,3.5504,3.5213,3.4758,3.4245,3.3199,3.1707,3.042,2.8986,2.7321,2.5959,2.4939,2.422,2.3722,2.2833,2.1913,2.1089,1.9806,1.8065,1.6108,1.4957,1.3892,1.0089,0.9067,0.8493,0.3398,0.067,-0.1256,0.0,0.0,0.0,0.0,0.0,0.0,0.0,0.0,0.0,0.0,0.0,0.0,0.0,0.0,-0.2817,-0.2876,0.0,0.3828,0.3915,0.7048,0.9432,0.9581,0.9602,0.9517,0.9293,0.9266,0.9266,0.9266,0.9266,0.93,0.9374,0.9381,0.9415,0.9493,0.949,0.9456,0.9384,0.9306,0.9195,0.9049,0.8974,0.894,0.894,0.894,0.8491,0.7817,0.7086,0.6226,0.5262,0.3836,0.3137,0.2852,0.1516,0.0609,0.0,0.0,0.0,0.0,0.0,0.0,0.0,0.0,0.0,0.0,0.0,0.0,0.0,0.0,0.817,0.9454,1.3471,1.496,1.7086,2.0789,2.1448,2.0653,1.8474,1.8184,1.8182,1.8182,2.3735,2.9018,3.3498,3.4322,3.4936,3.5489,3.5504,3.5504,3.5504,3.5279,3.4758,3.4027,3.3421,3.1906,2.9626,2.9352,2.7911,2.556,2.5388,2.4725,2.3769,2.3496,2.2555,2.1194,2.0606,1.947,1.7763,1.5039,1.3083,1.1624,1.0293,0.9303,0.8099,0.5012,0.3023,0.0866,-0.406,-0.5369,0.0,0.0,0.0,0.0,0.0,0.0,0.0,0.0,-0.3722,-0.3574,-0.2846,-0.1638,-0.0693,-0.0735,0.2341,0.4955,0.4972,0.7041,0.884,0.9313,0.9329,0.9366,0.9493,0.9442,0.9425,0.9425,0.9425,0.9439,0.9462,0.9554,0.9568,0.9469,0.9666,0.9506,0.8826,0.9258,0.9195,0.8501,0.8785,0.8755,0.853,0.8501,0.7706,0.6251,0.5925,0.5118,0.3701,0.2357,0.1684,0.1552,0.0408,0.0,0.0,0.0,0.0,0.0,0.0,0.0,0.0,0.0,0.0,0.0,0.0,0.0,0.0,0.0,0.0,0.9725,1.3512,1.4893,1.6428,1.8797,1.9837,1.8174,1.2572,1.878,2.1776,1.889,2.6882,3.251,3.4307,3.5026,3.5429,3.5504,3.5504,3.5504,3.5504,3.461,3.4095,3.3945,3.1243,3.0088,3.0019,2.7184,2.5974,2.5972,2.5388,2.4667,2.3818,2.4141,2.3057,2.1167,1.9804,1.8483,1.6966,1.4237,1.1952,1.0029,0.9321,0.7115,0.4841,0.4888,0.2989,0.0167,-0.1852,-0.3667,-0.5323,-0.6915,-0.6502,-0.5525,-0.5062,-0.4333,-0.3544,0.0,-0.2814,-0.2853,-0.2721,-0.2559,-0.2495,-0.2603,-0.0309,0.1626,0.1439,0.3643,0.6006,0.7482,0.7728,0.821,0.9533,0.9659,0.9585,0.9585,0.9585,0.9635,0.9764,0.9673,0.9656,0.9768,0.9683,0.9061,0.7667,0.8913,0.8847,0.7264,0.8565,0.8442,0.7069,0.6972,0.6144,0.4691,0.3297,0.2618,0.229,0.0859,0.0211,0.0208,0.0104,0.0,0.0,0.0,0.0,0.0,0.0,0.0,0.0,0.0,0.0,0.0,0.0,0.0,0.0,0.0,0.0,0.0,1.0264,1.0677,1.1264,1.2318,1.2205,1.088,0.7973,1.4987,1.9523,1.9317,2.7605,3.3275,3.4996,3.5355,3.5504,3.5504,3.5504,3.5213,3.461,3.4177,3.3115,3.1316,3.0125,2.8785,2.729,2.5503,2.4947,2.5428,2.4126,2.3336,2.3083,2.2765,2.1086,1.8775,1.7529,1.6063,1.4254,1.1402,0.9344,0.0,0.5847,0.4362,0.3239,0.3153,0.1953,0.0082,-0.2451,-0.3354,-0.355,-0.3702,-0.3795,-0.3634,-0.2945,-0.2527,-0.2123,-0.1911,-0.1865,-0.1732,-0.1214,-0.0415,0.0212,0.0217,0.1912,0.3244,0.318,0.4228,0.5161,0.5894,0.5894,0.6241,0.6912,0.6924,0.7299,0.8268,0.8268,0.8288,0.834,0.9274,0.9758,0.9819,0.8908,0.8015,0.7268,0.6863,0.6423,0.5602,0.6217,0.6145,0.5527,0.5491,0.458,0.3128,0.2528,0.1738,0.0861,0.0321,0.0,0.0,0.0,0.0,0.0,0.0,0.0,0.0,0.0,0.0,0.0,0.0,0.0,0.0,0.0,0.0,0.0,0.0,0.0,0.0,0.0,0.7749,0.7756,0.7734,0.6804,0.5947,0.5293,1.1411,1.6465,1.9198,2.6757,3.2346,3.5115,3.54,3.5504,3.5504,3.5213,3.4758,3.4027,3.3199,3.1621,2.9515,2.8572,2.7008,2.4856,2.3894,2.3644,2.3785,2.2524,2.1967,2.1808,2.1119,1.9183,1.6519,1.5527,1.3435,1.0689,0.8625,0.6869,0.5182,0.3052,0.1698,0.0921,0.1137,0.0568,-0.0629,-0.3172,-0.3601,-0.3018,-0.2237,-0.2277,-0.2388,-0.1493,-0.1116,-0.0973,-0.0894,-0.0918,-0.0739,-0.0111,0.0799,0.1627,0.178,0.2633,0.3383,0.3559,0.3568,0.3684,0.4157,0.4276,0.4373,0.4901,0.446,0.474,0.5973,0.6829,0.7317,0.7317,0.8415,0.9026,0.9026,0.7591,0.6472,0.5802,0.5174,0.4512,0.3944,0.4367,0.4323,0.3939,0.392,0.3018,0.1566,0.1548,0.0976,0.0,0.0,0.0,0.0,0.0,0.0,0.0,0.0,0.0,0.0,0.0,0.0,0.0,0.0,0.0,0.0,0.0,0.0,0.0,0.0,0.0,0.0,0.0,0.0,0.0,0.0,0.6651,0.5894,0.5166,0.9365,1.3916,1.8266,2.4171,2.9621,3.4352,3.5145,3.5504,3.5504,3.4543,3.4027,3.4027,3.1095,2.9592,2.9439,2.6371,2.4471,2.3613,2.2537,2.1684,2.0971,2.0858,2.0554,2.0195,1.982,1.8034,1.5293,1.4511,1.0986,0.6417,0.6481,0.505,0.3031,0.1781,-0.0618,-0.2819,-0.0922,-0.1183,-0.2307,-0.3311,-0.429,-0.4891,-0.4123,-0.3288,-0.2499,-0.1574,-0.0685,0.0,0.0,0.0,0.0,0.0,0.0,0.0119,0.0123,0.0122,0.0121,0.0123,0.0123,0.0736,0.2292,0.2528,0.3109,0.4703,0.3524,0.2603,0.2643,0.5406,0.7085,0.7085,0.7204,0.7204,0.7204,0.5728,0.4303,0.2706,0.4118,0.4083,0.2523,0.3954,0.4005,0.252,0.2366,0.1454,0.0112,0.0112,0.0,0.0,0.0,0.0,0.0,0.0,0.0,0.0,0.0,0.0,0.0,0.0,0.0,0.0,0.0,0.0,0.0,0.0,0.0,0.0,0.0,0.0,0.0,0.0,0.0,0.0,0.0,0.0,0.0,0.0,0.8366,1.1935,1.4285,2.1771,2.7187,2.9694,3.304,3.4545,3.3944,3.3975,3.3045,3.1008,2.9973,2.8052,2.5196,2.4088,2.2782,2.1191,1.9931,1.9963,2.0745,1.9558,1.851,1.7633,1.6978,1.5107,1.24,0.9858,0.7239,0.4566,0.0,-0.0067,-0.0967,-0.2629,-0.3697,-0.398,-0.2704,-0.2664,-0.3311,-0.4201,-0.438,-0.405,-0.333,-0.2428,-0.1443,-0.0681,-0.0208,0.0,0.0,0.0,0.0,0.0,-0.0457,-0.0893,-0.0884,-0.0887,-0.0892,-0.0897,-0.0352,0.0242,0.0714,0.0838,0.1074,0.1625,0.1168,0.0822,0.0818,0.2731,0.4444,0.5402,0.5642,0.6094,0.7092,0.4634,0.3101,0.2506,0.1901,0.1415,0.0817,0.1385,0.137,0.0791,0.0786,0.0448,0.0,0.0,0.0,0.0,0.0,0.0,0.0,0.0,0.0,0.0,0.0,0.0,0.0,0.0,0.0,0.0,0.0,0.0,0.0,0.0,0.0,0.0,0.0,0.0,0.0,0.0,0.0,0.0,0.0,0.0,0.0,0.0,0.0,0.9706,1.1918,1.7888,2.2392,2.4764,2.7792,2.9199,2.8602,2.8375,2.7288,2.5083,2.5218,2.3708,2.0759,2.1193,2.051,1.8899,1.7602,1.7441,1.798,1.6372,1.4946,1.3537,1.2925,1.0973,0.8143,0.5822,0.3619,0.0,-0.1701,-0.3336,-0.4201,-0.5195,-0.5083,-0.454,-0.3963,-0.3918,-0.4102,-0.4443,-0.4196,-0.3569,-0.2483,-0.1693,-0.0949,-0.0203,0.0,0.0,0.0,0.0,0.0,0.0,-0.0668,-0.1277,-0.1249,-0.1536,-0.1829,-0.1841,-0.129,-0.0894,-0.0563,-0.0455,-0.0344,0.0,0.0,0.0,0.0,0.1416,0.2973,0.4487,0.5193,0.5756,0.6161,0.3741,0.2115,0.1646,0.0585,0.0,0.0,0.0,0.0,0.0,0.0,0.0,0.0,0.0,0.0,0.0,0.0,0.0,0.0,0.0,0.0,0.0,0.0,0.0,0.0,0.0,0.0,0.0,0.0,0.0,0.0,0.0,0.0,0.0,0.0,0.0,0.0,0.0,0.0,0.0,0.0,0.0,0.0,0.0,0.0,0.0,1.0801,1.2875,1.5695,1.9672,2.0126,2.0303,2.0249,1.8794,1.7705,1.7053,1.726,1.7013,1.63,1.7539,1.7431,1.622,1.5143,1.392,1.2716,1.1701,1.0124,0.833,0.7975,0.5873,0.2931,0.2496,0.0064,-0.3136,-0.3245,-0.4696,-0.6529,-0.5869,-0.5183,-0.464,-0.4653,-0.475,-0.4716,-0.3968,-0.3734,-0.3356,-0.1691,-0.1223,-0.1073,-0.021,0.0,0.0,0.0,0.0,0.0,-0.0117,-0.0876,-0.1439,-0.1536,-0.2221,-0.2775,-0.2738,-0.2671,-0.2249,-0.1343,-0.125,-0.0962,-0.0114,0.0,0.0,0.0,0.141,0.2915,0.4357,0.5834,0.5945,0.4576,0.302,0.1524,0.0,0.0,0.0,0.0,0.0,0.0,0.0,0.0,0.0,0.0,-0.011,-0.0108,0.0,-0.0105,-0.0103,-0.0101,-0.0101,-0.0101,-0.0202,-0.0202,-0.0202,-0.0202,-0.0202,-0.0202,-0.0202,0.0,0.0,0.0,0.0,0.0,0.0,0.0,0.0,0.0,0.0,0.0,0.0,0.0,0.0,0.0,0.0,0.0,0.0,0.6113,0.9889,1.254,1.3621,1.724,1.8881,1.8109,1.7743,1.6768,1.5054,1.4579,1.3064,1.0636,1.1023,1.0236,0.853,0.8221,0.7919,0.762,0.7304,0.6287,0.4927,0.4649,0.344,0.1587,-0.0134,-0.2056,-0.3916,-0.4775,-0.6077,-0.7396,-0.7176,-0.6909,-0.6299,-0.4801,-0.4332,-0.417,-0.3115,-0.2402,-0.1854,-0.1396,-0.0792,-0.0314,-0.0108,0.0,0.0,0.0,0.0,-0.034,-0.1617,-0.2677,-0.3721,-0.5009,-0.4381,-0.3705,-0.3695,-0.2003,-0.065,-0.0329,-0.0334,-0.0225,0.0,0.0,0.0,0.0,0.2449,0.4214,0.4662,0.4953,0.4918,0.469,0.3068,0.1473,0.0,0.0,0.0,0.0,0.0,0.0,0.0,0.0,0.0,0.0,-0.1089,-0.0975,-0.0107,-0.1045,-0.1446,-0.1541,-0.152,-0.2113,-0.3015,-0.3015,-0.3015,-0.3015,-0.3015,-0.3015,-0.3015,0.0,0.0,0.0,0.0,0.0,0.0,0.0,0.0,0.0,0.0,0.0,0.0,0.0,0.0,0.0,0.0,0.0,0.0,0.0,0.7209,0.8862,0.8956,1.1292,1.2395,1.1852,1.1334,1.0312,0.8878,0.8885,0.7851,0.5926,0.6616,0.6356,0.5283,0.4784,0.457,0.4494,0.3988,0.2832,0.0,0.0,0.0137,-0.153,-0.2735,-0.4103,-0.5348,-0.5306,-0.6036,-0.707,-0.7338,-0.6785,-0.5751,-0.4637,-0.3991,-0.3331,-0.2293,-0.1613,-0.1226,-0.0882,-0.0413,0.0,0.0,-0.0446,-0.1014,-0.0983,-0.1625,-0.2432,-0.3396,-0.4364,-0.542,-0.6388,-0.5511,-0.4558,-0.4536,-0.2692,-0.102,-0.0633,-0.0538,-0.0441,0.0,0.0,0.0,0.0,0.2244,0.3675,0.3676,0.49,0.5301,0.4693,0.3064,0.1578,0.0,0.0,0.0,0.0,0.0,0.0,0.0,-0.0545,-0.0867,-0.0959,-0.2236,-0.2438,-0.1784,-0.2575,-0.2859,-0.2857,-0.2928,-0.3316,-0.4016,-0.4016,-0.4016,-0.4016,-0.4016,-0.4016,-0.4016,0.0,0.0,0.0,0.0,0.0,0.0,0.0,0.0,0.0,0.0,0.5529,0.5197,0.0,0.0,0.0,0.0,0.0,0.0,0.0,0.0,0.5396,0.5571,0.4861,0.4534,0.4638,0.3352,0.2357,0.1747,0.2408,0.2351,0.1663,0.2976,0.3542,0.3404,0.233,0.1857,0.1859,0.0835,-0.0537,-0.2012,-0.202,-0.3194,-0.4931,0.0,0.0,-0.7012,-0.5735,-0.5783,-0.6467,-0.7064,-0.5993,-0.4437,-0.4603,-0.3707,-0.2425,-0.1654,-0.1232,-0.0974,-0.0206,0.0,0.0,-0.022,-0.1217,-0.2188,-0.2438,-0.3673,-0.4895,-0.5074,-0.5994,-0.6821,-0.7074,-0.6273,-0.5529,-0.5318,-0.3788,-0.2253,-0.1279,-0.111,-0.0847,-0.0116,0.0,0.0,0.0,0.132,0.2278,0.2518,0.4845,0.5706,0.448,0.2975,0.1476,-0.0224,-0.0336,-0.0336,-0.0558,-0.0557,-0.0552,-0.0543,-0.1735,-0.2254,-0.232,-0.3637,-0.4123,-0.4007,-0.4145,-0.4218,-0.4218,-0.4218,-0.4418,-0.4516,-0.4516,-0.4516,-0.4516,-0.4516,-0.4516,-0.4516,0.0,0.0,0.0,0.0,0.0,0.0,0.0,0.0,0.0,0.0,0.4879,0.4682,0.0,0.0,0.0,0.0,0.0,0.0,0.0,0.0,0.0,0.4313,0.37,0.3393,0.3415,0.2108,0.1038,0.0325,-0.0112,-0.107,-0.2406,-0.2681,-0.3111,-0.3743,-0.4555,-0.4562,-0.4056,-0.4417,-0.4383,-0.4171,-0.4281,-0.4628,-0.5154,0.0,0.0,0.0,-0.8155,-0.7969,-0.7518,-0.7983,-0.6991,-0.5535,-0.5527,-0.3898,-0.192,-0.1871,-0.1107,-0.0206,0.0,0.0,-0.0329,-0.1555,-0.1878,-0.2365,-0.3682,-0.4193,-0.4851,-0.6659,-0.7183,-0.7841,-0.958,-0.8376,-0.6695,-0.551,-0.3594,-0.1802,-0.0424,-0.0216,-0.022,0.0,0.0,0.0,0.0,0.1535,0.2477,0.2477,0.294,0.3165,0.2924,0.2394,0.1009,-0.1677,-0.1789,-0.2443,-0.3723,-0.356,-0.3502,-0.3442,-0.3545,-0.3613,-0.3652,-0.5033,-0.5018,-0.4034,-0.5129,-0.5627,-0.5627,-0.5627,-0.6329,-0.7332,-0.7332,-0.7332,-0.7332,-0.7332,-0.7332,-0.7332,0.0,0.0,0.0,0.0,0.0,0.0,0.0,0.5892,0.5125,0.4474,0.4357,0.4149,0.365,0.391,0.4009,0.0,0.0,0.0,0.0,0.0,0.0,0.0,0.0,0.0,0.2613,0.1272,0.0331,0.0,0.0,-0.2815,-0.3955,-0.4616,-0.5474,-0.6355,-0.6529,-0.6484,-0.6309,-0.5962,-0.5604,-0.5277,-0.4977,-0.525,0.0,0.0,0.0,0.0,0.0,-0.8346,-0.7619,-0.8275,-0.7295,-0.5791,-0.5844,-0.4559,-0.2983,-0.3007,-0.2667,-0.2208,-0.2227,-0.2277,-0.2433,-0.3088,-0.3835,-0.4537,-0.5465,-0.6186,-0.718,-0.8577,-0.886,-0.9174,-1.0181,-0.8891,-0.7458,-0.6579,-0.4197,-0.2173,-0.1428,-0.053,0.0,0.0,0.0,0.0,0.0,0.0706,0.1176,0.1176,0.1167,0.1625,0.2436,0.0906,-0.0782,-0.2124,-0.2881,-0.3625,-0.4356,-0.4174,-0.41,-0.413,-0.4749,-0.501,-0.5122,-0.6388,-0.6687,-0.6124,-0.6731,-0.7033,-0.7033,-0.7033,-0.7434,-0.8038,-0.8038,-0.8038,-0.8038,-0.8038,-0.8038,-0.8038,0.0,0.0,0.0,0.0,0.0,0.0,0.6313,0.5169,0.4332,0.416,0.3887,0.3618,0.3407,0.3718,0.3877,0.0,0.0,0.0,0.0,0.0,0.0,0.0,0.0,0.0,0.0,0.0,0.0,-0.0958,-0.2686,0.0,0.0,0.0,0.0,0.0,-0.7284,-0.7327,-0.739,-0.674,-0.6352,0.0,0.0,-0.5988,0.0,0.0,0.0,0.0,0.0,-0.8369,-0.7787,-0.8424,-0.7668,-0.6475,-0.6551,-0.5408,-0.411,-0.4405,-0.4425,-0.4261,-0.4225,-0.4342,-0.4431,-0.4698,-0.5534,-0.6635,-0.7076,-0.8133,-0.9158,-0.9857,-1.002,-1.006,-1.0187,-0.9236,-0.8297,-0.7694,-0.525,-0.3239,-0.2683,-0.1216,-0.0214,0.0,0.0,0.0,0.0,0.0,0.0,0.0,-0.0345,0.0114,0.1368,-0.09,-0.2459,-0.3128,-0.4174,-0.479,-0.5116,-0.501,-0.492,-0.4953,-0.5965,-0.642,-0.6431,-0.7537,-0.8038,-0.8038,-0.8038,-0.8038,-0.8038,-0.8038,-0.8038,-0.8038,-0.8038,-0.8038,-0.8038,-0.8038,-0.8038,-0.8038,0.0,0.0,0.0,0.0,0.0,0.0,0.5348,0.4651,0.4028,0.3493,0.3381,0.322,0.2841,0.3389,0.3802,0.0,0.0,0.0,0.0,0.0,0.0,0.0,0.0,0.0,0.0,0.0,0.0,-0.4017,-0.4197,0.0,0.0,0.0,0.0,0.0,0.0,-0.9086,-0.8469,-0.8512,0.0,0.0,0.0,0.0,0.0,0.0,0.0,0.0,0.0,-0.9079,-0.8979,-0.8686,-0.8628,-0.8623,-0.8309,-0.6402,-0.4578,-0.566,-0.5274,-0.4461,-0.4269,-0.4196,-0.4582,-0.5988,-0.6343,-0.6712,-0.8113,-0.8489,-0.8675,-0.9535,-0.9726,-0.9886,-1.0421,-1.0467,-0.982,-0.8098,-0.6974,-0.5382,-0.2977,-0.1748,-0.092,-0.0111,0.0,0.0,0.0,0.0,0.0,0.0,-0.1235,-0.1905,-0.1792,-0.2014,-0.3462,-0.6253,-0.626,-0.6964,-0.8275,-0.8007,-0.7869,-0.7853,-0.7821,-0.7852,-0.7839,-0.7939,-0.8038,-0.8038,-0.8038,-0.8038,-0.8038,-0.8038,-0.8038,-0.8038,-0.8038,-0.8038,-0.8038,-0.8038,-0.8038,-0.8038,0.0,0.0,0.0,0.0,0.0,0.0,0.4758,0.4205,0.3778,0.3602,0.3615,0.3397,0.2865,0.3064,0.3082,0.2616,0.0,0.0,0.0,0.0,0.0,0.0,0.0,0.0,0.0,0.0,-0.3113,-0.4426,-0.4871,0.0,0.0,0.0,0.0,0.0,0.0,-0.9597,-0.9462,-0.8998,0.0,0.0,0.0,0.0,0.0,0.0,0.0,0.0,0.0,0.0,-0.8923,-0.8802,-0.8704,-0.8637,-0.8618,-0.7933,-0.7064,-0.7321,-0.7165,-0.691,-0.6836,-0.6817,-0.6962,-0.7499,-0.7664,-0.7833,-0.8625,-0.8762,-0.9007,-0.9781,-1.0087,-1.0342,-1.0577,-1.0701,-1.0529,-0.965,-0.8305,-0.6838,-0.5224,-0.4251,-0.3341,-0.2284,-0.1784,-0.1498,-0.135,-0.0562,-0.0336,-0.1231,-0.2683,-0.4021,-0.4912,-0.4863,-0.5387,-0.6488,-0.7281,-0.7916,-0.8445,-0.8235,-0.8133,-0.813,-0.8069,-0.8038,-0.8038,-0.8038,-0.8038,-0.8038,-0.8038,-0.8038,-0.8038,-0.8038,-0.8038,-0.8038,-0.8038,-0.8038,-0.8038,-0.8038,-0.8038,-0.8038,0.0,0.0,0.0,0.0,0.0,0.4894,0.4406,0.3934,0.3598,0.3653,0.356,0.326,0.2656,0.2569,0.2233,0.1348,0.2046,0.0,0.0,0.0,0.0,0.0,0.0,0.0,0.0,0.0,-0.3944,-0.5031,-0.5588,-0.6743,0.0,0.0,-0.9087,-1.0107,0.0,0.0,0.0,0.0,0.0,0.0,0.0,0.0,0.0,0.0,0.0,0.0,0.0,0.0,0.0,0.0,0.0,-0.8562,-0.8728,-0.8802,-0.8764,-0.8381,-0.8426,-0.8585,-0.8543,-0.8487,-0.8421,-0.8421,-0.8466,-0.8516,-0.8706,-0.8877,-0.9194,-0.9877,-1.0227,-1.0454,-1.0611,-1.0868,-1.1022,-1.0735,-0.9495,-0.8208,-0.7271,-0.6274,-0.526,-0.4269,-0.366,-0.3087,-0.2366,-0.1321,-0.122,-0.2643,-0.4181,-0.5501,-0.6491,-0.6818,-0.7107,-0.718,-0.7932,-0.8313,-0.8272,-0.8116,-0.8038,-0.8038,-0.8038,-0.8038,-0.8038,-0.8038,-0.8038,-0.8038,-0.8038,-0.8038,-0.8038,-0.8038,-0.8038,-0.8038,-0.8038,-0.8038,-0.8038,-0.8038,-0.8038,-0.8038,0.0,0.0,0.0,0.0,0.0,0.0,0.4239,0.3867,0.3524,0.3333,0.2956,0.2492,0.1891,0.1803,0.1351,0.01,0.1107,0.0,0.0,0.0,0.0,0.0,0.0,0.0,0.0,0.0,-0.4388,-0.6588,-0.6588,-0.7471,-0.9183,-0.9183,-0.9495,-1.0114,0.0,0.0,0.0,0.0,0.0,0.0,0.0,0.0,0.0,0.0,0.0,0.0,0.0,0.0,0.0,0.0,0.0,0.0,0.0,-0.8818,-0.878,-0.8663,-0.8765,-0.8868,-0.8537,-0.839,-0.8272,-0.8272,-0.839,-0.8484,-0.8456,-0.8694,-0.9148,-0.9623,-0.992,-1.0214,-1.0571,-1.1035,-1.1323,-1.1035,-1.0479,-0.9684,-0.8538,-0.7323,-0.6267,-0.5349,-0.5318,-0.4569,-0.2782,-0.2218,-0.2491,-0.3931,-0.5409,-0.6255,-0.6255,-0.7516,-0.8408,-0.8699,-0.856,-0.8414,-0.8272,-0.8116,-0.8038,-0.8038,-0.8038,-0.8038,-0.8038,-0.8038,-0.8038,-0.8038,-0.8038,-0.8038,-0.8038,-0.8038,-0.8038,-0.8038,-0.8038,-0.8038,-0.8038,-0.8038,-0.8038,-0.8038,0.0,0.0,0.0,0.0,0.0,0.0,0.3857,0.3679,0.3462,0.3101,0.2909,0.2456,0.1429,0.0857,0.0206,-0.0678,0.0,0.0,0.0,0.0,0.0,0.0,0.0,0.0,0.0,-0.458,-0.5647,-0.7343,-0.7571,-0.8195,-0.919,-0.9595,-0.994,-1.0127,-1.0327,-1.0474,0.0,0.0,0.0,0.0,0.0,0.0,0.0,0.0,0.0,0.0,0.0,0.0,0.0,0.0,0.0,0.0,0.0,0.0,0.0,-0.8738,-0.8737,-0.871,-0.8564,-0.8484,-0.8429,-0.8472,-0.8671,-0.8773,-0.8557,-0.9148,-0.9748,-0.9721,-1.0234,-1.0808,-1.1096,-1.1303,-1.1329,-1.1042,-1.0863,-1.0232,-0.8871,-0.8913,-0.8617,-0.7561,-0.6649,-0.55,-0.4092,-0.4559,-0.5239,-0.582,-0.7172,-0.7987,-0.7987,-0.8282,-0.8414,-0.8411,-0.8262,-0.8157,-0.8113,-0.8065,-0.8038,-0.8038,-0.8038,-0.8038,-0.8038,-0.8038,-0.8038,-0.8038,-0.8038,-0.8038,-0.8038,-0.8038,-0.8038,-0.8038,-0.8038,-0.8038,-0.8038,-0.8038,-0.8038,-0.8038,0.0,0.0,0.0,0.0,0.0,0.0,0.3667,0.3398,0.3152,0.2863,0.241,0.179,0.0785,0.0051,-0.0678,-0.1379,-0.1394,0.0,0.0,0.0,0.0,0.0,0.0,0.0,-0.5198,-0.5701,-0.6524,-0.7723,-0.8043,-0.8776,-0.9848,-1.0233,-1.0713,-1.1185,-1.0958,-1.0933,0.0,0.0,0.0,0.0,0.0,0.0,-0.8804,0.0,0.0,0.0,0.0,0.0,0.0,0.0,0.0,0.0,0.0,0.0,0.0,0.0,-0.8745,-0.868,-0.8644,-0.8468,-0.8412,-0.854,-0.8737,-0.8959,-0.8652,-0.929,-0.9873,-0.9573,-1.0127,-1.0715,-1.0895,-1.1202,-1.1329,-1.1042,-1.1082,-1.0762,-0.9542,-0.9856,-0.9849,-0.8962,-0.7593,-0.655,-0.6263,-0.636,-0.6758,-0.7337,-0.8087,-0.8543,-0.8543,-0.8397,-0.8275,-0.8187,-0.8147,-0.8099,-0.8038,-0.8038,-0.8038,-0.8038,-0.8038,-0.8038,-0.8038,-0.8038,-0.8038,-0.8038,-0.8038,-0.8038,0.0,-0.8038,-0.8038,-0.8038,-0.8038,-0.8038,-0.8038,-0.8038,-0.8038,-0.8038,0.0,0.0,0.0,0.0,0.0,0.0,0.0,0.3034,0.2627,0.2583,0.1563,0.0589,0.0,-0.0784,-0.1476,-0.1997,-0.2884,0.0,0.0,0.0,0.0,0.0,0.0,0.0,-0.6642,-0.6696,-0.702,-0.7777,-0.8165,-0.926,-1.0869,-1.1001,-1.176,-1.2959,-1.1856,-1.1526,-1.169,0.0,0.0,0.0,0.0,0.0,0.0,0.0,0.0,0.0,0.0,0.0,0.0,0.0,0.0,0.0,0.0,0.0,0.0,0.0,0.0,0.0,0.0,-0.8536,-0.8431,-0.8431,-0.872,-0.8948,-0.8703,-0.9211,0.0,-0.9339,-0.974,-1.014,-1.012,-1.0822,-1.1289,-1.0982,-1.1189,-1.1102,-1.0456,-1.0203,-1.0005,-0.9666,-0.816,-0.7687,-0.8929,-0.7629,-0.7135,-0.8401,-0.8367,-0.8282,-0.8272,-0.8123,-0.8038,-0.8038,-0.818,-0.8184,-0.8041,-0.8038,-0.8038,-0.8038,-0.8038,-0.8038,-0.8038,-0.8038,-0.8038,-0.8038,-0.8038,-0.8038,-0.8038,-0.8038,-0.8038,-0.8038,-0.8038,-0.8038,-0.8038,-0.8038,-0.8038,-0.8038,0.0,0.0,0.0,0.0,0.0,0.0,0.0,0.0,0.0,0.0,0.0669,0.0,-0.0634,-0.1737,-0.2509,0.0,0.0,0.0,0.0,0.0,0.0,0.0,0.0,0.0,-0.7396,-0.745,-0.7777,-0.8533,-0.9681,-1.036,-1.0599,-1.1892,-1.2576,-1.2663,-1.2614,-1.2161,-1.1361,-1.0172,0.0,0.0,0.0,0.0,0.0,0.0,0.0,0.0,-0.8804,-0.8804,0.0,0.0,0.0,0.0,0.0,0.0,0.0,0.0,-0.8804,-0.8811,-0.8747,0.0,-0.8679,-0.8679,-0.9145,-0.9483,0.0,-0.9721,-1.0268,-0.9686,0.0,0.0,-1.016,-1.0655,-1.0929,-1.0408,-1.0755,-1.0738,-0.9873,-0.9518,-0.9157,-0.8735,-0.8419,-0.8377,-0.8646,-0.8342,-0.8366,-0.8659,-0.8516,-0.8384,-0.8275,-0.8123,-0.8038,-0.8038,-0.8075,-0.8075,-0.8038,-0.8038,-0.8038,-0.8038,-0.8038,-0.8038,-0.8038,-0.8038,-0.8038,-0.8038,-0.8038,-0.8038,-0.8038,-0.8038,-0.8038,-0.8038,-0.8038,-0.8038,-0.8038,-0.8038,-0.8038,-0.8038,0.0,0.0,0.0,0.0,0.0,0.0,0.0,0.0,0.0,0.0,-0.0267,-0.1069,-0.165,-0.2406,-0.3125,0.0,0.0,0.0,0.0,0.0,0.0,0.0,0.0,-0.7308,-0.8209,-0.8209,-0.858,-0.9263,-1.0361,-1.1145,-1.1693,-1.2981,-1.3681,-1.3839,-1.3169,-1.223,-1.1241,-0.9992,-0.9385,0.0,-0.8925,0.0,0.0,0.0,0.0,0.0,-0.8804,-0.8804,0.0,-0.9159,-0.9061,-0.8857,0.0,0.0,0.0,0.0,-0.8804,-0.8804,-0.8804,-0.8804,-0.8804,-0.8804,-0.9145,-0.9406,-0.9105,-0.9519,-0.9826,-0.9372,0.0,-0.9947,-0.992,-1.0287,-1.0528,-1.0347,-1.039,-1.0284,-0.9609,-0.939,-0.9165,-0.8788,-0.8907,-0.8859,-0.8574,-0.8662,-0.8679,-0.8611,-0.8469,-0.835,-0.8275,-0.8123,-0.8038,-0.8038,-0.8038,-0.8038,-0.8038,-0.8038,-0.8038,-0.8038,-0.8038,-0.8038,-0.8038,-0.8038,-0.8038,-0.8038,-0.8038,-0.8038,-0.8038,-0.8038,-0.8038,-0.8038,-0.8038,-0.8038,-0.8038,-0.8038,-0.8038,-0.8038,0.0,0.0,0.0,0.0,0.0,0.0,0.0,0.0,0.0,0.0,0.0,0.0,0.0,0.0,0.0,0.0,0.0,0.0,0.0,0.0,0.0,0.0,-0.7894,-0.8112,-0.8804,-0.891,-0.9285,-0.9888,-1.0825,-1.1936,-1.3195,-1.3987,-1.4718,-1.5235,-1.342,-1.2233,-1.1376,-0.9995,-0.9315,-0.9255,-0.8958,0.0,0.0,0.0,0.0,0.0,0.0,0.0,0.0,-0.9614,-0.9413,-0.9061,-0.9614,0.0,0.0,0.0,0.0,0.0,-0.8804,-0.8938,-0.9031,-0.8851,-0.9025,-0.9117,-0.8931,-0.9098,-0.9225,-0.8931,-0.9138,-0.9426,-0.9586,-0.9927,-1.0254,-1.0461,-1.0266,-1.0024,-0.968,-0.9647,-0.9499,-0.912,-0.9153,-0.9045,-0.8714,-0.8662,-0.8611,-0.8462,-0.834,-0.8258,-0.8238,-0.8109,-0.8038,-0.8038,-0.8038,-0.8038,-0.8038,-0.8038,-0.8038,-0.8038,-0.8038,-0.8038,-0.8038,-0.8038,-0.8038,-0.8038,-0.8038,-0.8038,-0.8038,-0.8038,-0.8038,-0.8038,-0.8038,-0.8038,-0.8038,-0.8038,-0.8038,-0.8038,0.0,0.0,0.0,0.0,0.0,0.0,0.0,0.0,0.0,0.0,0.0,0.0,0.0,0.0,0.0,0.0,0.0,0.0,0.0,0.0,0.0,-0.9444,-0.8704,-0.8448,-0.8804,-0.9361,-0.9903,-1.0394,-1.1978,-1.3092,-1.3716,-1.4763,-1.51,-1.4807,-1.3469,-1.267,-1.2245,-1.0725,-0.9989,-0.968,-0.9029,0.0,0.0,0.0,0.0,0.0,0.0,0.0,0.0,-0.9762,-0.971,-0.9666,-0.9762,0.0,0.0,0.0,0.0,0.0,-0.8804,-0.9532,-1.0053,-0.9058,-0.9025,-0.9176,-0.913,-0.9406,-0.9532,-0.9176,-0.9606,-0.984,-0.9336,-0.9953,-1.0421,-1.0214,-1.0604,-1.086,-1.0474,-1.0269,-0.9612,-0.8333,-0.8459,-0.8598,-0.8343,-0.8445,-0.8459,-0.8316,-0.8282,-0.8214,-0.8082,-0.8052,-0.8038,-0.8038,-0.8038,-0.8038,-0.8038,-0.8038,-0.8038,-0.8038,-0.8038,-0.8038,-0.8038,-0.8038,-0.8038,-0.8038,-0.8038,-0.8038,-0.8038,-0.8038,-0.8038,-0.8038,-0.8038,-0.8038,-0.8038,-0.8038,-0.8038,-0.8038,0.0,0.0,0.0,0.0,0.0,0.0,0.0,0.0,0.0,0.0,0.0,0.0,0.0,0.0,0.0,0.0,0.0,0.0,0.0,0.0,-0.8548,-0.901,-0.914,-0.9365,-0.9865,-1.0449,-1.0991,-1.1595,-1.2885,-1.3617,-1.3995,-1.4751,-1.4971,-1.4766,-1.3543,-1.2815,-1.2437,-1.1107,-1.0254,-0.9762,0.0,0.0,0.0,0.0,0.0,0.0,0.0,0.0,0.0,0.0,-1.0415,-0.9865,-1.0218,0.0,0.0,0.0,0.0,0.0,-0.8804,-0.9198,-0.9593,-0.9532,-0.9967,-1.0381,-1.0221,-1.0174,-1.012,-0.998,-1.004,-1.0033,-0.976,-1.0307,-1.0909,-1.1126,-1.1766,-1.218,-1.1729,-1.1787,-1.1293,-0.9895,-0.9714,-0.9383,-0.8464,-0.8374,-0.8306,-0.8157,-0.8147,-0.8113,-0.8041,-0.8038,-0.8038,-0.8038,-0.8038,-0.8038,-0.8038,-0.8038,-0.8038,-0.8038,-0.8038,-0.8038,-0.8038,-0.8038,-0.8038,-0.8038,-0.8038,-0.8038,-0.8038,-0.8038,-0.8038,-0.8038,-0.8038,-0.8038,-0.8038,-0.8038,-0.8038,-0.8038,0.0,0.0,0.0,0.0,0.0,0.0,0.0,0.0,0.0,0.0,0.0,0.0,0.0,0.0,0.0,0.0,0.0,0.0,0.0,-0.8058,-0.8427,-0.9141,-0.973,-1.0249,-1.074,-1.1291,-1.2009,-1.2787,-1.3525,-1.4006,-1.4297,-1.4521,-1.458,-1.4473,-1.3584,-1.2954,-1.2507,-1.1505,-1.0762,-1.0261,0.0,0.0,0.0,0.0,0.0,0.0,0.0,0.0,0.0,0.0,0.0,0.0,0.0,0.0,0.0,-0.8804,-0.8804,-0.8804,-0.8804,-0.9005,-0.9359,-0.9967,-1.0521,-1.0962,-1.1156,-1.0915,-1.0722,-1.0994,-1.0842,-1.0668,-1.0461,-1.0848,-1.1488,-1.224,-1.2997,-1.3393,-1.2981,-1.3188,-1.2775,-1.1091,-1.0721,-1.0,-0.8588,-0.8303,-0.8167,-0.8048,-0.8038,-0.8038,-0.8038,-0.8038,-0.8038,-0.8038,-0.8038,-0.8038,-0.8038,-0.8038,-0.8038,-0.8038,-0.8038,-0.8038,-0.8038,-0.8038,-0.8038,-0.8038,-0.8038,-0.8038,-0.8038,-0.8038,-0.8038,-0.8038,-0.8038,-0.8038,-0.8038,-0.8038,-0.8038,-0.8038,0.0,0.0,0.0,0.0,0.0,0.0,0.0,0.0,0.0,0.0,0.0,0.0,0.0,0.0,0.0,0.0,0.0,0.0,0.0,-0.8929,-0.9555,-1.1472,-1.0998,-1.0669,-1.0532,-1.137,-1.2409,-1.3716,-1.3955,-1.4321,-1.4727,-1.4355,-1.3975,-1.3603,-1.3513,-1.327,-1.2822,-1.2039,-1.1715,-1.1616,-1.0965,0.0,0.0,0.0,0.0,0.0,0.0,0.0,0.0,0.0,0.0,0.0,0.0,0.0,-0.8804,-0.8804,-0.8804,-0.8804,-0.8804,-0.9606,-1.0381,-1.0167,-0.9753,-0.982,-1.1436,-1.1369,-1.1196,-1.2011,-1.2378,-1.2305,-1.1483,-1.1597,-1.2124,-1.2949,-1.3838,-1.4274,-1.3874,-1.3838,-1.2962,-1.0593,-1.0164,-0.9557,-0.847,-0.8147,-0.8052,-0.8038,-0.8038,-0.8038,-0.8038,-0.8038,-0.8038,-0.8038,-0.8038,-0.8038,-0.8038,-0.8038,-0.8038,-0.8038,-0.8038,-0.8038,-0.8038,-0.8038,-0.8038,-0.8038,-0.8038,-0.8038,-0.8038,-0.8038,-0.8038,-0.8038,-0.8038,-0.8038,-0.8038,-0.8038,-0.8038,-0.8038,0.0,0.0,0.0,0.0,0.0,0.0,0.0,0.0,0.0,0.0,0.0,0.0,0.0,0.0,0.0,0.0,0.0,0.0,0.0,-0.9255,-0.9748,-1.1099,-1.0965,-1.1197,-1.2078,-1.2865,-1.3632,-1.4439,-1.4508,-1.4756,-1.5156,-1.4463,-1.4,-1.3887,-1.3623,-1.3271,-1.2881,-1.2608,-1.2236,-1.1765,-1.1516,-1.0762,0.0,0.0,0.0,0.0,0.0,0.0,0.0,0.0,-1.1733,-1.0813,-1.0813,-0.9865,-0.8804,-0.8804,-0.8804,-0.8804,-0.8804,-0.9526,-1.0301,-1.0374,-1.0361,-1.0748,-1.2338,-1.2378,-1.2285,-1.2993,-1.3227,-1.3146,-1.2632,-1.3073,-1.3627,-1.3968,-1.4763,-1.5259,-1.5102,-1.4364,-1.3283,-1.1639,-1.06,-0.9581,-0.8459,-0.813,-0.8038,-0.8038,-0.8038,-0.8038,-0.8038,-0.8038,-0.8038,-0.8038,-0.8038,-0.8038,-0.8038,-0.8038,-0.8038,-0.8038,-0.8038,-0.8038,-0.8038,-0.8038,-0.8038,-0.8038,-0.8038,-0.8038,-0.8038,-0.8038,-0.8038,-0.8038,-0.8038,-0.8038,-0.8038,-0.8038,-0.8038,-0.8038,0.0,0.0,0.0,0.0,0.0,0.0,0.0,0.0,0.0,0.0,0.0,0.0,0.0,0.0,0.0,0.0,0.0,0.0,-1.014,-0.9966,-1.0326,-1.1425,-1.1225,-1.1781,-1.3218,-1.3796,-1.4414,-1.498,-1.4844,-1.4932,-1.5195,-1.4473,-1.4009,-1.3926,-1.3633,-1.3271,-1.2881,-1.2881,-1.2618,-1.2129,-1.2129,-1.1475,0.0,0.0,0.0,0.0,0.0,0.0,0.0,0.0,-1.1783,-1.0762,-1.0559,-0.9718,-0.8804,-0.8804,-0.8804,-0.8804,-0.8804,-0.9312,-0.9953,-1.0441,-1.0848,-1.1543,-1.3126,-1.318,-1.3166,-1.4135,-1.4115,-1.3861,-1.3661,-1.4115,-1.4522,-1.4522,-1.4878,-1.5337,-1.573,-1.437,-1.2969,-1.2246,-1.0861,-0.9561,-0.8289,-0.8102,-0.8038,-0.8038,-0.8038,-0.8038,-0.8038,-0.8038,-0.8038,-0.8038,-0.8038,-0.8038,-0.8038,-0.8038,-0.8038,-0.8038,-0.8038,-0.8038,-0.8038,-0.8038,-0.8038,-0.8038,-0.8038,-0.8038,-0.8038,-0.8038,-0.8038,-0.8038,-0.8038,-0.8038,-0.8038,-0.8038,-0.8038,-0.8038,0.0,0.0,0.0,0.0,0.0,0.0,0.0,0.0,0.0,0.0,0.0,0.0,0.0,0.0,0.0,0.0,0.0,0.0,-1.1738,-1.1166,-1.1434,-1.2832,-1.2187,-1.2323,-1.3506,-1.3873,-1.4561,-1.541,-1.5,-1.4785,-1.4775,-1.4336,-1.3916,-1.3506,-1.3506,-1.3271,-1.2881,-1.2881,-1.2881,-1.2881,-1.2881,-1.2452,-1.1864,0.0,0.0,0.0,0.0,0.0,0.0,0.0,-1.1366,-1.0661,-1.002,-0.9361,-0.8804,-0.8804,-0.8804,-0.8804,-0.8811,-0.9031,-0.9472,-1.0347,-1.1009,-1.1839,-1.3681,-1.3634,-1.3714,-1.5464,-1.5137,-1.4529,-1.4522,-1.4522,-1.4529,-1.4435,-1.4124,-1.4364,-1.5635,-1.3499,-1.1848,-1.1848,-1.0779,-0.941,-0.8137,-0.8038,-0.8038,-0.8038,-0.8038,-0.8038,-0.8038,-0.8038,-0.8038,-0.8038,-0.8038,-0.8038,-0.8038,-0.8038,-0.8038,-0.8038,-0.8038,-0.8038,-0.8038,-0.8038,-0.8038,-0.8038,-0.8038,-0.8038,-0.8038,-0.8038,-0.8038,-0.8038,-0.8038,-0.8038,-0.8038,-0.8038,-0.8038,-0.8038,0.0,0.0,0.0,0.0,0.0,0.0,0.0,0.0,0.0,0.0,0.0,0.0,0.0,0.0,0.0,0.0,0.0,0.0,-1.1756,-1.1616,-1.1931,-1.2881,-1.2187,-1.2452,-1.3873,-1.4658,-1.5156,-1.541,-1.5283,-1.5078,-1.4785,-1.4658,-1.4199,-1.3506,-1.3506,-1.3271,-1.2881,-1.2881,-1.2881,-1.2881,-1.2881,-1.2452,-1.1864,0.0,0.0,0.0,0.0,0.0,0.0,0.0,0.0,0.0,-0.9865,-0.9361,-0.8804,-0.8804,-0.8804,-0.8851,-0.9058,-0.9927,-1.0795,-1.0848,-1.1272,-1.1792,-1.2536,-1.3258,-1.4148,-1.5291,-1.5317,-1.4733,-1.3422,-1.3635,-1.3546,-1.2004,-1.216,-1.2624,-1.3011,-1.1653,-1.0583,-1.0583,-0.941,-0.8432,-0.8038,-0.8038,-0.8038,-0.8038,-0.8038,-0.8038,-0.8038,-0.8038,-0.8038,-0.8038,-0.8038,-0.8038,-0.8038,-0.8038,-0.8038,-0.8038,-0.8038,-0.8038,-0.8038,-0.8038,-0.8038,-0.8038,-0.8038,-0.8038,-0.8038,-0.8038,-0.8038,-0.8038,-0.8038,-0.8038,-0.8038,-0.8038,-0.8038,-0.8038,0.0,0.0,0.0,0.0,0.0,0.0,0.0,0.0,0.0,0.0,0.0,0.0,0.0,0.0,0.0,0.0,0.0,0.0,-1.2236,-1.2236,-1.2452,-1.2881,-1.2613,-1.3077,-1.4375,-1.4902,-1.5244,-1.541,-1.541,-1.5195,-1.4785,-1.4609,-1.4248,-1.375,-1.3584,-1.3369,-1.3135,-1.3135,-1.3135,-1.3135,-1.3135,-1.2857,-1.2529,0.0,0.0,0.0,0.0,0.0,0.0,0.0,0.0,0.0,-0.9465,-0.9113,-0.8857,-0.9106,-0.909,-0.901,-0.9225,-0.9881,-1.0517,-1.0456,-1.079,-1.1288,-1.18,-1.2612,-1.3375,-1.3936,-1.4039,-1.3655,-1.2503,-1.2714,-1.2672,-1.1306,-1.1111,-1.1361,-1.1848,-1.0386,-0.941,-0.9903,-0.8825,-0.8038,-0.8038,-0.8038,-0.8038,-0.8038,-0.8038,-0.8038,-0.8038,-0.8038,-0.8038,-0.8038,-0.798,-0.7977,-0.8038,-0.798,-0.798,-0.8038,-0.8038,-0.8038,-0.8038,-0.8038,-0.8038,-0.8038,-0.8038,-0.8038,-0.8038,-0.8038,-0.8038,-0.8038,-0.8038,-0.8038,-0.8038,-0.8038,-0.8038,-0.8038,0.0,0.0,0.0,0.0,0.0,0.0,0.0,0.0,0.0,0.0,0.0,0.0,0.0,0.0,0.0,0.0,0.0,0.0,0.0,-1.29,-1.291,-1.2988,-1.3398,-1.3975,-1.4707,-1.4805,-1.5047,-1.5351,-1.5371,-1.5176,-1.4717,-1.4394,-1.4136,-1.4009,-1.3721,-1.3545,-1.3506,-1.3467,-1.3477,-1.3506,-1.3506,-1.3506,-1.3506,-1.3506,0.0,0.0,0.0,0.0,0.0,0.0,0.0,0.0,-0.9008,-0.8804,-0.891,-0.9546,-0.943,-0.9149,-0.9313,-0.9344,-0.933,-0.9478,-0.9921,-1.043,-1.1022,-1.1409,-1.1648,-1.1823,-1.1833,-1.1848,-1.175,-1.1755,-1.1658,-1.1556,-1.0583,-1.0194,-1.1361,-0.9509,-0.8432,-0.9706,-0.8726,-0.8038,-0.8038,-0.8038,-0.8035,-0.8021,-0.8031,-0.8035,-0.8021,-0.8018,-0.8018,-0.8018,-0.7872,-0.7858,-0.7997,-0.7875,-0.7882,-0.8018,-0.8031,-0.8038,-0.8038,-0.8038,-0.8038,-0.8038,-0.8038,-0.8038,-0.8038,-0.8038,-0.8038,-0.8038,-0.8038,-0.8038,-0.8038,-0.8038,-0.8038,-0.8038,0.0,0.0,0.0,0.0,0.0,0.0,0.0,0.0,0.0,0.0,0.0,0.0,0.0,0.0,0.0,0.0,0.0,0.0,0.0,-1.3066,-1.3174,-1.3786,-1.4277,-1.4434,-1.4277,-1.4932,-1.5216,-1.5159,-1.5305,-1.5019,-1.4287,-1.4863,-1.46,-1.3652,-1.3896,-1.3818,-1.3486,-1.3154,-1.3203,-1.3506,-1.3506,-1.3506,-1.3506,-1.3506,-1.3242,0.0,0.0,0.0,0.0,0.0,0.0,0.0,-0.8857,-0.8804,-0.8851,-0.9234,-0.8985,-0.8699,-0.9203,-0.9355,-0.9528,-0.9785,-0.9757,-0.9514,-0.8909,-0.8795,-0.9367,-1.123,-1.1722,-1.1556,-1.0583,-1.0386,-1.0096,-0.9019,-0.8627,-0.8531,-0.8825,-0.8333,-0.8137,-0.8432,-0.8137,-0.8038,-0.8038,-0.8038,-0.7991,-0.7868,-0.797,-0.7987,-0.7868,-0.7862,-0.7862,-0.7862,-0.7723,-0.7662,-0.7695,-0.7773,-0.7828,-0.7862,-0.798,-0.8038,-0.8038,-0.8038,-0.8038,-0.8038,-0.8038,-0.8038,-0.8038,-0.8038,-0.8038,-0.8038,-0.8038,-0.8038,-0.8038,-0.8038,-0.8038,-0.8038,0.0,0.0,0.0,0.0,0.0,0.0,0.0,0.0,0.0,0.0,0.0,0.0,0.0,0.0,0.0,0.0,0.0,0.0,0.0,0.0,-1.3682,-1.4058,-1.4355,-1.4463,-1.4453,-1.4954,-1.5284,-1.5404,-1.5589,-1.519,-1.4275,-1.4918,-1.4606,-1.3535,-1.417,-1.4092,-1.3506,-1.3486,-1.3613,-1.3809,-1.3809,-1.3809,-1.3809,-1.3809,-1.3418,-1.2832,-1.251,0.0,0.0,0.0,0.0,0.0,0.0,0.0,-0.9099,-0.9569,-0.9466,-0.9226,-0.9304,-0.9247,-0.9176,-0.8939,-0.8788,-0.8623,-0.8117,-0.8038,-0.8287,-0.946,-0.9862,-0.9801,-0.9118,-0.9019,-0.8825,-0.8137,-0.8038,-0.8038,-0.8038,-0.8038,-0.8038,-0.8038,-0.8038,-0.8038,-0.8038,-0.7974,-0.7926,-0.7923,-0.7926,-0.7896,-0.7814,-0.7811,-0.778,-0.7712,-0.7567,-0.7526,-0.76,-0.7675,-0.7743,-0.7814,-0.7967,-0.8038,-0.8038,-0.8038,-0.8038,-0.8038,-0.8038,-0.8038,-0.8038,-0.8038,-0.8038,-0.8038,-0.8726,-0.892,-0.9019,-0.9604,-0.9899,-0.9801,0.0,0.0,0.0,0.0,0.0,0.0,0.0,0.0,0.0,0.0,0.0,0.0,0.0,0.0,0.0,0.0,0.0,0.0,0.0,0.0,0.0,-1.4087,-1.4077,-1.4268,-1.4561,-1.492,-1.5185,-1.5393,-1.569,-1.5421,-1.4609,-1.4987,-1.4685,-1.376,-1.4385,-1.4316,-1.374,-1.3945,-1.4058,-1.4184,-1.4107,-1.4077,-1.4077,-1.4077,-1.3613,-1.2832,-1.2271,-1.1528,-1.0712,0.0,0.0,0.0,0.0,0.0,-0.9356,-1.0005,-1.0103,-0.9895,-0.9522,-0.9025,-0.8604,-0.8015,-0.7894,-0.7994,-0.797,-0.7984,-0.7957,-0.7804,-0.7896,-0.8001,-0.8001,-0.798,-0.798,-0.8031,-0.8018,-0.8011,-0.8035,-0.8038,-0.8038,-0.8038,-0.8018,-0.8001,-0.8001,-0.7865,-0.7818,-0.7916,-0.7831,-0.7763,-0.7736,-0.7736,-0.7682,-0.7563,-0.7411,-0.739,-0.7519,-0.7546,-0.7617,-0.7736,-0.7916,-0.8014,-0.8038,-0.8038,-0.8038,-0.8038,-0.8038,-0.8038,-0.8038,-0.8038,-0.8038,-0.8137,-0.9509,-0.9903,-0.9801,-1.1361,-1.1755,-1.1463,0.0,0.0,0.0,0.0,0.0,0.0,0.0,0.0,0.0,0.0,0.0,0.0,0.0,0.0,0.0,0.0,0.0,0.0,0.0,0.0,0.0,-1.4097,-1.4077,-1.3994,-1.3691,-1.4603,-1.4767,-1.4052,-1.4952,-1.5385,-1.5352,-1.551,-1.5253,-1.46,-1.4336,-1.4365,-1.457,-1.3887,-1.4014,-1.4668,-1.4287,-1.4077,-1.4077,-1.4077,-1.3613,-1.293,-1.3181,-1.2231,-1.0762,-1.0712,-0.9814,0.0,0.0,0.0,-0.9292,-0.966,-0.9587,-0.9374,-0.9299,-0.8659,-0.8113,-0.8877,-0.8471,-0.7811,-0.7685,-0.7753,-0.7801,-0.7658,-0.7743,-0.7841,-0.7841,-0.774,-0.7743,-0.7997,-0.7929,-0.7889,-0.8021,-0.8038,-0.8038,-0.8038,-0.7923,-0.7841,-0.7841,-0.7712,-0.7584,-0.7468,-0.7563,-0.757,-0.7438,-0.7431,-0.7421,-0.7404,-0.7251,-0.718,-0.72,-0.7336,-0.7411,-0.7434,-0.7709,-0.7913,-0.8038,-0.8038,-0.8038,-0.8038,-0.8038,-0.8038,-0.8038,-0.8038,-0.8038,-0.8137,-0.9509,-0.9316,-0.8528,-1.097,-1.1165,-1.0194,0.0,0.0,0.0,0.0,0.0,0.0,0.0,0.0,0.0,0.0,0.0,0.0,0.0,0.0,0.0,0.0,0.0,0.0,0.0,0.0,0.0,-1.4107,-1.4077,-1.3936,-1.3516,-1.438,-1.4655,-1.4146,-1.536,-1.5729,-1.5275,-1.5685,-1.5564,-1.5052,-1.5314,-1.4934,-1.4062,-1.3916,-1.4072,-1.4385,-1.3955,-1.3876,-1.4025,-1.384,-1.338,-1.2727,-1.2402,-1.1653,-1.0694,-1.0121,-0.9404,-0.8804,-0.8804,0.0,0.0,0.0,-0.9466,-0.9385,-0.8821,-0.8223,-0.7879,-0.8023,-0.7884,-0.7675,-0.7614,-0.7648,-0.7651,-0.7502,-0.7519,-0.7614,-0.778,-0.7695,-0.7668,-0.7879,-0.7787,-0.7743,-0.7889,-0.7913,-0.7913,-0.7913,-0.7851,-0.778,-0.7699,-0.756,-0.7482,-0.7499,-0.7482,-0.7441,-0.7373,-0.737,-0.7333,-0.7244,-0.7177,-0.7139,-0.7139,-0.7292,-0.7455,-0.7617,-0.7668,-0.8197,-0.9114,-0.8241,-0.796,-0.8038,-0.8038,-0.8038,-0.8038,-0.8038,-0.8038,-0.8137,-0.9509,-0.9608,-0.9312,-1.1165,-1.1556,-1.0974,0.0,0.0,0.0,0.0,0.0,0.0,0.0,0.0,0.0,0.0,0.0,0.0,0.0,0.0,0.0,0.0,0.0,0.0,0.0,0.0,0.0,-1.4195,-1.392,-1.3662,-1.335,-1.41,-1.4316,-1.4047,-1.5234,-1.5672,-1.5444,-1.5873,-1.5994,-1.5817,-1.5998,-1.5275,-1.4004,-1.4209,-1.4297,-1.4223,-1.3796,-1.371,-1.3843,-1.3586,-1.3138,-1.2604,-1.193,-1.1372,-1.0797,-0.98,-0.92,-0.8905,-0.8831,-0.9005,0.0,0.0,0.0,-0.9446,-0.8964,-0.8394,-0.7882,-0.764,-0.7669,-0.765,-0.7421,-0.7485,-0.7499,-0.7343,-0.7312,-0.739,-0.7651,-0.758,-0.7543,-0.7729,-0.7638,-0.7594,-0.7736,-0.7756,-0.7756,-0.7756,-0.7723,-0.7658,-0.7553,-0.7404,-0.736,-0.7475,-0.7377,-0.7312,-0.7312,-0.7312,-0.7258,-0.7143,-0.7139,-0.7139,-0.7139,-0.7255,-0.7444,-0.7699,-0.7868,-0.8634,-0.9922,-0.9107,-0.8855,-0.892,-0.8333,-0.8038,-0.8038,-0.8333,-0.8528,-0.8627,-1.0386,-1.0578,-1.0194,-1.1848,-1.1945,-1.1263,0.0,0.0,0.0,0.0,0.0,0.0,0.0,0.0,0.0,0.0,0.0,0.0,-1.4268,-1.4497,-1.4795,-1.5237,0.0,0.0,0.0,0.0,0.0,-1.4403,-1.3481,0.0,-1.291,-1.3515,-1.3563,-1.2959,-1.361,-1.4784,-1.635,-1.635,-1.6785,-1.7423,-1.5679,-1.5057,-1.5293,-1.4912,-1.4746,-1.4729,-1.4212,-1.3758,-1.3425,-1.342,-1.3114,-1.2703,-1.2786,-1.2143,-1.1182,-1.0462,-0.9769,-0.911,-0.8891,-0.9005,-0.9183,0.0,0.0,0.0,-1.0236,-0.9421,-0.8473,-0.8862,-0.8427,-0.7609,-0.71,-0.7183,-0.7339,-0.7183,-0.7153,-0.7204,-0.7363,-0.7268,-0.7261,-0.7563,-0.7482,-0.7438,-0.759,-0.7611,-0.7611,-0.7611,-0.7482,-0.739,-0.7383,-0.7244,-0.7156,-0.7163,-0.7156,-0.7153,-0.7153,-0.7153,-0.7149,-0.7139,-0.7139,-0.7139,-0.7139,-0.7146,-0.7234,-0.7394,-0.8552,-0.9271,-0.9823,-1.0849,-1.1436,-1.1556,-0.9114,-0.8038,-0.8137,-0.941,-0.9903,-1.019,-1.2711,-1.2226,-1.0288,-1.2909,-1.2226,-1.0096,0.0,0.0,0.0,0.0,0.0,0.0,0.0,0.0,0.0,0.0,0.0,0.0,0.0,-1.3917,-1.4395,-1.4933,-1.5366,0.0,0.0,0.0,0.0,-1.3851,-1.346,-1.3154,-1.2891,-1.3505,-1.3505,-1.2881,-1.4283,-1.4799,-1.4592,-1.6119,-1.6729,-1.6515,-1.6545,-1.6001,-1.5,-1.4844,-1.4785,-1.4673,-1.3255,-1.2684,-1.2704,-1.2165,-1.1398,-1.0648,-1.1374,-1.1027,-1.0103,-0.9554,-0.9279,-0.9137,-0.8898,-0.8878,-0.8965,-0.8965,-0.8965,-0.8948,-0.902,-0.876,-0.837,-0.8201,-0.7829,-0.7474,-0.7404,-0.7204,-0.7095,-0.7132,-0.7139,-0.7156,-0.7214,-0.7177,-0.721,-0.7417,-0.7322,-0.7278,-0.7431,-0.7455,-0.7455,-0.7455,-0.7404,-0.7333,-0.7234,-0.7092,-0.7004,-0.7004,-0.6912,-0.6858,-0.6858,-0.6858,-0.6902,-0.7,-0.7004,-0.7048,-0.7139,-0.7139,-0.7567,-0.8529,-0.8775,-0.9979,-1.1852,-1.1487,-1.189,-1.278,-1.1201,-1.0485,-1.0583,-1.0974,-1.0779,-1.0096,-1.1068,-1.0288,-0.8825,-0.9797,-0.9505,-0.8726,0.0,0.0,0.0,0.0,0.0,0.0,0.0,0.0,0.0,-1.437,0.0,0.0,0.0,0.0,-1.5042,-1.5635,-1.566,-1.5646,-1.5626,-1.4759,-1.4072,-1.3641,-1.3391,-1.3164,-1.2891,-1.3286,-1.3286,-1.2881,-1.4107,-1.4428,-1.3892,-1.5713,-1.6378,-1.6041,-1.6782,-1.645,-1.5319,-1.5103,-1.4912,-1.4646,-1.2841,-1.2243,-1.2251,-1.1658,-1.0816,-1.0031,-1.1268,-1.1114,-1.0325,-0.9811,-0.9813,-0.9814,-0.9285,-0.8965,-0.8804,-0.8804,-0.8804,-0.8725,-0.8477,-0.8473,-0.8431,-0.7973,-0.7858,-0.7703,-0.7484,-0.7315,-0.7225,-0.7037,-0.7105,-0.7139,-0.7139,-0.7139,-0.7173,-0.7278,-0.7207,-0.7177,-0.7278,-0.7292,-0.7292,-0.7292,-0.7292,-0.7255,-0.7149,-0.701,-0.6929,-0.6929,-0.6787,-0.6702,-0.6702,-0.6702,-0.677,-0.6922,-0.6878,-0.7114,-0.7665,-0.7698,-0.8273,-0.9589,-0.9897,-1.1113,-1.3018,-1.2655,-1.3118,-1.4202,-1.3521,-1.2721,-1.1945,-1.2431,-1.1848,-1.0681,-1.1161,-1.019,-0.8627,-0.8627,-0.8432,-0.8038,0.0,0.0,0.0,0.0,0.0,0.0,0.0,0.0,-1.4292,-1.5295,0.0,0.0,0.0,0.0,0.0,-1.73,-1.673,-1.6325,-1.6337,-1.52,-1.4338,-1.38,0.0,0.0,-1.2881,-1.2881,-1.2881,-1.2881,-1.2929,-1.3469,-1.4599,-1.5207,-1.5777,-1.6199,-1.6199,-1.6328,-1.6436,-1.568,-1.5166,-1.4705,-1.3185,-1.2389,-1.213,-1.1915,-1.1398,-1.1043,-1.2593,-1.2569,-1.184,-1.1492,-1.1368,-1.1189,-1.008,-0.9321,-0.8857,-0.8857,-0.8804,-0.8804,0.0,0.0,0.0,-0.8363,-0.8505,-0.853,-0.7424,-0.759,-0.7781,-0.7048,-0.7027,-0.7126,-0.7132,-0.7136,-0.7139,-0.7139,-0.7139,-0.7139,-0.7139,-0.7139,-0.7139,-0.7139,-0.7136,-0.7132,-0.7132,-0.7,-0.6915,-0.6922,-0.6776,-0.6688,-0.6695,-0.6695,-0.6763,-0.6909,-0.6776,-0.7425,-0.8869,-0.8781,-0.9374,-1.0687,-1.1809,-1.2604,-1.3296,-1.4501,-1.5277,-1.5818,-1.573,-1.437,-1.2139,-1.3397,-1.3199,-1.2042,-1.3397,-1.2226,-0.9998,-0.9998,-0.9118,-0.8038,0.0,0.0,0.0,0.0,0.0,-1.4322,-1.522,-1.5126,-1.5139,0.0,0.0,0.0,-1.5011,-1.5237,-1.5542,-1.6054,-1.5159,-1.4564,-1.454,-1.3786,-1.3272,-1.3152,-1.2968,-1.2881,-1.2881,-1.2881,-1.2881,-1.2881,-1.3334,-1.3644,-1.3851,-1.5322,-1.5979,-1.5956,-1.5956,-1.6201,-1.6415,-1.5419,-1.5068,-1.5012,-1.265,-1.1546,-1.1262,-0.9988,-0.9356,-0.9296,-1.0582,-1.0701,-1.0295,-1.0905,-1.0719,-1.0275,-1.0424,-1.0366,-1.0167,-0.9666,-0.951,0.0,-0.9167,0.0,0.0,0.0,0.0,0.0,-0.8743,-0.8577,-0.8268,-0.7664,-0.7698,-0.7601,-0.7049,-0.7071,-0.7139,-0.7139,-0.7139,-0.7139,-0.7139,-0.7139,-0.7139,-0.7139,-0.7051,-0.6987,-0.6987,-0.6753,-0.6644,-0.6756,-0.6525,-0.6427,-0.6529,-0.6536,-0.6873,-0.7639,-0.7718,-0.8296,-0.9474,-0.9652,-1.0396,-1.155,-1.207,-1.2948,-1.4197,-1.4774,-1.5164,-1.5431,-1.4766,-1.4561,-1.4758,-1.5146,-1.4465,-1.3295,-1.2716,-1.1458,-0.9899,-0.892,-0.8333,-0.8038,0.0,0.0,0.0,0.0,0.0,-1.449,-1.5151,-1.5408,-1.5496,0.0,0.0,0.0,-1.553,-1.5555,-1.5682,-1.5947,-1.5139,-1.4474,-1.4168,-1.36,-1.3152,-1.2929,-1.2881,-1.2881,-1.2881,-1.2881,-1.2881,-1.2881,-1.3238,-1.3459,-1.3506,-1.4845,-1.5405,-1.5258,-1.5468,-1.572,-1.5862,-1.5139,-1.5029,-1.5174,-1.2935,-1.1979,-1.1859,-1.084,-1.0248,-1.0103,-1.1632,-1.1464,-1.069,-1.1744,-1.1512,-1.0821,-1.1403,-1.1231,-1.0769,-1.0772,-1.0651,0.0,0.0,0.0,0.0,-1.0136,0.0,0.0,-0.8766,-0.8638,-0.8314,-0.734,-0.735,-0.7296,-0.6901,-0.6953,-0.7051,-0.7051,-0.7102,-0.7139,-0.7139,-0.7139,-0.7139,-0.7139,-0.7068,-0.7017,-0.7017,-0.6803,-0.6702,-0.679,-0.6576,-0.6454,-0.6471,-0.6417,-0.6878,-0.7965,-0.8003,-0.8809,-1.0433,-1.074,-1.1436,-1.2624,-1.2897,-1.3525,-1.4529,-1.4703,-1.4937,-1.5139,-1.4178,-1.4327,-1.5385,-1.4446,-1.3689,-1.2909,-1.1653,-1.0288,-0.9118,-0.8333,-0.8038,-0.8038,0.0,0.0,-1.2023,-1.3076,-1.3784,-1.4332,-1.4891,-1.545,-1.5618,0.0,-1.548,-1.5969,-1.6459,-1.6522,-1.6522,-1.6522,-1.5876,-1.5276,-1.4744,-1.4061,-1.3457,-1.2929,-1.2881,-1.29,-1.2949,-1.29,-1.29,-1.2949,-1.29,-1.3125,-1.3574,-1.4094,-1.4426,-1.4541,-1.4883,-1.508,-1.5099,-1.4914,-1.5021,-1.5257,-1.3669,-1.3124,-1.3216,-1.3017,-1.2602,-1.2431,-1.4035,-1.3415,-1.1892,-1.2732,-1.2533,-1.1888,-1.2373,-1.1811,-1.104,-1.1894,-1.1932,0.0,0.0,0.0,0.0,-1.1119,-1.0725,0.0,-0.8489,-0.8485,-0.8398,-0.6976,-0.6874,-0.7008,-0.7022,-0.7156,-0.7264,-0.7344,-0.7321,-0.7271,-0.7132,-0.7139,-0.7139,-0.7139,-0.7126,-0.7115,-0.7115,-0.6987,-0.6912,-0.6926,-0.6803,-0.6658,-0.6505,-0.652,-0.7036,-0.8119,-0.8181,-0.9246,-1.1556,-1.1762,-1.2388,-1.3547,-1.3881,-1.4188,-1.4476,-1.4502,-1.4683,-1.4977,-1.3817,-1.3976,-1.4797,-1.2521,-1.1798,-1.191,-1.0551,-0.9296,-0.8237,-0.8038,-0.8038,-0.8038,0.0,-1.2041,-1.2584,-1.4111,-1.4518,-1.4924,-1.6003,-1.6273,-1.6321,-1.6208,-1.6283,-1.6396,-1.6509,-1.6522,-1.6522,-1.6522,-1.5511,-1.4835,-1.4698,-1.3705,-1.3017,-1.2929,-1.2881,-1.3037,-1.3379,-1.3057,-1.3047,-1.3389,-1.3047,-1.3271,-1.4014,-1.411,-1.4528,-1.518,-1.4988,-1.5012,-1.5318,-1.4949,-1.4942,-1.5058,-1.3675,-1.3241,-1.3307,-1.2152,-1.2065,-1.2721,-1.3101,-1.2169,-1.0714,-0.9903,-1.0076,-1.0748,-1.1439,-1.1564,-1.1667,-1.224,-1.2453,-1.2527,-1.2481,-1.2365,-1.2314,-1.2541,-1.1996,0.0,-1.1058,-1.0591,-0.9958,-0.9053,-0.8978,-0.9145,-0.9211,-0.9357,-0.9653,-1.0377,-0.9508,-0.8426,-0.7278,-0.7139,-0.7139,-0.7139,-0.7041,-0.697,-0.697,-0.6834,-0.6797,-0.6919,-0.6902,-0.6817,-0.6664,-0.7304,-0.8164,-0.9139,-0.9856,-1.0836,-1.2166,-1.24,-1.2705,-1.2926,-1.3467,-1.3888,-1.4182,-1.4409,-1.4683,-1.4963,-1.3622,-1.3804,-1.4777,-1.2242,-1.1931,-1.2903,-1.0719,-0.9765,-0.9509,-0.8432,-0.8038,-0.8038,-1.2093,-1.2412,-1.2977,-1.4435,-1.4698,-1.5119,-1.6337,-1.6522,-1.6622,-1.6911,-1.6948,-1.6835,-1.6547,-1.6522,-1.6522,-1.6522,-1.5906,-1.5359,-1.5009,-1.4173,-1.3511,-1.3193,-1.2998,-1.2978,-1.3193,-1.2988,-1.3086,-1.3506,-1.3301,-1.3623,-1.4463,-1.4463,-1.457,-1.4785,-1.5,-1.498,-1.4795,-1.5,-1.5149,-1.5216,-1.448,-1.4214,-1.4137,-1.356,-1.3604,-1.3913,-1.3913,-1.2844,-1.1155,-0.9382,-0.9781,-1.1122,-1.1832,-1.2197,-1.2647,-1.3543,-1.3717,-1.3691,-1.3906,-1.3682,-1.344,-1.3562,-1.3,0.0,0.0,-1.1193,-1.0724,-0.9943,-0.9694,-0.9764,-1.0251,-1.0296,-1.0539,-1.1357,-1.0171,-0.9157,-0.9437,-0.8084,-0.7139,-0.7139,-0.7078,-0.7034,-0.7034,-0.6963,-0.6953,-0.7031,-0.697,-0.6895,-0.6817,-0.7155,-0.7745,-0.8751,-0.9658,-1.061,-1.1545,-1.2359,-1.251,-1.1972,-1.2969,-1.333,-1.3098,-1.3756,-1.4242,-1.4529,-1.3312,-1.3477,-1.4355,-1.133,-1.0899,-1.1941,-1.0301,-0.9296,-0.8803,-0.8206,-0.8038,-0.8038,-1.2353,-1.2637,-1.3296,-1.4479,-1.4698,-1.5119,-1.6337,-1.6609,-1.6886,-1.7463,-1.7451,-1.72,-1.6735,-1.6429,-1.6288,-1.6288,-1.5961,-1.5587,-1.5142,-1.4457,-1.3902,-1.3506,-1.3105,-1.292,-1.2998,-1.2998,-1.3203,-1.3633,-1.3633,-1.4023,-1.4785,-1.4785,-1.4639,-1.436,-1.5032,-1.4946,-1.4379,-1.5052,-1.5368,-1.5429,-1.5316,-1.5219,-1.5054,-1.5342,-1.5217,-1.4943,-1.4371,-1.323,-1.1621,-0.9651,-0.9932,-1.1249,-1.2304,-1.2767,-1.3202,-1.4551,-1.4718,-1.4691,-1.5231,-1.4932,-1.4451,-1.4451,-1.3855,-1.297,0.0,0.0,0.0,-1.0719,-1.0312,-1.0438,-1.1272,-1.1308,-1.1418,-1.2361,-1.1077,-1.0551,-1.2159,-1.0039,-0.8273,-0.8155,-0.7476,-0.7246,-0.7731,-0.7738,-0.7566,-0.7139,-0.7368,-0.7386,-0.697,-0.6993,-0.7338,-0.8078,-0.9025,-0.9834,-1.0558,-1.1563,-1.1808,-1.1118,-1.2101,-1.2431,-1.2231,-1.3003,-1.352,-1.3931,-1.325,-1.333,-1.3932,-1.1154,-1.0346,-1.0662,-0.952,-0.8549,-0.7831,-0.7984,-0.8038,-0.8038,-1.2812,-1.2842,-1.3296,-1.4479,-1.4698,-1.5119,-1.6337,-1.6948,-1.7488,-1.8041,-1.7689,-1.735,-1.7287,-1.6289,-1.5604,-1.5604,-1.4486,-1.3983,-1.4376,-1.3451,-1.3074,-1.3464,-1.3105,-1.3057,-1.3428,-1.3437,-1.3643,-1.4009,-1.4009,-1.4316,-1.4785,-1.4785,-1.4951,-1.5245,-1.5157,-1.5189,-1.5264,-1.5166,-1.5188,-1.5243,-1.5487,-1.5545,-1.5569,-1.5493,-1.5217,-1.4615,-1.2063,-1.0997,-1.0631,-0.9542,-0.911,-0.9367,-1.148,-1.2161,-1.2442,-1.3826,-1.4506,-1.483,-1.5279,-1.5352,-1.5235,-1.5235,-1.4688,-1.4016,-1.3903,0.0,-1.2376,-1.2615,0.0,-1.2451,-1.3631,0.0,0.0,-1.5405,-1.4388,-1.3661,-1.4245,-1.3235,-1.2345,-1.2037,-0.8919,-0.7674,-0.9904,-1.011,-0.9265,-0.7224,-0.8992,-0.9234,-0.72,-0.783,-0.8235,-0.8383,-0.91,-0.9521,-0.9652,-0.9642,-1.0084,-1.0836,-1.033,-1.1008,-1.2705,-1.2407,-1.282,-1.3707,-1.3833,-1.403,-1.4088,-1.3685,-1.2386,-1.0435,-0.8509,-0.7794,-0.7831,-0.7984,-0.8038,-0.8038,-1.2881,-1.2881,-1.3296,-1.4479,-1.4698,-1.5119,-1.6337,-1.7011,-1.7225,-1.6798,-1.74,-1.7601,-1.6948,-1.6987,-1.6622,-1.5607,-1.518,-1.4849,-1.4659,-1.3896,-1.3716,-1.4214,-1.3838,-1.3691,-1.3867,-1.3877,-1.4082,-1.4512,-1.4512,-1.4736,-1.5146,-1.5146,-1.5117,-1.505,-1.5233,-1.5219,-1.5113,-1.529,-1.5365,-1.5419,-1.5562,-1.5622,-1.567,-1.552,-1.511,-1.4467,-1.2377,-1.1213,-1.0685,-1.0398,-0.9983,-0.9889,-1.1853,-1.2776,-1.3247,-1.4238,-1.4741,-1.5045,-1.5314,-1.4805,-1.44,-1.5214,-1.4572,-1.3905,-1.4434,-1.4155,-1.3853,-1.4017,0.0,0.0,0.0,0.0,0.0,0.0,-1.5354,-1.4697,-1.6017,-1.4111,-1.2665,-1.2896,-1.1717,-1.0767,-1.0412,-1.0417,-0.9427,-0.7184,-0.9207,-0.952,-0.7224,-0.7428,-0.7609,-0.7521,-0.8349,-0.8711,-0.8593,-0.9096,-0.9221,-0.9064,-0.9311,-1.0044,-1.1039,-1.157,-1.2488,-1.3661,-1.3955,-1.4088,-1.4082,-1.3379,-1.2504,-1.1413,-0.9259,-0.8106,-0.7706,-0.7851,-0.7963,-0.8038,-1.2725,-1.2803,-1.3296,-1.4479,-1.4698,-1.5119,-1.6337,-1.7137,-1.7262,-1.6283,-1.735,-1.784,-1.6861,-1.7075,-1.6762,-1.5435,-1.5281,-1.506,-1.4787,-1.4206,-1.4177,-1.4677,-1.4328,-1.4077,-1.4023,-1.4202,-1.4463,-1.4785,-1.4902,-1.5117,-1.541,-1.541,-1.5244,-1.4963,-1.5269,-1.5248,-1.505,-1.5326,-1.5519,-1.5582,-1.5242,-1.5049,-1.5012,-1.4929,-1.4799,-1.4327,-1.218,-1.1287,-1.1108,-1.0767,-1.0518,-1.0507,-1.1834,-1.2756,-1.3399,-1.3622,-1.4034,-1.4504,-1.4763,-1.4165,-1.3736,-1.5053,-1.4653,-1.4132,-1.4792,-1.4873,-1.4814,-1.4932,-1.4375,0.0,0.0,0.0,0.0,0.0,0.0,-1.5744,-1.7321,-1.547,-1.405,-1.4617,-1.4735,-1.383,-1.143,-1.1793,-1.1078,-0.8421,-1.0244,-1.0253,-0.7599,-0.7204,-0.7092,-0.699,-0.7506,-0.7745,-0.7648,-0.8256,-0.8286,-0.7783,-0.8237,-0.8995,-1.0004,-1.0545,-1.1762,-1.3459,-1.3574,-1.3822,-1.4004,-1.3118,-1.2589,-1.2089,-1.0255,-0.8927,-0.8016,-0.7835,-0.7882,-0.7984,-1.2287,-1.2588,-1.3296,-1.4479,-1.4698,-1.5119,-1.6337,-1.7463,-1.7978,-1.74,-1.784,-1.799,-1.7413,-1.5964,-1.4948,-1.4948,-1.3935,-1.3561,-1.4292,-1.3913,-1.3957,-1.448,-1.4232,-1.4015,-1.3793,-1.4449,-1.4775,-1.4785,-1.5195,-1.54,-1.541,-1.541,-1.54,-1.5371,-1.5169,-1.5274,-1.5451,-1.5289,-1.5412,-1.5626,-1.4382,-1.3696,-1.3404,-1.3453,-1.408,-1.4449,-1.0561,-1.0524,-1.1952,-1.0065,-0.9906,-1.0513,-1.0895,-1.16,-1.2157,-1.1033,-1.1683,-1.2876,-1.3309,-1.3418,-1.3736,-1.5053,-1.5371,-1.5323,-1.5342,-1.5078,-1.4902,-1.5312,-1.5049,-1.4883,-1.5352,0.0,0.0,0.0,0.0,0.0,0.0,-1.8201,-1.8402,-1.844,-1.7611,-1.6147,-1.3769,-1.5572,-1.5486,-1.1946,-1.2978,-1.2194,-0.8539,-0.7581,-0.7139,-0.7132,-0.6993,-0.6848,-0.6774,-0.662,-0.7021,-0.7783,-0.6872,-0.7931,-1.0738,-0.9185,-1.0191,-1.3174,-1.2624,-1.3027,-1.4088,-1.4088,-1.3379,-1.2157,-1.1047,-0.9967,-0.8939,-0.8076,-0.7814,-0.7838,-1.1875,-1.2148,-1.2812,-1.3914,-1.4158,-1.4454,-1.5318,-1.6371,-1.6785,-1.5958,-1.7013,-1.7324,-1.614,-1.6177,-1.5818,-1.4638,-1.4455,-1.4398,-1.4332,-1.4171,-1.3988,-1.3769,-1.4515,-1.4505,-1.3556,-1.4621,-1.5205,-1.5205,-1.5342,-1.541,-1.541,-1.541,-1.541,-1.54,-1.5369,-1.4997,-1.4364,-1.5174,-1.4568,-1.3144,-1.3583,-1.3725,-1.3582,-1.343,-1.3484,-1.3313,-1.1194,-1.0475,-1.0523,-1.0702,-1.025,-0.98,-1.0947,-1.1314,-1.1474,-1.1976,-1.1935,-1.2155,-1.3885,-1.3129,-1.2364,-1.4625,-1.4482,-1.4107,-1.5169,-1.5303,-1.5244,-1.5381,-1.5078,-1.5,-1.5713,0.0,0.0,0.0,0.0,0.0,0.0,-1.8369,-1.8562,-1.8562,-1.7463,-1.619,-1.513,-1.5419,-1.4465,-1.1455,-1.2559,-1.195,-0.8607,-0.8162,-0.7729,-0.7136,-0.7004,-0.6905,-0.6851,-0.6702,-0.6708,-0.695,-0.6662,-0.7391,-0.878,-0.8688,-0.9509,-1.1025,-1.109,-1.1386,-1.174,-1.174,-1.1992,-1.2072,-1.0178,-0.9703,-0.9897,-0.8296,-0.7729,-0.7831,-1.1855,-1.2158,-1.2669,-1.3413,-1.3913,-1.4378,-1.5032,-1.5911,-1.6044,-1.4935,-1.6219,-1.6639,-1.4852,-1.5563,-1.5726,-1.4552,-1.4668,-1.4637,-1.4455,-1.4466,-1.414,-1.3385,-1.4671,-1.4781,-1.3228,-1.4677,-1.5388,-1.5308,-1.538,-1.541,-1.541,-1.541,-1.541,-1.5391,-1.5445,-1.4792,-1.3747,-1.4565,-1.3768,-1.1908,-1.3209,-1.3467,-1.3052,-1.2787,-1.2852,-1.2667,-1.0571,-0.9935,-0.9997,-1.0059,-0.9776,-0.9401,-0.9965,-1.0262,-1.0444,-1.0916,-1.0792,-1.0948,-1.2954,-1.2324,-1.1672,-1.4303,-1.429,-1.3956,-1.5032,-1.5308,-1.5403,-1.5692,-1.5367,-1.529,-1.6078,-1.6266,0.0,0.0,0.0,0.0,0.0,-1.8242,-1.8418,-1.8418,-1.7842,-1.7217,-1.6521,-1.6478,-1.5388,-1.2804,-1.3222,-1.2527,-1.0135,-0.8985,-0.8185,-0.7749,-0.7225,-0.698,-0.6929,-0.6831,-0.6705,-0.6552,-0.7001,-0.766,-0.853,-0.8509,-0.9299,-1.0571,-1.0198,-1.0269,-1.0611,-1.0611,-1.1037,-1.1466,-0.9666,-0.9323,-0.98,-0.8217,-0.7726,-0.7906,-1.2151,-1.2549,-1.2907,-1.3055,-1.3933,-1.4835,-1.5454,-1.5982,-1.5819,-1.4419,-1.5614,-1.5869,-1.3827,-1.423,-1.4672,-1.4672,-1.4356,-1.4303,-1.4744,-1.4826,-1.4331,-1.3188,-1.4699,-1.4729,-1.2958,-1.4584,-1.5384,-1.5089,-1.5279,-1.541,-1.541,-1.541,-1.541,-1.541,-1.541,-1.4763,-1.3677,-1.3754,-1.3068,-1.2104,-1.3156,-1.287,-1.1684,-1.1641,-1.216,-1.2444,-0.8897,-0.8898,-1.031,-0.8311,-0.8467,-0.9256,-0.8108,-0.8583,-0.9212,-0.8023,-0.8313,-0.9335,-1.081,-1.1083,-1.1485,-1.4064,-1.4721,-1.4741,-1.5028,-1.5124,-1.5351,-1.6204,-1.5878,-1.5576,-1.6269,-1.6547,0.0,0.0,0.0,0.0,0.0,-1.8008,-1.8008,-1.8008,-1.873,-1.8927,-1.8018,-1.8718,-1.8246,-1.5911,-1.5031,-1.4065,-1.2877,-1.014,-0.8777,-0.8969,-0.7841,-0.7162,-0.7025,-0.6939,-0.6861,-0.6709,-0.76,-0.8631,-0.9761,-0.8737,-0.9499,-1.1609,-0.9656,-0.9405,-1.0438,-1.0438,-1.0438,-1.0438,-0.9244,-0.8828,-0.8709,-0.7862,-0.7787,-0.8038,-1.1797,-1.209,-1.2508,-1.2895,-1.349,-1.4071,-1.4687,-1.5242,-1.5382,-1.4863,-1.5295,-1.5138,-1.413,-1.4121,-1.4288,-1.4288,-1.4192,-1.4248,-1.4453,-1.4484,-1.4059,-1.2921,-1.4403,-1.459,-1.3046,-1.4664,-1.5449,-1.5411,-1.5421,-1.541,-1.541,-1.541,-1.541,-1.541,-1.541,-1.4773,-1.3696,-1.4676,-1.4321,-1.32,-1.2498,-1.1994,-1.1585,-1.0673,-1.0469,-1.0326,-0.8558,-0.8286,-0.8639,-0.8105,-0.8146,-0.8371,-0.8079,-0.8094,-0.8375,-0.8905,-0.8497,-0.8246,-1.0357,-1.0173,-1.0065,-1.2635,-1.3201,-1.3499,-1.4616,-1.4891,-1.4972,-1.518,-1.5078,-1.5042,-1.5369,-1.5991,-1.6559,0.0,0.0,0.0,0.0,-1.8008,-1.8008,-1.8008,-1.8203,-1.8261,-1.7983,-1.7825,-1.709,-1.5471,-1.5389,-1.4403,-1.2019,-1.2095,-1.1611,-1.0173,-0.9061,-0.8432,-0.8392,-0.7519,-0.7014,-0.6868,-0.7827,-0.8345,-0.852,-0.8408,-0.8651,-0.9073,-0.8056,-0.7749,-0.8009,-0.8009,-0.8536,-0.9248,-0.8158,-0.7901,-0.8008,-0.7701,-0.7787,-0.8038,-1.2148,-1.2344,-1.2646,-1.3076,-1.3532,-1.3897,-1.3923,-1.432,-1.437,-1.3635,-1.4189,-1.4271,-1.33,-1.3639,-1.3948,-1.4075,-1.4088,-1.4159,-1.4387,-1.4422,-1.394,-1.2833,-1.4867,-1.5032,-1.2946,-1.5042,-1.5855,-1.5196,-1.5214,-1.5283,-1.541,-1.541,-1.541,-1.541,-1.541,-1.4728,-1.3569,-1.3205,-1.2926,-1.2746,-1.1413,-1.0883,0.0,-1.0124,-0.9474,-0.8846,-0.8203,-0.7997,-0.794,-0.794,-0.7984,-0.8038,-0.8038,-0.798,-0.8007,-0.8687,-0.8171,-0.7834,-0.9648,-0.9535,-0.9352,-1.1283,-1.1792,-1.2234,-1.3726,-1.4066,-1.4463,-1.543,-1.5389,-1.5235,-1.5541,-1.6007,-1.6437,0.0,0.0,0.0,-1.8008,-1.8008,-1.8008,-1.8008,-1.8008,-1.8008,-1.8008,-1.7729,-1.7049,-1.5903,-1.6151,-1.5692,-1.399,-1.3625,-1.2959,-1.1792,-1.0872,-1.0159,-0.9666,-0.8948,-0.8253,-0.7684,-0.8527,-0.8991,-0.9099,-0.9572,-0.9542,-0.9123,-0.8241,-0.7541,-0.7051,-0.7112,-0.7489,-0.8032,-0.758,-0.755,-0.7801,-0.7723,-0.7838,-0.8038,-1.2959,-1.2998,-1.3076,-1.3447,-1.388,-1.3898,-1.3105,-1.3533,-1.3442,-1.2218,-1.313,-1.3458,-1.2407,-1.3113,-1.3808,-1.4062,-1.4088,-1.4193,-1.4352,-1.4441,-1.4117,-1.3294,-1.5719,-1.5906,-1.3336,-1.5921,-1.6571,-1.5031,-1.5201,-1.5364,-1.541,-1.541,-1.541,-1.541,-1.541,-1.4772,-1.3638,-1.1381,-1.0961,-1.1781,-1.0418,-0.9915,-0.9924,-0.9737,-0.8989,-0.8038,-0.8038,-0.7953,-0.7841,-0.7841,-0.7929,-0.8038,-0.8038,-0.8038,-0.8038,-0.8038,-0.7845,-0.7809,-0.8828,-0.8935,-0.9016,-1.0168,-1.047,-1.0931,-1.2493,-1.3071,-1.3838,-1.5826,-1.5848,-1.5668,-1.6062,-1.6102,-1.6396,0.0,-1.7552,-1.7764,-1.7732,-1.7741,-1.7801,-1.789,-1.788,0.0,-1.8018,-1.8008,-1.7588,-1.6673,-1.7106,-1.7207,-1.6744,-1.49,-1.3723,-1.3451,-1.2649,-1.1838,-1.1031,-1.0732,-1.0037,-0.9137,-0.9683,-1.0172,-1.0601,-1.119,-1.105,-1.0366,-0.9461,-0.8348,-0.7225,-0.7435,-0.7514,-0.7389,-0.7619,-0.7768,-0.7841,-0.7841,-0.7926,-0.8038,-1.3828,-1.3633,-1.3418,-1.3496,-1.3708,-1.3417,-1.2189,-1.3377,-1.4343,-1.3989,-1.3881,-1.3762,-1.3728,-1.3941,-1.4035,-1.4082,-1.4088,-1.4126,-1.4185,-1.4159,-1.4517,-1.5187,-1.6253,-1.684,-1.6861,-1.7916,-1.7786,-1.6425,-1.6438,-1.6085,-1.541,-1.541,-1.541,-1.541,-1.541,-1.5172,-1.4775,-1.3497,-1.2935,-1.2766,-1.0696,-0.9915,-0.9791,-0.871,-0.816,-0.8038,-0.8038,-0.8021,-0.7997,-0.7997,-0.8018,-0.8038,-0.8038,-0.8038,-0.8038,-0.8038,-0.7913,-0.7773,-0.7962,-0.7833,-0.7989,-0.9213,-0.9427,-0.9714,-1.1156,-1.2294,-1.3195,-1.3535,-1.4427,-1.5077,-1.5115,-1.5478,-1.5958,-1.6491,-1.666,-1.6581,-1.6402,-1.6338,-1.6533,-1.7117,-1.7153,-1.738,-1.7969,-1.8008,-1.7579,-1.6645,-1.7671,-1.7388,-1.5149,-1.5756,-1.5476,-1.3981,-1.2899,-1.2644,-1.3393,-1.153,-1.0898,-1.1584,-1.156,-1.1569,-1.1603,-1.152,-1.1055,-1.0198,-1.0075,-0.9406,-0.8586,-0.9561,-0.9593,-0.8886,-0.8918,-0.8581,-0.7997,-0.7997,-0.8018,-0.8038,-1.4346,-1.4131,-1.3883,-1.3969,-1.4153,-1.3886,-1.2913,-1.3751,-1.4202,-1.312,-1.3322,-1.3579,-1.3662,-1.3818,-1.3921,-1.4075,-1.4088,-1.4088,-1.4088,-1.4657,-1.5137,-1.5696,-1.7335,-1.8045,-1.7524,-1.8589,-1.8306,-1.6581,-1.6569,-1.6173,-1.541,-1.541,-1.541,-1.5371,-1.5317,-1.5269,-1.5158,-1.3283,-1.2469,-1.2294,-0.9839,-0.8914,-0.8851,-0.8241,-0.8038,-0.8038,-0.8038,-0.8038,-0.8038,-0.8038,-0.8038,-0.8038,-0.8038,-0.8038,-0.8038,-0.8038,-0.7929,-0.7794,-0.7723,-0.7597,-0.767,-0.8206,-0.8362,-0.882,-1.0117,-1.1442,-1.2664,-1.3315,-1.4551,-1.5402,-1.5324,-1.5536,-1.5858,-1.6302,-1.6486,-1.6503,-1.6256,-1.6276,-1.6538,-1.732,-1.6973,-1.7085,-1.8191,-1.7939,-1.7562,-1.7345,-1.81,-1.7775,-1.5955,-1.6398,-1.607,-1.4653,-1.4282,-1.4021,-1.4035,-1.2905,-1.2247,-1.1975,-1.1793,-1.1601,-1.1552,-1.1981,-1.175,-1.0947,-1.1062,-1.0174,-0.8837,-0.9452,-0.9487,-0.92,-0.92,-0.8679,-0.7923,-0.7923,-0.797,-0.8038,-1.4677,-1.4453,-1.4147,-1.4381,-1.4486,-1.4353,-1.3894,-1.4192,-1.3911,-1.2318,-1.2879,-1.3436,-1.3436,-1.3632,-1.3834,-1.4068,-1.4088,-1.4088,-1.4088,-1.5137,-1.5779,-1.6026,-1.8331,-1.911,-1.7989,-1.9255,-1.8971,-1.704,-1.6866,-1.6393,-1.5684,-1.5498,-1.539,-1.5346,-1.526,-1.5262,-1.5234,-1.2582,-1.157,-1.1542,-0.9026,-0.8038,-0.8038,-0.8038,-0.8038,-0.8038,-0.8038,-0.8038,-0.8038,-0.8038,-0.8038,-0.8038,-0.8038,-0.8038,-0.8038,-0.8038,-0.7953,-0.7834,-0.7723,-0.7672,-0.7624,-0.7536,-0.7851,-0.8486,-0.9573,-1.1144,-1.2619,-1.3686,-1.4905,-1.5756,-1.5676,-1.5731,-1.5787,-1.5998,-1.6287,-1.6338,-1.6132,-1.6008,-1.6371,-1.7334,-1.6817,-1.6866,-1.8295,-1.7872,-1.7619,-1.7762,-1.8088,-1.78,-1.6852,-1.6733,-1.6261,-1.5242,-1.5569,-1.5343,-1.4719,-1.4178,-1.3415,-1.2368,-1.2049,-1.1787,-1.1666,-1.2459,-1.2388,-1.1751,-1.2056,-1.1294,-0.9923,-0.9962,-0.9809,-0.9569,-0.953,-0.8741,-0.7811,-0.7811,-0.7909,-0.8038,-1.4853,-1.4578,-1.4091,-1.4147,-1.413,-1.4073,-1.3857,-1.4012,-1.4075,-1.3928,-1.3998,-1.4005,-1.4005,-1.4079,-1.4055,-1.4082,-1.4088,-1.4088,-1.4088,-1.5137,-1.6108,-1.709,-1.8749,-1.9848,-2.0255,-2.0758,-2.0391,-1.9015,-1.824,-1.7387,-1.6592,-1.5781,-1.533,-1.5167,-1.5389,-1.524,-1.4837,-1.2631,-1.1658,-1.1368,-0.8935,-0.8038,-0.8038,-0.8038,-0.8038,-0.8038,-0.8038,-0.8038,-0.8038,-0.8038,-0.8038,-0.8038,-0.8038,-0.8038,-0.8038,-0.8038,-0.8028,-0.8014,-0.8001,-0.7896,-0.7821,-0.7946,-0.8758,-0.9665,-0.9934,-1.1925,-1.3782,-1.3878,-1.4747,-1.5511,-1.5634,-1.554,-1.533,-1.5281,-1.5157,-1.4966,-1.465,-1.4416,-1.4979,-1.6616,-1.6368,-1.6522,-1.7647,-1.7877,-1.7703,-1.7171,-1.7162,-1.6814,-1.6162,-1.6481,-1.6373,-1.5644,-1.5681,-1.6036,-1.6665,-1.4624,-1.3897,-1.4484,-1.3502,-1.3035,-1.3002,-1.2872,-1.2484,-1.1905,-1.2772,-1.3448,-1.3976,-1.3743,-1.2639,-1.1044,-1.0756,-0.9477,-0.7811,-0.7811,-0.7909,-0.8038,-1.3576,-1.3656,-1.364,-1.4159,-1.4283,-1.4214,-1.4017,-1.402,-1.4088,-1.4088,-1.4088,-1.4021,-1.3841,-1.3981,-1.4088,-1.4088,-1.4088,-1.4088,-1.4088,-1.5137,-1.6191,-1.7253,-1.7882,-1.8709,-1.9608,-1.9345,-1.8673,-1.7643,-1.7406,-1.6817,-1.5944,-1.5615,-1.5411,-1.5394,-1.538,-1.5351,-1.5259,-1.2652,-1.1693,-1.1525,-0.8989,-0.8038,-0.8038,-0.8038,-0.8038,-0.8038,-0.8038,-0.8038,-0.8038,-0.8038,-0.8038,-0.8038,-0.8038,-0.8038,-0.8038,-0.8038,-0.8038,-0.8021,-0.7926,-0.7926,-0.8136,-0.8874,-0.947,-1.0099,-1.0956,-1.2522,-1.3878,-1.3878,-1.4861,-1.5671,-1.5789,-1.563,-1.5553,-1.5583,-1.5432,-1.5317,-1.5074,-1.4831,-1.512,-1.6397,-1.5845,-1.6041,-1.8059,-1.761,-1.7533,-1.8341,-1.7901,-1.7394,-1.705,-1.653,-1.6401,-1.6659,-1.5387,-1.5238,-1.6145,-1.4627,-1.3913,-1.3817,-1.3437,-1.3019,-1.2665,-1.2719,-1.2824,-1.2883,-1.2769,-1.3334,-1.4409,-1.2709,-1.1674,-1.1055,-1.0042,-0.88,-0.7546,-0.7546,-0.7699,-0.7902,-1.2197,-1.2611,-1.3015,-1.365,-1.3995,-1.4231,-1.4149,-1.4088,-1.4088,-1.4088,-1.4088,-1.4008,-1.3794,-1.3961,-1.4088,-1.4088,-1.4088,-1.4088,-1.4088,-1.5137,-1.6026,-1.6764,-1.709,-1.7658,-1.847,-1.8028,-1.7466,-1.6862,-1.6868,-1.6507,-1.5897,-1.5675,-1.5536,-1.5489,-1.5434,-1.5497,-1.5476,-1.3211,-1.2268,-1.2231,-0.9604,-0.8627,-0.8528,-0.8137,-0.8038,-0.8038,-0.8038,-0.8038,-0.8038,-0.8038,-0.8038,-0.8038,-0.8038,-0.8038,-0.8038,-0.8038,-0.8038,-0.8018,-0.7909,-0.7957,-0.8305,-0.9542,-1.0188,-1.0877,-1.2231,-1.3494,-1.4459,-1.4459,-1.514,-1.5832,-1.5832,-1.5762,-1.5707,-1.5739,-1.5673,-1.5599,-1.5418,-1.5082,-1.5331,-1.6573,-1.577,-1.5909,-1.7852,-1.7267,-1.7123,-1.7988,-1.7677,-1.7442,-1.7374,-1.6731,-1.6561,-1.683,-1.5387,-1.4935,-1.5554,-1.4427,-1.3621,-1.3206,-1.3026,-1.2812,-1.2579,-1.2872,-1.324,-1.3579,-1.3084,-1.3446,-1.4328,-1.2088,-1.1191,-1.1025,-0.999,-0.8984,-0.8136,-0.8452,-0.8738,-0.8925,-1.101,-1.1764,-1.2391,-1.2338,-1.314,-1.3903,-1.4032,-1.4088,-1.4088,-1.4088,-1.4088,-1.4088,-1.4082,-1.4082,-1.4088,-1.4088,-1.4088,-1.4088,-1.4088,-1.5137,-1.5703,-1.5696,-1.6764,-1.7342,-1.7334,-1.7614,-1.7795,-1.7787,-1.7155,-1.6879,-1.6855,-1.5998,-1.552,-1.5304,-1.5616,-1.5606,-1.5312,-1.4343,-1.3872,-1.368,-1.1068,-0.9998,-0.9801,-0.8528,-0.8038,-0.8038,-0.8038,-0.8038,-0.8038,-0.8038,-0.8038,-0.8038,-0.8038,-0.8038,-0.8038,-0.8038,-0.8038,-0.8038,-0.8038,-0.8038,-0.8333,-0.9702,-1.097,-1.2237,-1.3584,-1.4854,-1.5737,-1.5737,-1.5825,-1.5832,-1.5832,-1.5818,-1.5803,-1.5684,-1.5528,-1.5341,-1.5281,-1.4843,-1.5169,-1.6886,-1.6439,-1.6207,-1.6645,-1.6862,-1.6444,-1.5238,-1.5661,-1.6223,-1.6669,-1.7039,-1.6838,-1.5779,-1.5696,-1.5546,-1.5305,-1.3905,-1.322,-1.32,-1.2599,-1.2625,-1.3213,-1.35,-1.3552,-1.3579,-1.3955,-1.4249,-1.4429,-1.3079,-1.2064,-1.1278,-1.1278,-1.0664,-0.9875,-1.0896,-1.1467,-1.1619,-0.9413,-0.9795,-1.0507,-1.1997,-1.2389,-1.2838,-1.3924,-1.3915,-1.3854,-1.4062,-1.4088,-1.4088,-1.4088,-1.4088,-1.4088,-1.4088,-1.4088,-1.4088,-1.4088,-1.4412,-1.4977,-1.5703,-1.5304,-1.547,-1.6191,-1.5999,-1.5855,-1.5855,-1.6026,-1.6109,-1.6102,-1.5816,-1.5684,-1.5629,-1.5725,-1.569,-1.5604,-1.4423,-1.3878,-1.368,-1.1068,-0.9998,-0.9903,-0.8528,-0.8038,-0.8038,-0.8038,-0.8038,-0.8038,-0.8038,-0.8038,-0.8038,-0.8038,-0.8038,-0.8038,-0.8038,-0.8038,-0.8038,-0.8038,-0.8038,-0.8528,-1.0779,-1.1556,-1.2528,-1.4657,-1.5534,-1.5832,-1.5832,-1.5832,-1.5832,-1.5832,-1.5832,-1.5826,-1.5814,-1.5751,-1.5685,-1.5664,-1.5518,-1.5735,-1.6469,-1.6388,-1.6442,-1.6841,-1.6704,-1.6952,-1.7706,-1.7605,-1.7278,-1.6764,-1.6322,-1.6273,-1.6764,-1.5515,-1.5141,-1.5546,-1.4413,-1.3707,-1.35,-1.3307,-1.332,-1.3507,-1.3601,-1.3754,-1.3864,-1.3165,-1.3096,-1.3167,-1.1117,-1.0167,-0.9983,-0.9072,-0.9104,-0.9588,-0.9766,-1.0504,-1.1387,-0.9405,-0.9923,-1.0585,-1.1945,-1.2391,-1.2851,-1.3805,-1.3761,-1.3748,-1.4048,-1.4088,-1.4088,-1.4088,-1.4088,-1.4088,-1.4088,-1.4088,-1.4088,-1.4088,-1.4088,-1.4412,-1.5054,-1.4496,-1.446,-1.5226,-1.5055,-1.5017,-1.5124,-1.5569,-1.57,-1.57,-1.57,-1.5741,-1.5832,-1.5832,-1.5832,-1.573,-1.4459,-1.3878,-1.368,-1.1068,-0.9998,-0.9903,-0.8528,-0.8038,-0.8038,-0.8038,-0.8038,-0.8038,-0.8038,-0.8038,-0.8038,-0.8038,-0.8038,-0.8038,-0.8038,-0.8038,-0.8038,-0.8038,-0.8038,-0.8627,-1.1263,-1.1945,-1.2624,-1.5242,-1.5832,-1.5832,-1.5832,-1.5832,-1.5832,-1.5832,-1.5832,-1.5832,-1.5832,-1.5738,-1.5718,-1.5961,-1.5863,-1.5929,-1.6469,-1.648,-1.6485,-1.6544,-1.6378,-1.655,-1.722,-1.668,-1.598,-1.5211,-1.5484,-1.5595,-1.5518,-1.4035,-1.3442,-1.3828,-1.3502,-1.3296,-1.3118,-1.3118,-1.3061,-1.2965,-1.3074,-1.3018,-1.2843,-1.2567,-1.2359,-1.2053,-1.0601,-0.9798,-0.9451,-0.9246,-0.9742,-1.0453,-1.0538,-1.1572,-1.2774,-1.059,-1.1445,-1.2137,-1.1904,-1.2763,-1.3418,-1.3526,-1.3532,-1.3721,-1.4015,-1.4075,-1.4088,-1.4088,-1.4088,-1.4088,-1.4088,-1.4088,-1.4088,-1.4088,-1.4088,-1.4088,-1.4088,-1.4088,-1.4215,-1.4482,-1.4803,-1.5117,-1.5424,-1.5678,-1.5812,-1.5832,-1.5832,-1.5832,-1.5832,-1.5832,-1.5832,-1.573,-1.4459,-1.3878,-1.368,-1.1068,-0.9998,-0.9903,-0.8528,-0.8038,-0.8038,-0.8038,-0.8038,-0.8038,-0.8038,-0.8038,-0.8038,-0.8038,-0.8038,-0.8038,-0.8038,-0.8038,-0.8038,-0.8137,-0.8137,-0.8722,-1.1361,-1.2139,-1.2818,-1.5248,-1.5832,-1.5832,-1.5832,-1.5832,-1.5832,-1.5832,-1.5832,-1.5832,-1.5832,-1.5565,-1.5714,-1.6293,-1.593,-1.5913,-1.6822,-1.6669,-1.634,-1.5952,-1.5911,-1.5498,-1.4536,-1.3588,-1.298,-1.258,-1.4436,-1.4515,-1.2574,-1.1631,-1.1,-1.0771,-1.163,-1.2129,-1.2209,-1.2381,-1.2257,-1.1867,-1.2184,-1.1815,-1.088,-1.1949,-1.1801,-1.1012,-1.1224,-1.0659,-0.9644,-1.1279,-1.1935,-1.2062,-1.2732,-1.3994,-1.5068,-1.0309,-1.0526,-1.0926,-1.1792,-1.1703,-1.1994,-1.3114,-1.3313,-1.342,-1.3707,-1.3948,-1.4088,-1.4088,-1.4088,-1.4088,-1.4088,-1.4088,-1.4088,-1.4088,-1.4088,-1.4088,-1.4088,-1.4088,-1.4122,-1.4188,-1.4696,-1.5211,-1.5732,-1.5571,-1.5611,-1.5832,-1.5832,-1.5832,-1.5832,-1.5832,-1.5832,-1.573,-1.4459,-1.3878,-1.368,-1.1068,-0.9998,-0.9903,-0.8528,-0.8038,-0.8038,-0.8038,-0.8038,-0.8038,-0.8038,-0.8038,-0.8038,-0.8038,-0.8038,-0.8038,-0.8038,-0.8038,-0.8233,-0.9217,-0.9509,-1.019,-1.2813,-1.4172,-1.5051,-1.5635,-1.5832,-1.5832,-1.5832,-1.5832,-1.5832,-1.5832,-1.5832,-1.5832,-1.5832,-1.6021,-1.6248,-1.6345,-1.6308,-1.6445,-1.6871,-1.6669,-1.634,-1.5952,-1.5712,-1.534,-1.4654,-1.4171,-1.3516,-1.2765,-1.2467,-1.2038,-1.147,-1.1404,-1.1241,-1.0771,-1.1145,-1.1382,-1.1382,-1.3379,-1.3254,-1.1304,-1.235,-1.2136,-1.101,-1.0374,-0.9942,-0.9727,-1.0108,-0.9997,-0.9831,-1.1376,-1.2416,-1.3068,-1.3037,-1.3758,-1.4791,-1.1588,-1.1634,-1.204,-1.2836,-1.2419,-1.244,-1.3632,-1.3516,-1.336,-1.3794,-1.3988,-1.4088,-1.4088,-1.4088,-1.4088,-1.4088,-1.4088,-1.4088,-1.4088,-1.4088,-1.4088,-1.4088,-1.4088,-1.4148,-1.4282,-1.4596,-1.505,-1.5631,-1.5471,-1.5545,-1.5832,-1.5832,-1.5832,-1.5832,-1.5832,-1.5832,-1.5635,-1.3782,-1.3006,-1.2716,-1.019,-0.9118,-0.9019,-0.8233,-0.8038,-0.8038,-0.8038,-0.8038,-0.8038,-0.8038,-0.8038,-0.8038,-0.8038,-0.8038,-0.8038,-0.8038,-0.8038,-0.8137,-0.8924,-0.9509,-1.0676,-1.3295,-1.4854,-1.5832,-1.5832,-1.5832,-1.5832,-1.5832,-1.5832,-1.5832,-1.5832,-1.5832,-1.5832,-1.5832,-1.6014,-1.6249,-1.6404,-1.5959,-1.5875,-1.6561,-1.6034,-1.5412,-1.4997,-1.4827,-1.4347,-1.3226,-1.2659,-1.201,-1.1296,-1.0274,-0.9918,-1.0314,-1.0023,-0.9793,-0.9414,-0.9978,-1.0808,-1.2005,-1.2842,-1.2564,-1.1181,-1.1919,-1.1236,-0.9558,-0.9472,-0.9143,-0.8848,-1.0184,-1.0421,-1.0048,-1.2088,-1.3048,-1.3362,-1.3111,-1.3671,-1.4583,-1.3267,-1.3407,-1.3654,-1.3961,-1.3488,-1.3314,-1.4185,-1.371,-1.3407,-1.3948,-1.4055,-1.4088,-1.4088,-1.4088,-1.4088,-1.4088,-1.4088,-1.4088,-1.4088,-1.4088,-1.4088,-1.4088,-1.4088,-1.4202,-1.4449,-1.4456,-1.4743,-1.5331,-1.5331,-1.5478,-1.5765,-1.5805,-1.5832,-1.5832,-1.5832,-1.5832,-1.5635,-1.3204,-1.2237,-1.1945,-0.9312,-0.8333,-0.8233,-0.8038,-0.8038,-0.8038,-0.8038,-0.8038,-0.8038,-0.8038,-0.8038,-0.8038,-0.8038,-0.8038,-0.8038,-0.8237,-0.8333,-0.8333,-0.8528,-0.9702,-1.1458,-1.3584,-1.5045,-1.5832,-1.5832,-1.5832,-1.5832,-1.5832,-1.5832,-1.5832,-1.5832,-1.5832,-1.5812,-1.5947,-1.6063,-1.6134,-1.6286,-1.5235,-1.4832,-1.5753,-1.4731,-1.3872,-1.3634,-1.355,-1.2874,-1.1377,-1.0457,-0.9705,-0.9292,-0.8456,-0.8371,-0.9292,-0.8459,-0.7977,-0.7845,-0.8824,-1.0324,-1.2205,-1.1657,-1.1198,-1.0827,-1.1013,-0.9888,-0.7845,-0.8806,-0.889,-0.8531,-1.0877,-1.1361,-1.0872,-1.3199,-1.4004,-1.3647,-1.3385,-1.3881,-1.4543,-1.3267,-1.3247,-1.3247,-1.3311,-1.2829,-1.26,-1.3002,-1.3118,-1.3327,-1.3667,-1.3928,-1.4088,-1.4088,-1.4088,-1.4088,-1.4088,-1.4088,-1.4088,-1.4088,-1.4088,-1.4088,-1.4088,-1.4088,-1.4108,-1.4155,-1.4155,-1.4442,-1.503,-1.503,-1.5177,-1.5471,-1.5712,-1.5832,-1.5832,-1.5832,-1.5832,-1.573,-1.4268,-1.3584,-1.3392,-1.0774,-0.9706,-0.9608,-0.8432,-0.8038,-0.8038,-0.8038,-0.8038,-0.8038,-0.8038,-0.8038,-0.8038,-0.8038,-0.8038,-0.8233,-0.9312,-0.9706,-0.9899,-1.097,-1.3108,-1.4956,-1.5439,-1.5635,-1.5832,-1.5832,-1.5832,-1.5832,-1.5832,-1.5832,-1.5832,-1.5832,-1.5832,-1.6021,-1.6747,-1.6743,-1.6511,-1.5789,-1.5061,-1.4152,-1.3213,-1.2422,-1.202,-1.2211,-1.205,-1.1431,-1.0329,-0.9833,-0.9146,-0.829,-0.8124,-0.8028,-0.8199,-0.8127,-0.8028,-0.8004,-0.9095,-0.9368,-0.8841,-1.0877,-1.0683,-0.8554,-0.9718,-0.9343,-0.8004,-0.8199,-0.8803,-0.9805,-1.1263,-1.2425,-1.3488,-1.4949,-1.5363,-1.5074,-1.4786,-1.4751,-1.5021,-1.3019,-1.3093,-1.3365,-1.3895,-1.3209,-1.292,-1.3924,-1.3523,-1.3373,-1.3821,-1.4001,-1.4088,-1.4088,-1.4088,-1.4148,-1.4309,-1.4175,-1.4155,-1.4309,-1.4175,-1.4088,-1.4088,-1.4088,-1.4088,-1.4088,-1.4088,-1.4376,-1.4963,-1.4963,-1.519,-1.5631,-1.5765,-1.5832,-1.5832,-1.5832,-1.5832,-1.573,-1.4459,-1.3796,-1.3394,-1.1021,-0.9938,-0.9571,-0.84,-0.8038,-0.8038,-0.8038,-0.8038,-0.8038,-0.8038,-0.8038,-0.8038,-0.8038,-0.8531,-0.9217,-0.9805,-1.0485,-1.1263,-1.2619,-1.3878,-1.4949,-1.5635,-1.5832,-1.5832,-1.5832,-1.5832,-1.5832,-1.5832,-1.5832,-1.5832,-1.5832,-1.5832,-1.5953,-1.6541,-1.6046,-1.5433,-1.5046,-1.3411,-1.2275,-1.2192,-1.1331,-1.0766,-1.0867,-1.0789,-1.0188,-0.9011,-0.8754,-0.8452,-0.8035,-0.8038,-0.8038,-0.8038,-0.8038,-0.8038,-0.8038,-0.8554,-0.8943,-0.9118,-1.0293,-1.019,-0.9118,-0.9706,-0.9312,-0.8038,-0.8726,-0.941,-1.0194,-1.2134,-1.3295,-1.407,-1.5337,-1.5651,-1.5384,-1.5244,-1.5097,-1.5033,-1.2869,-1.2999,-1.3437,-1.4116,-1.3536,-1.3409,-1.4896,-1.4308,-1.389,-1.442,-1.4489,-1.4412,-1.4173,-1.4148,-1.4282,-1.4502,-1.4315,-1.4282,-1.4502,-1.4249,-1.4088,-1.4088,-1.4088,-1.4088,-1.4088,-1.4088,-1.4309,-1.4756,-1.4897,-1.519,-1.5631,-1.5765,-1.5832,-1.5832,-1.5832,-1.5832,-1.5724,-1.4684,-1.4057,-1.3695,-1.1601,-1.0614,-1.0305,-0.9245,-0.8726,-0.8432,-0.8432,-0.8233,-0.8038,-0.8038,-0.8038,-0.8038,-0.8333,-0.9217,-1.0096,-1.0774,-1.1848,-1.3011,-1.368,-1.4166,-1.4561,-1.5534,-1.5832,-1.5832,-1.5832,-1.5832,-1.5832,-1.5832,-1.5832,-1.5832,-1.5832,-1.5534,-1.5544,-1.5991,-1.4897,-1.3866,-1.367,-1.1785,-1.0645,-1.0919,-1.0096,-0.9509,-0.9509,-0.9509,-0.9118,-0.8038,-0.8038,-0.8038,-0.8038,-0.8038,-0.8038,-0.8038,-0.8038,-0.8038,-0.8038,-0.8038,-0.8531,-0.9509,-0.9509,-0.9509,-0.9509,-0.9509,-0.9118,-0.8531,-0.9509,-1.0386,-1.1068,-1.3097,-1.407,-1.4459,-1.5439,-1.5691,-1.5491,-1.5424,-1.5297,-1.5157,-1.2829,-1.2999,-1.3206,-1.3286,-1.3265,-1.367,-1.5085,-1.5203,-1.5227,-1.5576,-1.5621,-1.522,-1.4166,-1.4329,-1.4496,-1.4516,-1.4502,-1.4496,-1.4522,-1.4249,-1.4088,-1.4088,-1.4088,-1.4088,-1.4088,-1.4088,-1.4108,-1.4155,-1.4696,-1.4983,-1.5037,-1.5578,-1.5832,-1.5832,-1.5832,-1.5832,-1.5812,-1.5445,-1.5319,-1.5114,-1.3701,-1.3128,-1.3046,-1.1956,-1.0877,-0.9903,-0.9903,-0.9019,-0.8038,-0.8038,-0.8038,-0.8237,-0.9509,-0.9899,-1.0485,-1.2904,-1.4555,-1.5242,-1.4166,-1.4752,-1.5635,-1.5737,-1.5832,-1.5832,-1.5832,-1.5832,-1.5832,-1.5832,-1.5832,-1.5832,-1.5832,-1.4848,-1.4254,-1.5048,-1.3744,-1.2381,-1.1568,-1.0867,-0.9997,-0.8488,-0.8237,-0.8137,-0.8137,-0.8137,-0.8137,-0.8038,-0.8038,-0.8038,-0.8038,-0.8038,-0.8038,-0.8038,-0.8038,-0.8038,-0.8038,-0.8038,-0.8038,-0.8137,-0.8137,-0.8137,-0.8137,-0.8137,-0.8726,-0.9903,-0.9998,-1.1356,-1.3584,-1.3776,-1.4561,-1.5635,-1.573,-1.5812,-1.5765,-1.5491,-1.5551,-1.5732,-1.3033,-1.3273,-1.3534,-1.3721,-1.3996,-1.4518,-1.5434,-1.5973,-1.6357,-1.6635,-1.6108,-1.5538,-1.5137,-1.4757,-1.4596,-1.4776,-1.4629,-1.4596,-1.4783,-1.4349,-1.4088,-1.4088,-1.4734,-1.5054,-1.5054,-1.5996,-1.6094,-1.534,-1.6058,-1.6021,-1.5244,-1.5645,-1.5832,-1.5832,-1.5832,-1.5832,-1.5812,-1.5518,-1.5291,-1.5046,-1.3896,-1.3298,-1.3021,-1.2193,-1.1556,-1.117,-1.117,-1.0877,-1.0386,-1.0386,-1.0386,-1.0485,-1.0974,-1.1745,-1.2813,-1.4561,-1.5439,-1.573,-1.5242,-1.5439,-1.5832,-1.5832,-1.5832,-1.5832,-1.5832,-1.5832,-1.5832,-1.5832,-1.5146,-1.4657,-1.4657,-1.359,-1.2863,-1.3353,-1.2088,-1.0924,-1.0803,-0.9737,-0.8665,-0.8124,-0.8038,-0.8038,-0.8038,-0.8038,-0.8038,-0.8038,-0.8038,-0.8038,-0.8038,-0.8038,-0.8038,-0.8038,-0.8038,-0.8038,-0.8038,-0.8038,-0.8038,-0.8038,-0.8038,-0.8038,-0.8038,-0.8038,-0.8726,-0.9998,-0.9998,-1.1453,-1.3878,-1.3878,-1.4657,-1.5832,-1.5832,-1.5832,-1.5812,-1.5705,-1.5732,-1.5812,-1.3066,-1.338,-1.3783,-1.44,-1.4786,-1.5492,-1.6603,-1.7092,-1.7465,-1.7777,-1.6742,-1.5904,-1.5688,-1.5007,-1.4636,-1.4937,-1.4689,-1.4643,-1.4943,-1.4416,-1.4088,-1.4088,-1.5137,-1.5696,-1.5696,-1.7087,-1.7263,-1.6097,-1.6735,-1.6447,-1.5404,-1.5691,-1.5832,-1.5832,-1.5832,-1.5832,-1.5805,-1.5424,-1.5197,-1.5013,-1.427,-1.3878,-1.3744,-1.3334,-1.2915,-1.2528,-1.2528,-1.2237,-1.1945,-1.1945,-1.1945,-1.1945,-1.2431,-1.3397,-1.4657,-1.5534,-1.5832,-1.5832,-1.5832,-1.5832,-1.5832,-1.5832,-1.5832,-1.5832,-1.5832,-1.5534,-1.5242,-1.5242,-1.4172,-1.3295,-1.3295,-1.2231,-1.1351,-1.1682,-1.0386,-0.9413,-0.9703,-0.8762,-0.8038,-0.8038,-0.8038,-0.8038,-0.8038,-0.8038,-0.8038,-0.8038,-0.8038,-0.8038,-0.8038,-0.8038,-0.8038,-0.8038,-0.8038,-0.8038,-0.8038,-0.8038,-0.8038,-0.8038,-0.8038,-0.8038,-0.8038,-0.8038,-0.8726,-0.9998,-0.9998,-1.1258,-1.3295,-1.3295,-1.3782,-1.4663,-1.5051,-1.5242,-1.5242,-1.5635,-1.554,-1.5242,-1.2822,-1.3233,-1.396,-1.5057,-1.5487,-1.6429,-1.863,-1.8614,-1.8497,-1.8973,-1.7638,-1.6429,-1.5741,-1.5,-1.4636,-1.4937,-1.4696,-1.4649,-1.4943,-1.4416,-1.4088,-1.4088,-1.5137,-1.5703,-1.5696,-1.6764,-1.694,-1.6097,-1.6431,-1.6238,-1.5398,-1.5691,-1.5832,-1.5825,-1.5832,-1.5832,-1.5792,-1.5211,-1.5137,-1.5371,-1.5084,-1.5137,-1.5431,-1.5718,-1.5045,-1.3878,-1.3878,-1.3102,-1.1945,-1.1945,-1.1945,-1.2139,-1.3488,-1.4752,-1.5832,-1.5832,-1.5832,-1.5832,-1.5832,-1.5832,-1.5832,-1.5832,-1.5832,-1.5832,-1.5832,-1.4854,-1.3878,-1.3878,-1.2813,-1.1945,-1.1848,-1.0877,-0.9998,-0.9998,-0.8821,-0.8038,-0.8038,-0.8038,-0.8038,-0.8038,-0.8038,-0.8038,-0.8038,-0.8038,-0.8038,-0.8038,-0.8038,-0.8038,-0.8038,-0.8038,-0.8038,-0.8038,-0.8038,-0.8038,-0.8038,-0.8038,-0.8038,-0.8038,-0.8038,-0.8038,-0.8038,-0.8038,-0.8726,-0.9998,-0.9998,-1.0681,-1.1945,-1.1848,-1.1848,-1.2042,-1.3392,-1.3878,-1.407,-1.5337,-1.4949,-1.3878,-1.2822,-1.3233,-1.3722,-1.4035,-1.5568,-1.692,-1.7296,-1.8579,-1.9392,-1.923,-1.817,-1.7167,-1.65,-1.5644,-1.5071,-1.471,-1.4763,-1.4776,-1.4663,-1.4489,-1.4302,-1.4095,-1.5876,-1.6437,-1.5696,-1.8571,-1.8632,-1.5845,-1.7415,-1.7017,-1.4796,-1.5498,-1.5718,-1.5531,-1.5738,-1.5832,-1.5805,-1.5431,-1.5317,-1.5391,-1.5304,-1.5317,-1.5431,-1.5718,-1.5534,-1.5242,-1.5242,-1.4956,-1.4663,-1.4663,-1.4663,-1.4663,-1.5146,-1.5534,-1.5832,-1.5832,-1.5832,-1.5832,-1.5832,-1.5832,-1.5832,-1.5832,-1.5832,-1.5832,-1.5832,-1.5534,-1.4949,-1.407,-1.2813,-1.1653,-1.0681,-0.9509,-0.8627,-0.8627,-0.8233,-0.8038,-0.8038,-0.8038,-0.8038,-0.8038,-0.8038,-0.8038,-0.8038,-0.8038,-0.8038,-0.8038,-0.8038,-0.8038,-0.8038,-0.8038,-0.8038,-0.8038,-0.8038,-0.8038,-0.8038,-0.8038,-0.8038,-0.8038,-0.8038,-0.8038,-0.8038,-0.8038,-0.8726,-0.9899,-0.9019,-0.9899,-1.1848,-1.0974,-1.1068,-1.2042,-1.3392,-1.3878,-1.407,-1.5337,-1.4949,-1.3878,-1.2822,-1.314,-1.3588,-1.4177,-1.5431,-1.6563,-1.7267,-1.8158,-1.8924,-1.9297,-1.8387,-1.7619,-1.7364,-1.6299,-1.542,-1.5161,-1.5048,-1.4836,-1.4536,-1.4629,-1.4569,-1.4269,-1.5905,-1.6495,-1.5703,-1.8284,-1.8443,-1.589,-1.7218,-1.6847,-1.4883,-1.5524,-1.5732,-1.5578,-1.5752,-1.5832,-1.5812,-1.5518,-1.5464,-1.5558,-1.5444,-1.5464,-1.5585,-1.5758,-1.5832,-1.5832,-1.5832,-1.5832,-1.5832,-1.5832,-1.5832,-1.5832,-1.5832,-1.5832,-1.5832,-1.5832,-1.5832,-1.5832,-1.5832,-1.5832,-1.5832,-1.5832,-1.5832,-1.5832,-1.5832,-1.5439,-1.4854,-1.407,-1.2813,-1.1653,-1.0877,-0.9706,-0.8825,-0.8825,-0.8333,-0.8038,-0.8038,-0.8038,-0.8038,-0.8038,-0.8038,-0.8038,-0.8038,-0.8038,-0.8038,-0.8038,-0.8038,-0.8038,-0.8038,-0.8038,-0.8038,-0.8038,-0.8038,-0.8038,-0.8038,-0.8038,-0.8038,-0.8038,-0.8038,-0.8038,-0.8038,-0.8038,-0.8432,-0.9118,-0.8333,-0.892,-1.0288,-0.9509,-0.9998,-1.1263,-1.2619,-1.3392,-1.407,-1.5337,-1.4657,-1.3102,-1.2782,-1.2979,-1.3605,-1.4889,-1.4971,-1.5592,-1.7682,-1.7573,-1.7723,-1.8952,-1.8331,-1.7875,-1.81,-1.6742,-1.5786,-1.5945,-1.5374,-1.4836,-1.4536,-1.4823,-1.4863,-1.4536,-1.5433,-1.5893,-1.5627,-1.6714,-1.6849,-1.5933,-1.6401,-1.6106,-1.5364,-1.5745,-1.588,-1.5792,-1.5913,-1.5927,-1.5812,-1.5545,-1.5585,-1.5805,-1.5538,-1.5591,-1.5832,-1.5832,-1.5832,-1.5832,-1.5832,-1.5832,-1.5832,-1.5832,-1.5832,-1.5832,-1.5832,-1.5832,-1.5832,-1.5832,-1.5832,-1.5832,-1.5832,-1.5832,-1.5832,-1.5832,-1.5832,-1.5832,-1.5832,-1.4854,-1.407,-1.3872,-1.2813,-1.1945,-1.1945,-1.0877,-0.9998,-0.9998,-0.9019,-0.8137,-0.8041,-0.8038,-0.8038,-0.8038,-0.8038,-0.8038,-0.8038,-0.8038,-0.8038,-0.8038,-0.8038,-0.8038,-0.8038,-0.8038,-0.8038,-0.8038,-0.8038,-0.8038,-0.8038,-0.8038,-0.8038,-0.8038,-0.8038,-0.8038,-0.8038,-0.8038,-0.8038,-0.8038,-0.8038,-0.8038,-0.8038,-0.8038,-0.8726,-0.9998,-1.1361,-1.2624,-1.3878,-1.5248,-1.4178,-1.2042,-1.2398,-1.2839,-1.3306,-1.3605,-1.4648,-1.5589,-1.58,-1.6809,-1.7568,-1.7488,-1.8046,-1.7897,-1.6615,-1.6517,-1.5921,-1.4642,-1.4832,-1.4836,-1.4536,-1.501,-1.507,-1.4543,-1.4683,-1.4932,-1.5109,-1.6552,-1.6526,-1.4856,-1.5749,-1.5784,-1.5154,-1.6323,-1.638,-1.5498,-1.6743,-1.6763,-1.5825,-1.5758,-1.5772,-1.5818,-1.5758,-1.5772,-1.5832,-1.5832,-1.5832,-1.5832,-1.5832,-1.5832,-1.5832,-1.5832,-1.5832,-1.5832,-1.5832,-1.5832,-1.5832,-1.5832,-1.5832,-1.5832,-1.5832,-1.5832,-1.5832,-1.5832,-1.5832,-1.5832,-1.5832,-1.5635,-1.514,-1.407,-1.2813,-1.1945,-1.1945,-1.0877,-0.9998,-0.9998,-0.9805,-0.9217,-0.8137,-0.8038,-0.8038,-0.8038,-0.8038,-0.8038,-0.8038,-0.8038,-0.8038,-0.8038,-0.8038,-0.8038,-0.8038,-0.8038,-0.8038,-0.8038,-0.8038,-0.8038,-0.8038,-0.8038,-0.8038,-0.8038,-0.8038,-0.8038,-0.8038,-0.8038,-0.8038,-0.8038,-0.8038,-0.8038,-0.8038,-0.8038,-0.8137,-0.8627,-1.097,-1.2042,-1.2624,-1.4956,-1.4854,-1.3199,-1.2305,-1.2559,-1.2866,-1.316,-1.3798,-1.4446,-1.4828,-1.5549,-1.6235,-1.6723,-1.7666,-1.7908,-1.6908,-1.6957,-1.6241,-1.4237,-1.4496,-1.4743,-1.473,-1.515,-1.5257,-1.495,-1.4937,-1.4943,-1.4963,-1.5763,-1.5763,-1.473,-1.5979,-1.6396,-1.6048,-1.7606,-1.7675,-1.6529,-1.7338,-1.6943,-1.5832,-1.5832,-1.5832,-1.5832,-1.5832,-1.5832,-1.5832,-1.5832,-1.5832,-1.5832,-1.5832,-1.5832,-1.5832,-1.5832,-1.5832,-1.5832,-1.5832,-1.5832,-1.5832,-1.5832,-1.5832,-1.5832,-1.5832,-1.5832,-1.5635,-1.5045,-1.5343,-1.5832,-1.5832,-1.5832,-1.5635,-1.4949,-1.4274,-1.3788,-1.3788,-1.2716,-1.1843,-1.1843,-1.1447,-1.0888,-1.001,-0.9482,-0.9107,-0.8931,-0.8432,-0.8038,-0.8038,-0.8038,-0.8038,-0.8038,-0.8038,-0.8072,-0.8147,-0.815,-0.818,-0.8248,-0.8184,-0.815,-0.815,-0.8075,-0.8038,-0.8038,-0.8038,-0.8038,-0.8038,-0.8038,-0.8038,-0.8038,-0.8038,-0.8038,-0.8038,-0.8038,-0.8333,-0.9118,-1.0485,-1.175,-1.3011,-1.4364,-1.4459,-1.3584,-1.2305,-1.2345,-1.2538,-1.3046,-1.2959,-1.3208,-1.4229,-1.4303,-1.4646,-1.5998,-1.6963,-1.7471,-1.7168,-1.6905,-1.6041,-1.425,-1.4355,-1.4603,-1.4803,-1.513,-1.5297,-1.5251,-1.5244,-1.5184,-1.5037,-1.499,-1.499,-1.5037,-1.6278,-1.6867,-1.6978,-1.8466,-1.8533,-1.7412,-1.7598,-1.6943,-1.5832,-1.5832,-1.5832,-1.5832,-1.5832,-1.5832,-1.5832,-1.5832,-1.5832,-1.5832,-1.5832,-1.5832,-1.5832,-1.5832,-1.5832,-1.5832,-1.5832,-1.5832,-1.5832,-1.5832,-1.5832,-1.5832,-1.5832,-1.5832,-1.5534,-1.4268,-1.4854,-1.573,-1.5534,-1.5635,-1.5832,-1.5832,-1.5635,-1.5534,-1.573,-1.4752,-1.389,-1.3931,-1.3237,-1.2527,-1.2082,-1.1088,-1.0314,-1.0061,-0.884,-0.8038,-0.8038,-0.8038,-0.8038,-0.8038,-0.8038,-0.8096,-0.8225,-0.8231,-0.8286,-0.8401,-0.8292,-0.8231,-0.8231,-0.813,-0.8079,-0.8079,-0.8079,-0.8065,-0.8038,-0.8038,-0.8038,-0.8038,-0.8237,-0.8237,-0.8041,-0.8237,-0.8821,-0.9706,-0.9899,-1.1356,-1.3295,-1.3782,-1.3878,-1.3782,-1.2305,-1.2512,-1.2788,-1.2876,-1.2999,-1.3239,-1.3358,-1.3858,-1.4298,-1.4469,-1.5421,-1.5815,-1.5073,-1.4763,-1.4412,-1.4173,-1.4355,-1.4429,-1.4215,-1.4716,-1.4903,-1.4649,-1.4636,-1.4856,-1.5331,-1.5097,-1.5084,-1.5337,-1.5298,-1.5538,-1.6035,-1.7073,-1.7026,-1.6109,-1.7225,-1.6943,-1.5832,-1.5832,-1.5832,-1.5832,-1.5832,-1.5832,-1.5832,-1.5832,-1.5832,-1.5832,-1.5832,-1.5832,-1.5832,-1.5832,-1.5832,-1.5832,-1.5832,-1.5832,-1.5832,-1.5832,-1.5832,-1.5832,-1.5832,-1.5832,-1.5534,-1.4268,-1.4854,-1.5534,-1.4364,-1.5045,-1.5832,-1.5832,-1.4949,-1.4459,-1.5629,-1.4752,-1.3949,-1.4166,-1.4132,-1.3729,-1.2796,-1.1369,-1.0365,-1.0339,-0.8907,-0.8038,-0.8038,-0.8038,-0.8038,-0.8038,-0.8038,-0.8048,-0.8069,-0.8072,-0.8079,-0.8099,-0.8079,-0.8072,-0.8072,-0.8184,-0.8238,-0.8238,-0.8238,-0.817,-0.8038,-0.8038,-0.8038,-0.8038,-0.9213,-0.9118,-0.8137,-0.9217,-0.9118,-0.8432,-0.9509,-1.0194,-1.0774,-1.3102,-1.3878,-1.3878,-1.2305,-1.2412,-1.2552,-1.2795,-1.2936,-1.2953,-1.2953,-1.3065,-1.3305,-1.3815,-1.4387,-1.4735,-1.4587,-1.4288,-1.4088,-1.4088,-1.4202,-1.4295,-1.4322,-1.4576,-1.473,-1.477,-1.477,-1.489,-1.515,-1.519,-1.5264,-1.5398,-1.6155,-1.6586,-1.685,-1.7965,-1.7888,-1.685,-1.7412,-1.6943,-1.5832,-1.5832,-1.5832,-1.5832,-1.5832,-1.5832,-1.5832,-1.5832,-1.5832,-1.5832,-1.5832,-1.5832,-1.5832,-1.5832,-1.5832,-1.5832,-1.5832,-1.5832,-1.5832,-1.5832,-1.5832,-1.5832,-1.5832,-1.5832,-1.5534,-1.4268,-1.4854,-1.5439,-1.4166,-1.5069,-1.6032,-1.5865,-1.5343,-1.5191,-1.5943,-1.5583,-1.5369,-1.5649,-1.5827,-1.5714,-1.5065,-1.3735,-1.2158,-1.0341,-0.8866,-0.8072,-0.816,-0.817,-0.8201,-0.8279,-0.8286,-0.8323,-0.8411,-0.8414,-0.8455,-0.854,-0.8459,-0.8414,-0.8414,-0.8397,-0.8387,-0.8387,-0.8387,-0.8309,-0.8167,-0.8079,-0.8038,-0.8038,-0.941,-0.9217,-0.8137,-0.941,-0.9217,-0.8038,-0.8627,-0.9312,-1.0288,-1.2904,-1.3878,-1.3974]},{"header":{"parameterUnit":"m.s-1","parameterCategory":1,"la1":30.6,"la2":28.766,"lo1":-90.7593,"lo2":-88.6598,"dy":0.0162,"dx":0.0183,"nx":116,"ny":114,"refTime":"2023-04-06T06:00:00:Z","depth":0,"parameterNumber":3,"parameterNumberName":"V-component_of_WINDS"},"data":[0.0,0.0,0.0,0.0,0.0,0.0,0.0,0.0,0.0,0.0,0.0,0.0,0.0,0.0,0.0,0.0,0.0,0.0,0.0,0.0,0.0,0.0,0.0,0.0,0.0,0.0,0.0,0.0,0.0,0.0,0.0,0.0,0.0,0.0,0.0,0.0,0.0,0.0,0.0,0.0,0.0,0.0,0.0,0.0,0.0,0.0,0.0,0.0,0.0,0.0,0.0,0.0,0.0,0.0,0.0,0.0,0.0,0.0,0.0,0.0,0.0,0.0,0.0,0.0,0.0,0.0,0.0,0.0,0.0,0.0,0.0,0.0,0.0,0.0,0.0,0.0,0.0,0.0,0.0,0.0,0.0,0.0,0.0,0.0,0.0,0.0,0.0,0.0,0.0,0.0,0.0,0.0,0.0,0.0,0.0,0.0,0.0,0.0,0.0,0.0,0.0,0.0,0.0,0.0,0.0,0.0,0.0,0.0,0.0,0.0,0.0,0.0,0.0,0.0,0.0,0.0,0.0,0.0,0.0,0.0,0.0,0.0,0.0,0.0,0.0,0.0,0.0,0.0,0.0,0.0,0.0,0.0,0.0,0.0,0.0,0.0,0.0,0.0,0.0,0.0,0.0,0.0,0.0,0.0,0.0,0.0,0.0,0.0,0.0,0.0,0.0,0.0,0.0,0.0,0.0,0.0,0.0,0.0,0.0,0.0,0.0,0.0,0.0,0.0,0.0,0.0,0.0,0.0,0.0,0.0,0.0,0.0,0.0,0.0,0.0,0.0,0.0,0.0,0.0,0.0,0.0,0.0,0.0,0.0,0.0,0.0,0.0,0.0,0.0,0.0,0.0,0.0,0.0,0.0,0.0,0.0,0.0,0.0,0.0,0.0,0.0,0.0,0.0,0.0,0.0,0.0,0.0,0.0,0.0,0.0,0.0,0.0,0.0,0.0,0.0,0.0,0.0,0.0,0.0,0.0,0.0,0.0,0.0,0.0,0.0,0.0,0.0,0.0,0.0,0.0,0.0,0.0,0.0,0.0,0.0,0.0,0.0,0.0,0.0,0.0,0.0,0.0,0.0,0.0,0.0,0.0,0.0,0.0,0.0,0.0,0.0,0.0,0.0,0.0,0.0,0.0,0.0,0.0,0.0,0.0,0.0,0.0,0.0,0.0,0.0,0.0,0.0,0.0,0.0,0.0,0.0,0.0,0.0,0.0,0.0,0.0,0.0,0.0,0.0,0.0,0.0,0.0,0.0,0.0,0.0,0.0,0.0,0.0,0.0,0.0,0.0,0.0,0.0,0.0,0.0,0.0,0.0,0.0,0.0,0.0,0.0,0.0,0.0,0.0,0.0,0.0,0.0,0.0,0.0,0.0,0.0,0.0,0.0,0.0,0.0,0.0,0.0,0.0,0.0,0.0,0.0,0.0,0.0,0.0,0.0,0.0,0.0,0.0,0.0,0.0,0.0,0.0,0.0,0.0,0.0,0.0,0.0,0.0,0.0,0.0,0.0,0.0,0.0,0.0,0.0,0.0,0.0,0.0,0.0,0.0,0.0,0.0,0.0,0.0,0.0,0.0,0.0,0.0,0.0,0.0,0.0,0.0,0.0,0.0,0.0,0.0,0.0,0.0,0.0,0.0,0.0,0.0,0.0,0.0,0.0,0.0,0.0,0.0,0.0,0.0,0.0,0.0,0.0,0.0,0.0,0.0,0.0,0.0,0.0,0.0,0.0,0.0,0.0,0.0,0.0,0.0,0.0,0.0,0.0,0.0,0.0,0.0,0.0,0.0,0.0,0.0,0.0,0.0,0.0,0.0,0.0,0.0,0.0,0.0,0.0,0.0,0.0,0.0,0.0,0.0,0.0,0.0,0.0,0.0,0.0,0.0,0.0,0.0,0.0,0.0,0.0,0.0,0.0,0.0,0.0,0.0,0.0,0.0,0.0,0.0,0.0,0.0,0.0,0.0,0.0,0.0,0.0,0.0,0.0,0.0,0.0,0.0,0.0,0.0,0.0,0.0,0.0,0.0,0.0,0.0,0.0,0.0,0.0,0.0,0.0,0.0,0.0,0.0,0.0,0.0,0.0,0.0,0.0,0.0,0.0,0.0,0.0,0.0,0.0,0.0,0.0,0.0,0.0,0.0,0.0,0.0,0.0,0.0,0.0,0.0,0.0,0.0,0.0,0.0,0.0,0.0,0.0,0.0,0.0,0.0,0.0,0.0,0.0,0.0,0.0,0.0,0.0,0.0,0.0,0.0,0.0,0.0,0.0,0.0,0.0,0.0,0.0,0.0,0.0,0.0,0.0,0.0,0.0,0.0,0.0,0.0,0.0,0.0,0.0,0.0,0.0,0.0,0.0,0.0,0.0,0.0,0.0,0.0,0.0,0.0,0.0,0.0,0.0,0.0,0.0,0.0,0.0,0.0,0.0,0.0,0.0,0.0,0.0,0.0,0.0,0.0,0.0,0.0,0.0,0.0,0.0,0.0,0.0,0.0,0.0,0.0,0.0,0.0,0.0,0.0,0.0,0.0,0.0,0.0,0.0,0.0,0.0,0.0,0.0,0.0,0.0,0.0,0.0,0.0,0.0,0.0,0.0,0.0,0.0,0.0,0.0,0.0,0.0,0.0,0.0,0.0,0.0,0.0,0.0,0.0,0.0,0.0,0.0,0.0,0.0,0.0,0.0,0.0,0.0,0.0,0.0,0.0,0.0,0.0,0.0,0.0,0.0,0.0,0.0,0.0,0.0,0.0,0.0,0.0,0.0,0.0,0.0,0.0,0.0,0.0,0.0,0.0,0.0,0.0,0.0,0.0,0.0,0.0,0.0,0.0,0.0,0.0,0.0,0.0,0.0,0.0,0.0,0.0,0.0,0.0,0.0,0.0,0.0,0.0,0.0,0.0,0.0,0.0,0.0,0.0,0.0,0.0,0.0,0.0,0.0,0.0,0.0,0.0,0.0,0.0,0.0,0.0,0.0,0.0,0.0,0.0,0.0,0.0,0.0,0.0,0.0,0.0,0.0,0.0,0.0,0.0,0.0,0.0,0.0,0.0,0.0,0.0,0.0,0.0,0.0,0.0,0.0,0.0,0.0,0.0,0.0,0.0,0.0,0.0,0.0,0.0,0.0,0.0,0.0,0.0,0.0,0.0,0.0,0.0,0.0,0.0,0.0,0.0,0.0,0.0,0.0,0.0,0.0,0.0,0.0,0.0,0.0,0.0,0.0,0.0,0.0,0.0,0.0,0.0,0.0,0.0,0.0,0.0,0.0,0.0,0.0,0.0,0.0,0.0,0.0,0.0,0.0,0.0,0.0,0.0,0.0,0.0,0.0,0.0,0.0,0.0,0.0,0.0,0.0,0.0,0.0,0.0,0.0,0.0,0.0,0.0,0.0,0.0,0.0,0.0,0.0,0.0,0.0,0.0,0.0,0.0,0.0,0.0,0.0,0.0,0.0,0.0,0.0,0.0,0.0,0.0,0.0,0.0,0.0,0.0,0.0,0.0,0.0,0.0,0.0,0.0,0.0,0.0,0.0,0.0,0.0,0.0,0.0,0.0,0.0,0.0,0.0,0.0,0.0,0.0,0.0,0.0,0.0,0.0,0.0,0.0,0.0,0.0,0.0,0.0,0.0,0.0,0.0,0.0,0.0,0.0,0.0,0.0,0.0,0.0,0.0,0.0,0.0,0.0,0.0,0.0,0.0,0.0,0.0,0.0,0.0,0.0,0.0,0.0,0.0,0.0,0.0,0.0,0.0,0.0,0.0,0.0,0.0,0.0,0.0,0.0,0.0,0.0,0.0,0.0,0.0,0.0,0.0,0.0,0.0,0.0,0.0,0.0,0.0,0.0,0.0,0.0,0.0,0.0,0.0,0.0,0.0,0.0,0.0,0.0,0.0,0.0,0.0,0.0,0.0,0.0,0.0,0.0,0.0,0.0,0.0,0.0,0.0,0.0,0.0,0.0,0.0,0.0,0.0,0.0,0.0,0.0,0.0,0.0,0.0,0.0,0.0,0.0,0.0,0.0,0.0,0.0,0.0,0.0,0.0,0.0,0.0,0.0,0.0,0.0,0.0,0.0,0.0,0.0,0.0,0.0,0.0,0.0,0.0,0.0,0.0,0.0,0.0,0.0,0.0,0.0,0.0,0.0,0.0,0.0,0.0,0.0,0.0,0.0,0.0,0.0,0.0,0.0,0.0,0.0,0.0,0.0,0.0,0.0,0.0,0.0,0.0,0.0,0.0,0.0,0.0,0.0,0.0,0.0,0.0,0.0,0.0,0.0,0.0,0.0,0.0,0.0,0.0,0.0,0.0,0.0,0.0,0.0,0.0,0.0,0.0,0.0,0.0,0.0,0.0,0.0,0.0,0.0,0.0,0.0,0.0,0.0,0.0,0.0,0.0,0.0,0.0,0.0,0.0,0.0,0.0,0.0,0.0,0.0,0.0,0.0,0.0,0.0,0.0,0.0,0.0,0.0,0.0,0.0,0.0,0.0,0.0,0.0,0.0,0.0,0.0,0.0,0.0,0.0,0.0,0.0,0.0,0.0,0.0,0.0,0.0,0.0,0.0,0.0,0.0,0.0,0.0,0.0,0.0,0.0,0.0,0.0,0.0,0.0,0.0,0.0,0.0,0.0,0.0,0.0,0.0,0.0,0.0,0.0,0.0,0.0,0.0,0.0,0.0,0.0,0.0,0.0,0.0,0.0,0.0,0.0,0.0,0.0,0.0,0.0,0.0,0.0,0.0,0.0,0.0,0.0,0.0,0.0,0.0,0.0,0.0,0.0,0.0,0.0,0.0,0.0,0.0,0.0,0.0,0.0,0.0,0.0,0.0,0.0,0.0,0.0,0.0,0.0,0.0,0.0,0.0,0.0,0.0,0.0,0.0,0.0,0.0,0.0,0.0,0.0,0.0,0.0,0.0,0.0,0.0,0.0,0.0,0.0,0.0,0.0,0.0,0.0,0.0,0.0,0.0,0.0,0.0,0.0,0.0,0.0,0.0,0.0,0.0,0.0,0.0,0.0,0.0,0.0,0.0,0.0,0.0,0.0,0.0,0.0,0.0,0.0,0.0,0.0,0.0,0.0,0.0,0.0,0.0,0.0,0.0,0.0,0.0,0.0,0.0,0.0,0.0,0.0,0.0,0.0,0.0,0.0,0.0,0.0,0.0,0.0,0.0,0.0,0.0,0.0,0.0,0.0,0.0,0.0,0.0,0.0,0.0,0.0,0.0,0.0,0.0,0.0,0.0,0.0,0.0,0.0,0.0,0.0,0.0,0.0,0.0,0.0,0.0,0.0,0.0,0.0,0.0,0.0,0.0,0.0,0.0,0.0,0.0,0.0,0.0,0.0,0.0,0.0,0.0,0.0,0.0,0.0,0.0,0.0,0.0,0.0,0.0,0.0,0.0,0.0,0.0,0.0,0.0,0.0,0.0,0.0,0.0,0.0,0.0,0.0,0.0,0.0,0.0,0.0,0.0,0.0,0.0,0.0,0.0,0.0,0.0,0.0,0.0,0.0,0.0,0.0,0.0,0.0,0.0,0.0,0.0,0.0,0.0,0.0,0.0,0.0,0.0,0.0,0.0,0.0,0.0,0.0,0.0,0.0,0.0,0.0,0.0,0.0,0.0,0.0,0.0,0.0,0.0,0.0,0.0,0.0,0.0,0.0,0.0,0.0,0.0,0.0,0.0,0.0,0.0,0.0,0.0,0.0,0.0,0.0,0.0,0.0,0.0,0.0,0.0,0.0,0.0,0.0,0.0,0.0,0.0,0.0,0.0,0.0,0.0,0.0,0.0,0.0,0.0,0.0,0.0,0.0,0.0,0.0,0.0,0.0,0.0,0.0,0.0,0.0,0.0,0.0,0.0,0.0,0.0,0.0,0.0,0.0,0.0,0.0,0.0,0.0,0.0,0.0,0.0,0.0,0.0,0.0,0.0,0.0,0.0,0.0,0.0,0.0,0.0,0.0,0.0,0.0,0.0,0.0,0.0,0.0,0.0,0.0,0.0,0.0,0.0,0.0,0.0,0.0,0.0,0.0,0.0,0.0,0.0,0.0,0.0,0.0,0.0,0.0,0.0,0.0,0.0,0.0,0.0,0.0,2.4965,2.4437,0.0,0.0,0.0,0.0,0.0,0.0,0.0,0.0,0.0,0.0,0.0,0.0,0.0,0.0,0.0,0.0,0.0,0.0,0.0,0.0,0.0,0.0,0.0,0.0,0.0,0.0,0.0,0.0,0.0,0.0,0.0,0.0,0.0,0.0,0.0,0.0,0.0,0.0,2.1023,2.12,2.151,2.2464,2.3595,2.4804,0.0,0.0,0.0,0.0,0.0,0.0,0.0,0.0,0.0,0.0,0.0,0.0,0.0,0.0,0.0,0.0,0.0,0.0,0.0,0.0,0.0,0.0,0.0,0.0,0.0,0.0,0.0,0.0,0.0,0.0,0.0,0.0,0.0,0.0,0.0,0.0,0.0,0.0,0.0,0.0,0.0,0.0,0.0,0.0,0.0,0.0,0.0,0.0,0.0,0.0,0.0,0.0,0.0,0.0,0.0,0.0,0.0,0.0,0.0,0.0,0.0,0.0,0.0,0.0,0.0,0.0,0.0,0.0,0.0,0.0,2.8288,2.6672,0.0,0.0,0.0,0.0,0.0,0.0,0.0,0.0,0.0,0.0,0.0,0.0,0.0,0.0,0.0,0.0,0.0,0.0,0.0,0.0,0.0,0.0,0.0,0.0,2.0335,1.9381,1.958,1.9617,0.0,0.0,0.0,0.0,0.0,0.0,0.0,1.9976,2.0389,2.1059,2.0612,2.1066,2.233,2.3558,2.4333,2.4708,2.4823,0.0,0.0,0.0,0.0,0.0,0.0,0.0,0.0,0.0,0.0,0.0,0.0,0.0,0.0,0.0,0.0,0.0,0.0,0.0,0.0,0.0,0.0,0.0,0.0,0.0,0.0,0.0,0.0,0.0,0.0,0.0,0.0,0.0,0.0,0.0,0.0,0.0,0.0,0.0,0.0,0.0,0.0,0.0,0.0,0.0,0.0,0.0,0.0,0.0,0.0,0.0,0.0,0.0,0.0,0.0,0.0,0.0,0.0,0.0,0.0,0.0,0.0,0.0,3.3241,3.4082,3.4101,3.4445,3.4152,3.3376,3.3321,3.0672,2.6475,2.7401,0.0,0.0,0.0,0.0,0.0,0.0,0.0,0.0,0.0,0.0,0.0,0.0,0.0,0.0,0.0,0.0,0.0,0.0,0.0,0.0,0.0,2.1235,2.0996,1.9452,2.0645,2.0866,0.0,0.0,0.0,0.0,0.0,0.0,0.0,2.0663,2.1013,2.0831,2.2471,2.3458,2.3905,2.4608,2.4713,2.4295,2.4293,2.4497,2.4835,0.0,0.0,0.0,0.0,0.0,0.0,0.0,0.0,0.0,0.0,0.0,0.0,0.0,0.0,0.0,0.0,0.0,0.0,0.0,0.0,0.0,0.0,0.0,0.0,0.0,0.0,0.0,0.0,0.0,0.0,0.0,0.0,0.0,0.0,0.0,0.0,0.0,0.0,0.0,0.0,0.0,2.9246,2.7663,0.0,0.0,0.0,0.0,0.0,0.0,0.0,0.0,0.0,0.0,0.0,0.0,0.0,3.1569,3.3005,3.349,3.4111,3.4889,3.6749,3.7633,3.7672,3.9375,3.9667,3.8866,3.8846,0.0,2.9864,2.7795,0.0,0.0,0.0,0.0,0.0,0.0,0.0,0.0,0.0,0.0,0.0,0.0,0.0,0.0,0.0,0.0,0.0,0.0,0.0,0.0,0.0,2.1036,2.0608,1.9872,2.0156,2.0293,1.9991,2.0701,0.0,0.0,0.0,2.0757,2.0757,2.072,2.0855,2.1237,2.3534,2.4447,2.4112,2.4695,2.4783,2.4568,2.4568,2.4759,2.5045,2.4475,0.0,0.0,0.0,0.0,0.0,0.0,0.0,0.0,0.0,0.0,0.0,0.0,0.0,0.0,0.0,0.0,0.0,0.0,0.0,0.0,0.0,0.0,0.0,0.0,0.0,0.0,0.0,0.0,0.0,0.0,0.0,0.0,0.0,0.0,0.0,0.0,0.0,0.0,0.0,2.8454,2.9239,2.7419,2.8543,2.8554,0.0,0.0,0.0,0.0,0.0,0.0,0.0,0.0,0.0,3.2674,3.435,3.5587,3.6319,3.7833,3.8769,3.9177,4.0526,4.1167,4.1206,4.2139,4.2349,4.1978,4.201,4.0213,3.6999,3.3399,3.1023,2.9599,0.0,0.0,0.0,0.0,2.962,2.9749,0.0,0.0,0.0,0.0,0.0,0.0,0.0,0.0,0.0,0.0,0.0,0.0,2.123,2.0676,2.0242,2.0175,2.0226,2.0342,2.057,2.1383,0.0,0.0,0.0,2.16,2.1831,2.1097,2.1325,2.2555,2.4324,2.5011,2.4644,2.5197,2.5372,2.5247,2.5247,2.5384,2.557,2.4618,2.5077,2.6356,0.0,0.0,0.0,0.0,0.0,0.0,0.0,0.0,0.0,0.0,0.0,0.0,0.0,0.0,0.0,0.0,0.0,0.0,0.0,0.0,0.0,0.0,0.0,0.0,0.0,0.0,0.0,0.0,0.0,0.0,0.0,0.0,0.0,0.0,0.0,0.0,0.0,2.921,3.0392,2.7885,2.9973,3.0548,0.0,0.0,0.0,0.0,0.0,0.0,3.1676,3.39,3.5563,3.6434,3.8103,3.9182,3.9607,4.1603,4.2698,4.293,4.3652,4.4006,4.4016,4.415,4.4089,4.3875,4.3922,4.3464,4.2334,3.8258,3.5425,3.3587,3.2903,3.2645,3.264,3.264,3.2504,3.2396,0.0,0.0,0.0,0.0,0.0,0.0,0.0,0.0,0.0,0.0,0.0,1.9276,1.9665,2.0167,2.0381,2.0048,2.1737,2.2244,2.0959,2.2283,2.2857,2.2273,2.177,2.1889,2.2716,2.2366,2.3146,2.5123,2.5065,2.5481,2.642,2.6904,2.6879,2.6445,2.6445,2.6438,2.6489,2.5878,2.6308,2.7331,2.6472,0.0,0.0,0.0,0.0,0.0,0.0,0.0,0.0,0.0,0.0,0.0,0.0,0.0,0.0,0.0,0.0,0.0,0.0,0.0,0.0,0.0,0.0,0.0,0.0,0.0,0.0,0.0,0.0,0.0,0.0,0.0,0.0,0.0,0.0,0.0,0.0,0.0,0.0,3.082,3.2668,0.0,0.0,0.0,0.0,3.3824,3.4716,3.5197,3.5236,3.6876,3.82,3.9073,4.0731,4.2371,4.3968,4.4122,4.4603,4.5411,4.5612,4.5674,4.5686,4.5755,4.5382,4.4634,4.4642,4.4156,4.3094,3.9744,3.8288,3.7909,3.5366,3.4369,3.4365,3.4365,3.3853,3.3147,0.0,0.0,0.0,0.0,0.0,0.0,0.0,0.0,1.9491,2.0005,1.9887,2.0148,2.1087,2.0887,2.0619,2.0533,2.132,2.1589,2.0927,2.2523,2.3197,2.2574,2.2954,2.2782,2.1977,2.2791,2.3272,2.349,2.5158,2.6175,2.6554,2.7418,2.7708,2.7519,2.7519,2.821,2.9174,2.7004,2.6781,2.7806,2.6762,2.624,0.0,0.0,0.0,0.0,0.0,0.0,0.0,0.0,0.0,0.0,0.0,0.0,0.0,0.0,0.0,0.0,0.0,0.0,0.0,0.0,0.0,0.0,0.0,0.0,0.0,0.0,0.0,0.0,0.0,0.0,0.0,0.0,0.0,0.0,0.0,0.0,0.0,3.5516,3.7391,0.0,3.4928,3.4884,3.5057,3.5103,3.6877,3.8163,3.868,4.1376,4.3288,4.4157,4.5271,4.5893,4.597,4.597,4.5855,4.5586,4.5651,4.5665,4.568,4.579,4.5669,4.5398,4.5454,4.5296,4.4926,4.374,4.2637,4.151,4.0086,3.9528,3.9529,3.9568,3.9387,3.9112,0.0,0.0,0.0,0.0,0.0,0.0,0.0,0.0,1.9421,1.975,1.9841,2.0225,2.1175,2.0925,2.0797,2.0895,2.1398,2.1618,2.1517,2.2969,2.3712,2.349,2.4204,2.3642,2.1586,2.2992,2.3791,2.3818,2.5466,2.67,2.7657,2.8363,2.8674,2.8674,2.8674,2.9595,3.0908,2.8966,2.8524,2.9157,2.7853,2.7186,2.6749,0.0,0.0,0.0,0.0,0.0,0.0,0.0,0.0,0.0,0.0,0.0,0.0,0.0,0.0,0.0,0.0,0.0,0.0,0.0,0.0,0.0,0.0,0.0,0.0,0.0,0.0,0.0,0.0,0.0,0.0,0.0,0.0,0.0,0.0,3.5611,3.7892,3.8927,4.0897,4.1346,3.9231,3.9259,3.9384,3.9376,4.1167,4.2499,4.304,4.5208,4.6701,4.7298,4.7817,4.7836,4.7317,4.7048,4.6759,4.6432,4.6163,4.6182,4.6432,4.6256,4.6162,4.6158,4.5912,4.5805,4.5805,4.5805,4.5168,4.4161,4.3746,4.3392,4.3142,4.324,4.3086,4.2832,0.0,0.0,0.0,0.0,0.0,0.0,0.0,1.9308,1.9129,1.8526,1.8965,1.9455,1.9644,2.0234,2.0771,2.1191,2.2051,2.2591,2.2687,2.367,2.443,2.4993,2.5358,2.4348,2.1758,2.3212,2.4752,2.6446,2.6073,2.7214,2.9792,2.9792,2.9792,2.9792,2.9869,3.0546,3.1654,3.1654,3.1703,3.1501,2.9844,2.899,2.8426,0.0,0.0,0.0,0.0,0.0,0.0,0.0,0.0,0.0,0.0,0.0,0.0,0.0,0.0,0.0,0.0,0.0,0.0,0.0,0.0,0.0,0.0,0.0,0.0,0.0,0.0,0.0,0.0,0.0,0.0,0.0,0.0,0.0,3.3105,3.9082,4.2737,4.0957,4.3044,4.4279,4.3435,4.4006,4.5149,4.6897,4.7692,4.8105,4.8144,4.8144,4.8144,4.8182,4.8182,4.8163,4.8144,4.7375,4.7355,4.8086,4.7317,4.7355,4.8067,4.7298,4.6932,4.6855,4.6009,4.5624,4.5586,4.5603,4.5677,4.5815,4.6027,4.5581,4.4864,4.4997,4.4492,4.3749,0.0,0.0,0.0,0.0,0.0,0.0,0.0,1.9803,2.0061,1.975,2.026,2.0768,2.0979,2.1292,2.1749,2.2224,2.2703,2.2925,2.3002,2.3738,2.4557,2.5397,2.4661,2.4277,2.4412,2.4916,2.5418,2.6017,2.6988,2.7873,2.8597,2.9443,2.9792,2.9869,3.0482,3.1383,3.2415,3.3691,3.4319,3.4278,3.1803,3.0024,2.8772,0.0,0.0,0.0,0.0,0.0,0.0,0.0,0.0,0.0,0.0,0.0,0.0,0.0,0.0,0.0,0.0,0.0,0.0,0.0,0.0,0.0,0.0,0.0,0.0,0.0,0.0,0.0,0.0,0.0,0.0,0.0,3.7323,4.0118,4.0333,4.2027,4.4007,4.6068,4.6939,4.7272,4.6931,4.7075,4.7366,4.7771,4.7988,4.8375,4.9009,4.9048,4.9336,4.9971,4.999,4.9683,4.9048,4.8817,4.8509,4.8105,4.7875,4.7894,4.8086,4.7875,4.7451,4.6894,4.6644,4.6182,4.5603,4.5708,4.5775,4.5803,4.5909,4.5865,4.5765,4.5896,4.5391,4.4726,0.0,0.0,0.0,0.0,0.0,0.0,0.0,2.0207,2.0342,1.9827,2.077,2.1268,2.0908,2.1838,2.2544,2.2626,2.3299,2.3599,2.334,2.4237,2.4905,2.512,2.5108,2.5204,2.5524,2.6033,2.6429,2.676,2.7702,2.8347,2.8858,2.9456,2.9998,3.0419,3.097,3.2136,3.3762,3.4801,3.5538,3.5938,3.4364,3.2692,3.1116,3.011,2.9878,2.9913,2.8879,2.9388,3.0316,2.8849,0.0,0.0,0.0,0.0,0.0,0.0,0.0,0.0,0.0,0.0,0.0,0.0,0.0,0.0,0.0,0.0,0.0,0.0,0.0,0.0,0.0,0.0,0.0,0.0,4.0974,4.4822,4.6601,4.6286,4.6752,4.9135,4.9412,4.9403,4.9299,4.9319,4.9269,4.9201,4.951,4.9779,4.9933,5.0606,5.0894,5.0702,5.1029,5.0798,4.9952,4.9586,4.9336,4.9183,4.8817,4.8836,4.9183,4.8817,4.8202,4.7394,4.7077,4.6452,4.5692,4.5796,4.588,4.5939,0.0,0.0,0.0,0.0,4.5976,4.5625,0.0,0.0,0.0,0.0,0.0,0.0,0.0,2.0576,2.0324,1.9411,2.0827,2.1412,2.0109,2.19,2.3081,2.2797,2.3741,2.4254,2.3785,2.4852,2.526,2.4805,2.6258,2.6711,2.597,2.7059,2.7801,2.8267,2.8267,2.8767,2.9792,2.9934,3.0419,3.118,3.1509,3.2989,3.5254,3.557,3.6242,3.7069,3.7206,3.62,3.4316,3.2298,3.2064,3.2542,3.0392,3.0873,3.2413,3.1507,0.0,0.0,0.0,0.0,0.0,0.0,0.0,0.0,0.0,0.0,0.0,0.0,0.0,0.0,0.0,0.0,0.0,0.0,0.0,0.0,0.0,0.0,0.0,0.0,4.3898,4.7646,5.151,5.0868,5.0204,5.0779,5.0837,5.0837,5.0837,5.0837,5.0875,5.0971,5.1548,5.1683,5.1144,5.2356,0.0,0.0,0.0,5.1568,5.0837,4.9971,4.9933,5.0683,4.9913,4.9952,5.0664,4.9913,4.9027,4.8102,4.7463,4.6655,4.5828,4.5891,4.5995,4.6117,4.6117,4.6117,4.6144,4.6268,4.6308,4.6308,0.0,0.0,0.0,0.0,0.0,0.0,0.0,2.1106,2.1127,1.9933,2.1525,2.2158,2.0607,2.1756,2.3152,2.423,2.4052,2.4099,2.4786,2.4733,2.5236,2.6463,2.6963,2.7583,2.8263,2.8946,2.9344,2.9456,2.9456,2.9611,2.9792,3.0558,3.1044,3.1315,3.3445,3.472,3.5398,3.8034,3.8877,3.8581,3.9834,3.8372,3.5459,3.5491,3.5169,3.4746,3.472,3.4929,3.5016,3.3563,3.4162,3.5094,3.2748,3.2112,0.0,0.0,0.0,0.0,0.0,0.0,0.0,0.0,0.0,0.0,0.0,0.0,0.0,0.0,0.0,0.0,0.0,0.0,0.0,4.221,4.7151,5.1222,5.2722,5.2704,5.23,5.1722,5.1683,5.1683,5.1683,5.1683,5.1972,5.2664,5.2222,5.2452,5.3703,5.2741,5.2645,5.3722,5.2549,5.1837,5.1683,5.0856,5.0529,5.0702,5.0529,0.0,5.0702,5.0632,4.9745,4.8256,4.8227,4.732,4.5891,4.6021,4.6144,4.6268,4.6268,4.6268,4.6268,4.6289,4.6308,4.6308,0.0,0.0,0.0,0.0,0.0,0.0,0.0,2.1785,2.1525,2.076,2.159,2.1918,2.0979,2.2115,2.3145,2.3728,2.3772,2.4247,2.542,2.567,2.6301,2.748,2.7908,2.8499,2.934,2.9641,2.9792,2.9792,2.9792,3.0075,3.0482,3.097,3.192,3.3267,3.4994,3.644,3.7777,3.9406,4.0105,4.011,4.0474,3.9748,3.834,3.8242,3.7845,3.7453,3.772,3.7729,3.7406,3.6381,3.6367,3.6425,3.4501,3.4114,3.3844,0.0,0.0,0.0,0.0,0.0,0.0,0.0,0.0,0.0,0.0,0.0,0.0,0.0,0.0,3.4828,3.6547,0.0,4.3759,4.5907,5.0152,5.3491,5.4337,5.4453,5.3972,5.2702,5.2549,5.2549,5.2549,5.2549,5.2741,5.3164,5.3203,5.3395,5.3837,5.3818,5.3626,5.3222,5.2779,5.2145,5.1318,5.0894,5.0702,5.0702,5.0702,5.074,5.0789,5.0422,4.9808,4.9035,4.8736,4.7866,4.6632,4.6323,4.65,4.6914,4.6465,4.6308,4.6308,4.6308,4.6308,4.6308,0.0,0.0,0.0,0.0,0.0,0.0,0.0,2.2446,2.1872,2.1453,2.1665,2.1673,2.1248,2.2405,2.3139,2.2813,2.359,2.4571,2.5727,2.6593,2.7417,2.8233,2.88,2.9315,2.9779,2.9792,2.9792,2.9792,2.9998,3.0482,3.118,3.1715,3.3185,3.5464,3.6572,3.8241,4.0315,4.063,4.0946,4.117,4.0696,4.069,4.0932,4.0224,3.9919,3.9896,3.9959,3.9388,3.8621,3.8754,3.8019,3.6915,3.6237,3.6378,3.6083,3.2482,3.2964,0.0,0.0,0.0,0.0,0.0,0.0,0.0,0.0,3.541,3.6289,3.9468,3.9497,3.9701,4.2103,4.4665,4.7143,4.9379,5.2597,5.5037,5.5652,5.5748,5.5227,5.3837,5.3549,5.3453,5.3453,5.3453,5.353,5.3664,5.4184,5.426,5.3703,5.4818,5.4608,5.2743,5.3184,5.2819,5.149,5.1126,5.0952,5.0971,5.0797,5.0805,5.0907,5.0061,4.9737,4.9804,4.9064,4.8232,4.7396,4.6795,4.707,4.7773,4.6894,4.6543,4.6523,4.6367,4.6308,4.6308,0.0,0.0,0.0,0.0,0.0,0.0,0.0,0.0,2.25,2.152,2.2394,2.2611,2.1339,2.2323,2.3053,2.3155,2.4364,2.5272,2.5529,2.6648,2.7766,2.8787,2.939,2.9729,2.9792,2.9792,2.9792,2.9792,3.062,3.1106,3.1241,3.365,3.5228,3.6255,3.8642,4.0188,4.1163,4.2462,4.2297,4.1255,4.1813,4.1596,4.088,4.0604,4.0793,4.1215,4.1348,3.9399,3.7106,3.92,3.8389,3.6772,3.8421,3.9065,3.8339,3.3914,3.2823,3.2239,2.8529,2.9027,3.0936,3.242,3.4061,3.5978,0.0,3.902,3.9565,4.1512,4.1836,4.2309,4.4142,4.7147,4.968,5.0741,5.3783,5.5968,5.5888,5.5874,5.5766,5.5476,5.478,5.4357,5.4357,5.4357,5.4645,5.5376,5.4857,5.4761,5.5395,5.4914,5.4882,5.5429,5.4728,5.4323,5.4262,5.2588,5.1836,5.1943,5.1227,5.0959,5.1054,5.0302,4.9951,4.9947,4.9192,4.8378,4.7578,4.748,4.7969,4.8672,4.7793,4.7441,4.7363,4.6582,4.6308,4.6308,0.0,0.0,0.0,0.0,0.0,0.0,0.0,0.0,0.0,2.1763,2.1651,2.1638,2.1552,2.2131,2.2811,2.3488,2.3638,2.4326,2.5869,2.6775,2.7921,2.9365,2.9666,2.9792,2.9792,2.9792,3.0075,3.062,3.1044,3.1979,3.3582,3.4655,3.635,3.8615,4.042,4.1724,4.2529,4.3079,4.298,4.2294,4.1711,4.1383,4.1197,4.1297,4.0778,3.9976,3.9765,3.8552,0.0,3.799,3.756,3.7026,3.8974,3.8896,3.7597,3.5051,3.4054,3.3779,3.3802,3.3968,3.4575,3.6404,3.855,4.0511,4.1675,4.2713,4.4087,4.6371,4.7576,4.8574,4.9804,5.1527,5.3045,5.393,5.5268,5.6169,5.6078,5.6078,5.5863,5.5292,5.5389,5.5439,5.5323,5.5323,5.5458,5.5806,5.5421,5.5338,5.5684,5.5461,5.5281,5.5207,5.4905,5.427,5.33,5.2524,5.1923,5.1501,5.1171,5.1064,5.1135,5.0347,4.9774,4.9348,4.9022,4.8691,4.8281,4.7266,4.7363,4.8066,4.7187,4.6836,4.6855,4.6992,4.6738,4.6308,0.0,0.0,0.0,0.0,0.0,0.0,0.0,0.0,0.0,0.0,2.129,2.1454,2.2145,2.2428,2.2791,2.3393,2.314,2.3735,2.5592,2.6524,2.7748,2.9465,2.9704,2.9792,2.9792,3.0075,3.0482,3.118,3.192,3.3322,3.5175,3.592,3.7689,4.0363,4.1594,4.2655,4.358,4.3499,4.3345,4.3032,4.1673,4.1138,4.1144,4.0714,3.9579,3.8221,3.8118,3.7064,3.5739,3.5788,3.535,3.5164,3.7229,3.7164,3.601,3.4522,3.3557,3.3654,3.6572,3.7235,3.7698,4.0226,4.2602,4.4599,4.5538,4.6729,4.8393,5.1054,5.2298,5.3256,5.4365,5.4819,5.5307,5.6176,5.6313,5.6207,5.5939,5.5891,5.557,5.4644,5.5132,5.5579,5.5657,5.5617,5.5575,5.5575,5.5479,5.5422,5.5422,5.5775,5.5719,5.5204,5.4991,5.4305,5.3076,5.2553,5.2028,5.149,5.1237,5.118,5.1246,5.066,4.9717,4.8574,4.9043,4.8984,4.8437,4.7187,4.7168,4.7871,4.6992,4.666,4.6738,4.7363,4.7051,4.6308,0.0,0.0,0.0,0.0,0.0,0.0,0.0,0.0,0.0,0.0,0.0,0.0,0.0,2.3389,2.3208,2.2601,2.3474,2.4103,2.424,2.5583,2.7142,2.8825,2.949,2.9792,2.9792,3.0696,3.118,3.118,3.3786,3.5111,3.5239,3.7662,3.9545,4.0899,4.1724,4.2788,4.3966,4.3976,4.358,4.282,4.2025,4.1228,4.0364,3.805,3.6793,3.6392,3.7233,3.4831,3.1475,3.2627,3.1478,2.9965,3.2506,3.3886,3.4062,3.1506,3.0047,3.0034,3.3576,3.5787,3.8121,4.2412,4.4858,4.709,5.041,5.1191,5.1973,5.4609,5.4512,5.4472,5.6191,5.584,5.5566,5.6445,5.6582,5.6245,5.5265,5.5137,5.4755,5.3759,5.3771,5.4195,5.5034,5.4891,5.4739,5.4739,5.4723,5.4723,5.4723,5.5663,5.6242,5.6341,5.5413,5.4946,5.502,5.3213,5.2347,5.2459,5.1606,5.1268,5.1386,5.1367,5.0,4.7734,4.9433,4.9199,4.7637,4.7578,4.8066,4.8769,4.7891,4.7558,4.7558,4.7598,4.7051,4.6308,0.0,0.0,0.0,0.0,0.0,0.0,0.0,0.0,0.0,0.0,0.0,0.0,0.0,0.0,0.0,0.0,2.2228,2.2211,2.2972,2.4393,2.58,2.7091,2.8469,2.9504,3.0164,3.0861,3.2051,3.384,3.4786,3.623,3.8248,3.9116,4.0474,4.2271,4.2987,4.3553,4.3986,4.3929,4.3872,4.3643,4.1759,4.1225,4.1202,3.7778,3.558,3.411,0.0,3.0801,2.9535,2.9316,2.9574,3.0227,3.1701,3.2057,3.1506,2.9428,3.0211,3.2404,3.539,3.8322,4.1322,4.4585,4.7558,4.998,5.1133,5.2734,5.3906,5.3633,5.2381,5.1183,5.0656,5.0793,5.1086,5.1379,5.3846,5.5429,5.4507,5.4876,5.4677,5.3178,5.3542,5.3822,5.3548,5.4384,5.4938,5.4852,5.4828,5.4543,5.3871,5.4334,5.4619,5.4669,5.4439,5.4044,5.3509,5.2872,5.2306,5.1771,5.1478,5.1365,5.1406,5.1406,5.0644,4.9336,4.9336,4.8672,4.7558,4.6973,4.6914,4.7148,4.6855,4.6738,4.6738,4.6738,4.6543,4.6308,0.0,0.0,0.0,0.0,0.0,0.0,0.0,0.0,0.0,0.0,0.0,0.0,0.0,0.0,0.0,0.0,0.0,2.1547,2.2065,2.3103,2.4224,2.531,2.6722,2.7709,2.8353,2.9128,3.0306,3.2105,3.3772,3.5649,3.7644,3.9032,4.0471,4.1955,4.2495,4.2899,4.3141,4.3213,4.2797,4.1973,4.0077,3.9236,3.8723,3.5265,3.3045,0.0,2.8837,2.7671,2.7296,2.6726,2.7424,2.8666,2.9599,2.9763,2.9659,2.9728,3.1341,3.3954,3.7887,4.0824,4.3486,4.6484,4.9121,5.1211,5.2129,5.3398,5.4141,5.332,5.0992,4.8772,4.7698,4.6928,4.6546,4.6858,4.926,5.1223,5.1618,5.2166,5.2557,5.2695,5.3183,5.3437,5.3183,5.4063,5.445,5.3993,5.393,5.3637,5.3042,5.3502,5.3826,5.3861,5.3649,5.3262,5.2715,5.2383,5.1953,5.1406,5.1406,5.1406,5.1387,5.1094,5.0527,4.9687,4.8808,4.7949,4.709,4.6523,4.6308,4.6308,4.6308,4.6308,4.6308,4.6308,4.6308,4.6308,0.0,0.0,0.0,0.0,0.0,0.0,0.0,0.0,0.0,0.0,0.0,0.0,0.0,0.0,0.0,0.0,0.0,0.0,2.1546,2.1748,2.2415,2.3548,2.4415,2.485,2.4894,2.5986,2.6623,2.6768,3.1298,3.3572,3.3794,3.74,3.9381,3.9895,4.0233,4.0714,4.1269,4.1487,4.023,3.7964,3.7122,3.5573,3.3505,3.0856,2.9433,2.8637,2.6914,2.5648,2.4799,2.4924,2.5195,2.5658,2.6727,2.7642,2.8954,3.2316,3.3425,3.4858,4.0766,4.3108,4.4694,4.8105,4.9648,5.0957,5.3379,5.3281,5.2871,5.3515,5.0188,4.7087,4.6908,4.4222,4.2331,4.3214,4.3668,4.4787,4.7344,4.7737,4.8975,5.2246,5.2676,5.3027,5.3848,5.3849,5.3397,5.2436,5.2214,5.2182,5.23,5.3176,5.3728,5.3867,5.3066,5.2637,5.2637,5.1777,5.1328,5.1269,5.1328,5.1328,5.125,5.0527,4.9726,4.8848,4.7969,4.7129,4.6347,4.6308,4.6289,4.6289,4.6289,4.6289,4.6289,4.6289,4.6289,4.6289,0.0,0.0,0.0,0.0,0.0,0.0,0.0,0.0,0.0,0.0,0.0,0.0,0.0,0.0,0.0,0.0,0.0,0.0,2.0474,2.1206,2.183,2.2119,2.4169,2.5633,2.6349,2.7717,2.9042,3.0359,3.1625,3.2744,3.3734,3.4697,3.5405,3.5875,3.5967,3.6094,3.6239,3.6304,3.6117,3.5618,3.4158,3.4163,3.4612,3.0761,2.9401,2.9251,2.7082,2.5557,2.4575,2.462,2.6012,2.8412,3.2124,3.3471,3.3964,3.5606,3.7912,4.0446,4.2653,4.5364,4.7929,4.9472,5.0976,5.2226,5.2871,5.2851,5.1971,4.9387,4.539,4.1494,3.8701,3.9209,4.0318,4.1202,4.5874,4.9625,5.0311,5.0956,5.1464,5.1699,5.2305,5.2793,5.3008,5.342,5.3545,5.3292,5.2638,5.2269,5.229,5.2019,5.1913,5.2051,5.1855,5.1738,5.1738,5.0918,5.0176,4.9551,5.0195,5.0176,4.9551,4.989,4.9639,4.8847,4.7879,4.7322,4.7065,4.642,4.6084,4.5995,4.5995,4.5995,4.5995,4.5995,4.5995,4.5995,0.0,0.0,0.0,0.0,0.0,0.0,0.0,0.0,0.0,0.0,0.0,0.0,0.0,0.0,0.0,0.0,0.0,0.0,0.0,2.1087,2.1528,2.1891,2.3025,2.4066,2.4988,2.5911,2.669,2.7324,2.9063,3.0086,3.0484,3.2158,3.3086,3.3354,3.3508,3.3577,3.3568,3.3691,3.32,0.0,0.0,3.1445,3.1858,2.9071,2.8298,2.8507,2.6983,2.6409,2.6616,2.8121,2.9984,3.2205,3.5223,3.6442,3.7136,3.8878,4.1042,4.3225,4.4894,4.7361,4.959,5.0078,5.1131,5.1631,5.0068,4.9641,4.8435,4.4382,4.0665,3.7382,3.4889,3.5809,3.7123,3.7618,4.2493,4.6766,4.8336,4.9294,5.0525,5.2324,5.2969,5.3418,5.3808,5.4094,5.4251,5.427,5.333,5.2644,5.2329,5.196,5.1655,5.1406,5.1406,5.1406,5.1406,5.0957,5.0293,4.9473,4.9919,4.966,4.8819,4.8777,4.8552,4.8092,4.7156,4.6748,4.6709,4.6216,4.5974,4.5899,4.5899,4.5899,4.5899,4.5899,4.5899,4.5899,0.0,0.0,0.0,0.0,0.0,0.0,0.0,0.0,0.0,0.0,2.177,2.2072,0.0,0.0,0.0,0.0,0.0,0.0,0.0,0.0,2.1642,2.2343,2.1928,2.2038,2.2795,2.3118,2.2906,2.2197,2.559,2.687,2.6256,2.9557,3.1088,3.1084,3.1359,3.1488,3.1527,3.1884,3.0757,2.8777,2.8894,2.8592,2.7967,0.0,0.0,2.7358,2.6696,2.7504,2.9475,3.2882,3.4879,3.6135,3.7492,3.8494,3.9652,4.2096,4.3439,4.4657,4.7109,4.8965,5.0215,5.0312,5.0688,5.0108,4.6518,4.5398,4.3809,3.9204,3.6305,3.4289,3.328,3.344,3.3947,3.4554,3.7622,4.1267,4.5079,4.6256,4.8508,5.3261,5.3828,5.418,5.5039,5.5004,5.4933,5.4923,5.4021,5.3171,5.2524,5.2396,5.203,5.1386,5.1366,5.1307,5.1188,5.1071,5.0602,4.9802,4.9677,4.9167,4.8304,4.7537,4.7125,4.6978,4.6221,4.59,4.59,4.59,4.5881,4.5852,4.5852,4.5852,4.5852,4.5852,4.5852,4.5852,0.0,0.0,0.0,0.0,0.0,0.0,0.0,0.0,0.0,0.0,2.1564,2.2027,0.0,0.0,0.0,0.0,0.0,0.0,0.0,0.0,0.0,2.2719,2.3361,2.3763,2.3918,2.4715,2.5037,2.4842,2.5566,2.5798,2.5571,2.6054,2.6281,2.6218,2.6169,2.6207,2.635,2.7123,2.7287,2.7103,2.7817,2.8415,2.886,0.0,0.0,0.0,2.6263,2.7339,3.0151,3.3576,3.5967,3.8175,4.1981,4.3458,4.3981,4.5117,4.6139,4.7167,4.8359,4.9414,5.0331,5.0894,5.061,4.924,4.5515,4.3548,4.0983,3.5494,3.3436,3.2043,3.0155,3.126,3.3657,3.7429,4.0073,4.3459,4.8553,4.9413,5.0351,5.2656,5.293,5.3262,5.4141,5.4099,5.4025,5.4025,5.3845,5.3676,5.3553,5.2211,5.1377,5.1242,5.1238,5.0859,5.0096,4.9364,4.8565,4.7727,4.77,4.7225,4.6399,4.6899,4.6763,4.6113,4.5906,4.5828,4.5828,4.5828,4.5756,4.5645,4.5645,4.5645,4.5645,4.5645,4.5645,4.5645,0.0,0.0,0.0,0.0,0.0,0.0,0.0,2.0214,1.9817,1.9974,2.1178,2.1597,2.0438,2.2177,2.2735,0.0,0.0,0.0,0.0,0.0,0.0,0.0,0.0,0.0,2.4863,2.532,2.531,2.4824,0.0,2.5195,2.4626,2.4908,2.5213,2.5489,2.5021,2.5073,2.5541,2.6085,2.6364,2.6531,2.7522,2.8326,0.0,0.0,0.0,0.0,0.0,2.6674,2.946,3.1429,3.469,3.8749,4.3653,4.5279,4.5508,4.5878,4.6975,4.8152,4.8582,4.9655,5.0645,5.0491,5.0127,4.8224,4.2226,4.0191,3.782,3.1732,3.0151,2.9546,2.8552,3.0752,3.3296,3.5072,3.9111,4.3266,4.6736,4.8552,5.0312,5.2441,5.2695,5.3047,5.3926,5.3941,5.3893,5.3893,5.3483,5.3198,5.3128,5.1906,5.1205,5.1206,5.0738,5.026,4.979,4.8943,4.8068,4.7202,4.7164,4.6685,4.5847,4.6181,4.6119,4.5744,4.5718,4.5692,4.5692,4.5692,4.5648,4.5586,4.5586,4.5586,4.5586,4.5586,4.5586,4.5586,0.0,0.0,0.0,0.0,0.0,0.0,2.0331,1.9987,1.9745,1.9782,2.0474,2.0781,2.0361,2.1636,2.1985,0.0,0.0,0.0,0.0,0.0,0.0,0.0,0.0,0.0,0.0,0.0,0.0,2.4395,2.5032,0.0,0.0,0.0,0.0,0.0,2.5402,2.5552,2.6204,2.654,2.6716,0.0,0.0,2.8479,0.0,0.0,0.0,0.0,0.0,2.5949,2.8081,2.9139,3.2566,3.7194,4.1952,4.4044,4.4733,4.4725,4.5959,4.7505,4.8292,4.9635,5.0646,4.9936,4.9535,4.7212,3.9131,3.7067,3.5094,2.883,2.753,2.764,2.7989,3.0446,3.2372,3.2359,3.6775,4.1162,4.3863,4.6449,4.9121,5.207,5.2422,5.2754,5.3633,5.3555,5.3437,5.3437,5.2772,5.2324,5.2228,5.1574,5.1191,5.1135,5.0237,4.975,4.9718,4.8688,4.7814,4.7123,4.6888,4.6413,4.5761,4.5651,4.5586,4.5586,4.5586,4.5586,4.5586,4.5586,4.5586,4.5586,4.5586,4.5586,4.5586,4.5586,4.5586,4.5586,0.0,0.0,0.0,0.0,0.0,0.0,1.8805,1.8829,1.8952,1.9077,1.9177,1.9502,2.0211,2.1097,2.1562,0.0,0.0,0.0,0.0,0.0,0.0,0.0,0.0,0.0,0.0,0.0,0.0,2.5011,2.5081,0.0,0.0,0.0,0.0,0.0,0.0,2.6576,2.686,2.7625,0.0,0.0,0.0,0.0,0.0,0.0,0.0,0.0,0.0,2.5461,2.6076,2.8633,3.034,3.1902,3.4944,3.8257,4.0975,4.0919,4.2191,4.4307,4.7602,4.9196,4.9868,4.966,4.9005,4.6293,3.8171,3.5704,3.3545,2.7888,2.6722,2.7163,2.8631,2.9154,3.0222,3.2784,3.3899,3.6559,4.2572,4.4477,4.6827,5.1015,5.1523,5.1855,5.2734,5.2109,5.1641,5.1641,5.145,5.1332,5.1316,5.1249,5.1113,5.0926,5.0079,4.9552,4.9449,4.785,4.7022,4.6926,4.6119,4.5697,4.562,4.5603,4.5586,4.5586,4.5586,4.5586,4.5586,4.5586,4.5586,4.5586,4.5586,4.5586,4.5586,4.5586,4.5586,4.5586,0.0,0.0,0.0,0.0,0.0,0.0,1.9446,1.9573,1.9898,2.0427,2.0504,2.0858,2.1765,2.2152,2.1933,2.0931,0.0,0.0,0.0,0.0,0.0,0.0,0.0,0.0,0.0,0.0,2.5356,2.5101,2.5058,0.0,0.0,0.0,0.0,0.0,0.0,2.6914,2.7479,2.7901,0.0,0.0,0.0,0.0,0.0,0.0,0.0,0.0,0.0,0.0,2.4853,2.593,2.7606,2.9158,2.8634,3.0953,3.4718,3.9026,4.1158,4.3023,4.7144,4.8508,4.8763,4.8723,4.6422,4.2785,3.7357,3.4188,3.141,2.8009,2.7714,2.8223,2.8865,2.9402,2.9941,3.0605,3.1825,3.3987,3.7765,3.9616,4.2447,4.7543,4.8072,4.902,5.1545,5.1559,5.1366,5.1294,5.1199,5.1092,5.1014,5.0508,5.02,5.0129,4.8717,4.7945,4.7894,4.6701,4.6124,4.6105,4.5759,4.5586,4.5586,4.5586,4.5586,4.5586,4.5586,4.5586,4.5586,4.5586,4.5586,4.5586,4.5586,4.5586,4.5586,4.5586,4.5586,4.5586,0.0,0.0,0.0,0.0,0.0,1.9815,1.9669,2.0007,2.0408,2.0716,2.0989,2.1492,2.2441,2.2549,2.2173,2.1285,2.2269,0.0,0.0,0.0,0.0,0.0,0.0,0.0,0.0,0.0,2.526,2.5007,2.4948,2.5167,0.0,0.0,2.639,2.7769,0.0,0.0,0.0,0.0,0.0,0.0,0.0,0.0,0.0,0.0,0.0,0.0,0.0,0.0,0.0,0.0,0.0,2.6749,2.4819,2.593,2.912,3.5248,3.8403,4.0826,4.4997,4.6934,4.7759,4.7759,4.4594,4.0501,3.6616,3.3128,3.0071,2.7893,2.8099,2.8723,2.8957,2.9861,3.0283,2.9494,3.0816,3.2616,3.4576,3.604,3.8648,4.3345,4.4047,4.5579,4.9259,5.0432,5.0825,5.0438,5.0315,5.0227,5.0148,4.9296,4.9019,4.9521,4.8041,4.7144,4.6913,4.6028,4.5586,4.5586,4.5586,4.5586,4.5586,4.5586,4.5586,4.5586,4.5586,4.5586,4.5586,4.5586,4.5586,4.5586,4.5586,4.5586,4.5586,4.5586,4.5586,4.5586,0.0,0.0,0.0,0.0,0.0,0.0,1.8926,1.9662,1.9985,1.9146,1.978,2.0671,2.1617,2.1702,2.2088,2.2988,2.304,0.0,0.0,0.0,0.0,0.0,0.0,0.0,0.0,0.0,2.5207,2.4804,2.4804,2.5022,2.5403,2.5403,2.6266,2.7787,0.0,0.0,0.0,0.0,0.0,0.0,0.0,0.0,0.0,0.0,0.0,0.0,0.0,0.0,0.0,0.0,0.0,0.0,0.0,2.4226,2.4966,2.8559,3.2713,3.6939,4.0596,4.4191,4.6913,4.6913,4.4191,4.0348,3.5912,3.2732,2.9922,2.7175,2.7255,2.8062,2.8847,3.032,3.1109,3.032,3.1094,3.2433,3.4245,3.4824,3.6001,3.8675,3.9724,4.1723,4.5481,4.8387,4.9605,4.8591,4.841,4.8327,4.8327,4.7455,4.7682,4.9336,4.8548,4.7721,4.6913,4.6028,4.5586,4.5586,4.5586,4.5586,4.5586,4.5586,4.5586,4.5586,4.5586,4.5586,4.5586,4.5586,4.5586,4.5586,4.5586,4.5586,4.5586,4.5586,4.5586,4.5586,0.0,0.0,0.0,0.0,0.0,0.0,1.9843,2.0096,2.0412,2.0746,2.103,2.156,2.2552,2.3109,2.3554,2.3897,2.3906,0.0,0.0,0.0,0.0,0.0,0.0,0.0,0.0,2.5014,2.4955,2.4591,2.5155,2.541,2.5421,2.6542,2.731,2.7824,2.8374,2.8778,0.0,0.0,0.0,0.0,0.0,0.0,0.0,0.0,0.0,0.0,0.0,0.0,0.0,0.0,0.0,0.0,0.0,0.0,0.0,2.5559,2.8577,3.2506,3.673,3.827,3.8822,3.9432,3.6825,3.362,3.1657,2.9922,2.831,2.6891,2.8117,2.9696,3.0485,3.1054,3.1127,3.0338,3.0465,3.058,3.0188,3.2693,3.5894,3.9358,4.3834,4.7357,4.9244,4.9615,4.9843,5.0112,4.9463,4.9041,4.9041,4.82,4.7721,4.7702,4.6855,4.6259,4.6009,4.574,4.5586,4.5586,4.5586,4.5586,4.5586,4.5586,4.5586,4.5586,4.5586,4.5586,4.5586,4.5586,4.5586,4.5586,4.5586,4.5586,4.5586,4.5586,4.5586,4.5586,0.0,0.0,0.0,0.0,0.0,0.0,2.0277,2.0304,2.0481,2.1036,2.1152,2.1547,2.2467,2.3301,2.3916,2.4277,2.455,0.0,0.0,0.0,0.0,0.0,0.0,0.0,2.4992,2.4943,2.478,2.4495,2.5316,2.567,2.5655,2.6658,2.7373,2.7858,2.8179,2.8481,0.0,0.0,0.0,0.0,0.0,0.0,2.419,0.0,0.0,0.0,0.0,0.0,0.0,0.0,0.0,0.0,0.0,0.0,0.0,0.0,2.5763,2.839,3.2543,3.4282,3.5039,3.5571,3.3185,3.0488,2.9683,2.8381,2.7126,2.63,2.7824,2.9439,2.9934,3.0779,3.1127,3.0338,3.0448,3.0604,3.0495,3.2748,3.5819,3.9604,4.4771,4.813,4.8385,4.9141,4.9659,4.9834,4.8985,4.8452,4.8452,4.7625,4.6932,4.6432,4.6201,4.5932,4.5586,4.5586,4.5586,4.5586,4.5586,4.5586,4.5586,4.5586,4.5586,4.5586,4.5586,4.5586,0.0,4.5586,4.5586,4.5586,4.5586,4.5586,4.5586,4.5586,4.5586,4.5586,0.0,0.0,0.0,0.0,0.0,0.0,0.0,2.0302,2.0299,2.0305,2.0429,2.0773,2.1523,2.2447,2.3293,2.4038,2.4833,0.0,0.0,0.0,0.0,0.0,0.0,0.0,2.479,2.4775,2.4685,2.4478,2.5317,2.579,2.5919,2.6075,2.6726,2.7791,2.743,2.7655,2.8222,0.0,0.0,0.0,0.0,0.0,0.0,0.0,0.0,0.0,0.0,0.0,0.0,0.0,0.0,0.0,0.0,0.0,0.0,0.0,0.0,0.0,0.0,3.1581,3.413,3.413,3.226,3.0206,2.9383,2.7934,0.0,2.5658,2.6759,2.786,2.7805,2.9732,3.1017,3.0173,3.0742,3.2016,3.3933,3.4723,3.6384,3.988,4.3499,4.5329,4.4384,4.7497,4.9212,4.8259,4.7451,4.6971,4.6913,4.6067,4.5586,4.5586,4.6394,4.6413,4.5605,4.5586,4.5586,4.5586,4.5586,4.5586,4.5586,4.5586,4.5586,4.5586,4.5586,4.5586,4.5586,4.5586,4.5586,4.5586,4.5586,4.5586,4.5586,4.5586,4.5586,4.5586,0.0,0.0,0.0,0.0,0.0,0.0,0.0,0.0,0.0,0.0,2.0438,2.0527,2.0752,2.1473,2.2025,0.0,0.0,0.0,0.0,0.0,0.0,0.0,0.0,0.0,2.4575,2.4559,2.4478,2.4266,2.5385,2.5642,2.5121,2.671,2.728,2.7002,2.752,2.7638,2.7428,2.6849,0.0,0.0,0.0,0.0,0.0,0.0,0.0,0.0,2.419,2.419,0.0,0.0,0.0,0.0,0.0,0.0,0.0,0.0,2.419,2.4374,2.5226,0.0,2.6711,2.6711,2.7133,2.7348,0.0,2.7451,2.8022,2.6612,0.0,0.0,2.7915,2.9274,3.0026,2.8594,2.9549,3.0964,3.2294,3.7825,4.2621,4.494,4.7145,4.8124,4.7223,4.8546,4.9335,4.9106,4.8298,4.7548,4.6932,4.6067,4.5586,4.5586,4.5797,4.5797,4.5586,4.5586,4.5586,4.5586,4.5586,4.5586,4.5586,4.5586,4.5586,4.5586,4.5586,4.5586,4.5586,4.5586,4.5586,4.5586,4.5586,4.5586,4.5586,4.5586,4.5586,4.5586,0.0,0.0,0.0,0.0,0.0,0.0,0.0,0.0,0.0,0.0,2.0428,2.0402,2.0402,2.1113,2.1552,0.0,0.0,0.0,0.0,0.0,0.0,0.0,0.0,2.4092,2.4357,2.4357,2.4229,2.3976,2.5326,2.5631,2.4933,2.6764,2.729,2.6727,2.7151,2.7308,2.7139,2.6374,2.5786,0.0,2.452,0.0,0.0,0.0,0.0,0.0,2.419,2.419,0.0,2.4016,2.4074,2.417,0.0,0.0,0.0,0.0,2.419,2.419,2.419,2.419,2.419,2.419,2.5126,2.5841,2.5016,2.6153,2.6998,2.575,0.0,2.7328,2.7255,2.8264,2.8925,2.8429,3.0175,3.237,3.4649,3.8741,4.2659,4.5745,4.6916,4.7799,4.8625,4.9125,4.9221,4.8836,4.8029,4.7355,4.6932,4.6067,4.5586,4.5586,4.5586,4.5586,4.5586,4.5586,4.5586,4.5586,4.5586,4.5586,4.5586,4.5586,4.5586,4.5586,4.5586,4.5586,4.5586,4.5586,4.5586,4.5586,4.5586,4.5586,4.5586,4.5586,4.5586,4.5586,0.0,0.0,0.0,0.0,0.0,0.0,0.0,0.0,0.0,0.0,0.0,0.0,0.0,0.0,0.0,0.0,0.0,0.0,0.0,0.0,0.0,0.0,2.4296,2.4245,2.419,2.4151,2.403,2.3873,2.5195,2.5596,2.5213,2.6584,2.6967,2.6521,2.6481,2.6535,2.6637,2.5703,2.525,2.5086,2.4446,0.0,0.0,0.0,0.0,0.0,0.0,0.0,0.0,2.3795,2.3896,2.4074,2.3795,0.0,0.0,0.0,0.0,0.0,2.419,2.4557,2.4814,2.4318,2.4795,2.5219,2.4538,2.4997,2.5346,2.4538,2.5107,2.5897,2.6337,2.7273,2.8172,2.8741,3.1597,3.4958,3.8469,3.9423,4.1144,4.4824,4.5495,4.6531,4.8798,4.9125,4.8836,4.799,4.7298,4.6836,4.6721,4.599,4.5586,4.5586,4.5586,4.5586,4.5586,4.5586,4.5586,4.5586,4.5586,4.5586,4.5586,4.5586,4.5586,4.5586,4.5586,4.5586,4.5586,4.5586,4.5586,4.5586,4.5586,4.5586,4.5586,4.5586,4.5586,4.5586,0.0,0.0,0.0,0.0,0.0,0.0,0.0,0.0,0.0,0.0,0.0,0.0,0.0,0.0,0.0,0.0,0.0,0.0,0.0,0.0,0.0,2.3821,2.3436,2.3529,2.419,2.3917,2.4057,2.4635,2.4971,2.542,2.5932,2.6497,2.6419,2.5776,2.5466,2.5,2.4427,2.4813,2.457,2.3958,2.4149,0.0,0.0,0.0,0.0,0.0,0.0,0.0,0.0,2.3714,2.3735,2.3774,2.3714,0.0,0.0,0.0,0.0,0.0,2.419,2.619,2.7622,2.4887,2.4795,2.5384,2.5256,2.5841,2.619,2.5384,2.6392,2.7034,2.5825,2.7346,2.8631,2.8062,3.2637,3.7258,4.014,4.319,4.522,4.5513,4.678,4.7549,4.7317,4.7894,4.7971,4.7163,4.6971,4.6586,4.5836,4.5663,4.5586,4.5586,4.5586,4.5586,4.5586,4.5586,4.5586,4.5586,4.5586,4.5586,4.5586,4.5586,4.5586,4.5586,4.5586,4.5586,4.5586,4.5586,4.5586,4.5586,4.5586,4.5586,4.5586,4.5586,4.5586,4.5586,0.0,0.0,0.0,0.0,0.0,0.0,0.0,0.0,0.0,0.0,0.0,0.0,0.0,0.0,0.0,0.0,0.0,0.0,0.0,0.0,2.3015,2.332,2.3353,2.3474,2.3671,2.3889,2.4117,2.431,2.5153,2.5476,2.5248,2.5809,2.593,2.5575,2.5205,2.4618,2.389,2.3956,2.3867,2.3714,0.0,0.0,0.0,0.0,0.0,0.0,0.0,0.0,0.0,0.0,2.3392,2.3671,2.35,0.0,0.0,0.0,0.0,0.0,2.419,2.5273,2.6355,2.619,2.7383,2.8521,2.8081,2.7952,2.7805,2.742,2.7585,2.7567,2.6814,2.8319,3.0594,3.3493,3.5421,3.7485,4.0239,4.0772,4.1782,4.4179,4.4739,4.5607,4.7395,4.749,4.7105,4.6259,4.6201,4.6009,4.5605,4.5586,4.5586,4.5586,4.5586,4.5586,4.5586,4.5586,4.5586,4.5586,4.5586,4.5586,4.5586,4.5586,4.5586,4.5586,4.5586,4.5586,4.5586,4.5586,4.5586,4.5586,4.5586,4.5586,4.5586,4.5586,4.5586,4.5586,0.0,0.0,0.0,0.0,0.0,0.0,0.0,0.0,0.0,0.0,0.0,0.0,0.0,0.0,0.0,0.0,0.0,0.0,0.0,2.1842,2.2539,2.2912,2.3346,2.3571,2.3567,2.3806,2.4086,2.4434,2.5304,2.5398,2.4763,2.5152,2.5253,2.5067,2.4761,2.4236,2.3522,2.3203,2.3212,2.3459,0.0,0.0,0.0,0.0,0.0,0.0,0.0,0.0,0.0,0.0,0.0,0.0,0.0,0.0,0.0,2.419,2.419,2.419,2.419,2.474,2.5713,2.7383,2.8906,3.0118,3.065,2.9989,2.9457,3.0002,2.9787,2.931,2.8741,2.9806,3.244,3.7671,3.7747,3.8085,4.0859,3.9415,3.9612,4.3672,4.3402,4.4195,4.7491,4.7086,4.6317,4.5643,4.5586,4.5586,4.5586,4.5586,4.5586,4.5586,4.5586,4.5586,4.5586,4.5586,4.5586,4.5586,4.5586,4.5586,4.5586,4.5586,4.5586,4.5586,4.5586,4.5586,4.5586,4.5586,4.5586,4.5586,4.5586,4.5586,4.5586,4.5586,4.5586,4.5586,0.0,0.0,0.0,0.0,0.0,0.0,0.0,0.0,0.0,0.0,0.0,0.0,0.0,0.0,0.0,0.0,0.0,0.0,0.0,2.3414,2.365,2.276,2.3058,2.3684,2.4662,2.3443,2.3838,2.5932,2.5047,2.4929,2.5507,2.4864,2.4205,2.3562,2.3524,2.31,2.2434,2.2643,2.2746,2.2797,2.3117,0.0,0.0,0.0,0.0,0.0,0.0,0.0,0.0,0.0,0.0,0.0,0.0,0.0,2.419,2.419,2.419,2.419,2.419,2.6392,2.8521,2.7934,2.6796,2.6979,3.1421,3.1237,3.076,3.2999,3.4009,3.3807,3.1549,3.1861,3.3311,3.6066,3.8279,4.059,4.3341,4.3558,4.4112,4.5883,4.5379,4.5451,4.6838,4.6201,4.5663,4.5586,4.5586,4.5586,4.5586,4.5586,4.5586,4.5586,4.5586,4.5586,4.5586,4.5586,4.5586,4.5586,4.5586,4.5586,4.5586,4.5586,4.5586,4.5586,4.5586,4.5586,4.5586,4.5586,4.5586,4.5586,4.5586,4.5586,4.5586,4.5586,4.5586,4.5586,0.0,0.0,0.0,0.0,0.0,0.0,0.0,0.0,0.0,0.0,0.0,0.0,0.0,0.0,0.0,0.0,0.0,0.0,0.0,2.2908,2.3106,2.301,2.3117,2.3742,2.4901,2.4195,2.4466,2.5783,2.5385,2.5558,2.6251,2.505,2.4371,2.4052,2.3596,2.2987,2.231,2.2398,2.2537,2.2721,2.2848,2.3212,0.0,0.0,0.0,0.0,0.0,0.0,0.0,0.0,2.2781,2.3189,2.3189,2.3671,2.419,2.419,2.419,2.419,2.419,2.6172,2.8301,2.8503,2.8466,2.9531,3.3899,3.4009,3.3752,3.5697,3.634,3.6119,3.4706,3.5917,3.7441,3.8377,4.0561,4.25,4.355,4.3881,4.4485,4.583,4.546,4.5566,4.678,4.6105,4.5586,4.5586,4.5586,4.5586,4.5586,4.5586,4.5586,4.5586,4.5586,4.5586,4.5586,4.5586,4.5586,4.5586,4.5586,4.5586,4.5586,4.5586,4.5586,4.5586,4.5586,4.5586,4.5586,4.5586,4.5586,4.5586,4.5586,4.5586,4.5586,4.5586,4.5586,4.5586,0.0,0.0,0.0,0.0,0.0,0.0,0.0,0.0,0.0,0.0,0.0,0.0,0.0,0.0,0.0,0.0,0.0,0.0,2.2509,2.265,2.2789,2.2915,2.3014,2.3501,2.4471,2.4509,2.4966,2.5947,2.571,2.5862,2.6319,2.5067,2.4388,2.412,2.3613,2.2987,2.231,2.231,2.2415,2.2573,2.2573,2.289,0.0,0.0,0.0,0.0,0.0,0.0,0.0,0.0,2.2755,2.3212,2.3305,2.3753,2.419,2.419,2.419,2.419,2.419,2.5585,2.7346,2.8686,2.9806,3.1715,3.6064,3.6211,3.6174,3.8836,3.8781,3.8083,3.7533,3.8781,3.99,3.99,4.2014,4.3612,4.3513,4.3899,4.4496,4.5308,4.5238,4.547,4.6414,4.5951,4.5586,4.5586,4.5586,4.5586,4.5586,4.5586,4.5586,4.5586,4.5586,4.5586,4.5586,4.5586,4.5586,4.5586,4.5586,4.5586,4.5586,4.5586,4.5586,4.5586,4.5586,4.5586,4.5586,4.5586,4.5586,4.5586,4.5586,4.5586,4.5586,4.5586,4.5586,4.5586,0.0,0.0,0.0,0.0,0.0,0.0,0.0,0.0,0.0,0.0,0.0,0.0,0.0,0.0,0.0,0.0,0.0,0.0,2.2669,2.3021,2.2933,2.2338,2.2563,2.2934,2.3393,2.415,2.522,2.6691,2.5981,2.5609,2.5592,2.4831,2.4103,2.3393,2.3393,2.2987,2.231,2.231,2.231,2.231,2.231,2.2463,2.2669,0.0,0.0,0.0,0.0,0.0,0.0,0.0,2.2923,2.3259,2.3606,2.3917,2.419,2.419,2.419,2.419,2.4208,2.4814,2.6025,2.8429,3.0246,3.275,3.7588,3.7459,3.7679,4.2488,4.1589,3.9918,3.99,3.99,3.9918,3.9932,4.2211,4.3881,4.3548,4.4154,4.4606,4.4606,4.4896,4.5243,4.5568,4.5586,4.5586,4.5586,4.5586,4.5586,4.5586,4.5586,4.5586,4.5586,4.5586,4.5586,4.5586,4.5586,4.5586,4.5586,4.5586,4.5586,4.5586,4.5586,4.5586,4.5586,4.5586,4.5586,4.5586,4.5586,4.5586,4.5586,4.5586,4.5586,4.5586,4.5586,4.5586,4.5586,0.0,0.0,0.0,0.0,0.0,0.0,0.0,0.0,0.0,0.0,0.0,0.0,0.0,0.0,0.0,0.0,0.0,0.0,2.2703,2.2797,2.2678,2.231,2.2563,2.3175,2.415,2.5389,2.6251,2.6691,2.6471,2.6116,2.5609,2.5389,2.4594,2.3393,2.3393,2.2987,2.231,2.231,2.231,2.231,2.231,2.2463,2.2669,0.0,0.0,0.0,0.0,0.0,0.0,0.0,0.0,0.0,2.3671,2.3917,2.419,2.419,2.419,2.4318,2.4887,2.7273,2.9659,2.9806,3.297,3.6563,3.8581,3.8504,3.8872,4.2011,4.2084,4.1319,4.0407,4.1653,4.2318,4.0851,4.2758,4.4392,4.428,4.4657,4.4943,4.4943,4.5243,4.5495,4.5586,4.5586,4.5586,4.5586,4.5586,4.5586,4.5586,4.5586,4.5586,4.5586,4.5586,4.5586,4.5586,4.5586,4.5586,4.5586,4.5586,4.5586,4.5586,4.5586,4.5586,4.5586,4.5586,4.5586,4.5586,4.5586,4.5586,4.5586,4.5586,4.5586,4.5586,4.5586,4.5586,4.5586,0.0,0.0,0.0,0.0,0.0,0.0,0.0,0.0,0.0,0.0,0.0,0.0,0.0,0.0,0.0,0.0,0.0,0.0,2.2537,2.2537,2.2463,2.231,2.2754,2.3591,2.4898,2.5812,2.6404,2.6691,2.6691,2.6319,2.5609,2.5304,2.4678,2.3816,2.3528,2.3156,2.275,2.275,2.275,2.275,2.275,2.2841,2.2956,0.0,0.0,0.0,0.0,0.0,0.0,0.0,0.0,0.0,2.3876,2.4054,2.417,2.4036,2.4313,2.4925,2.6051,2.8698,3.1432,3.2664,3.5853,3.9045,4.0483,4.0933,4.1471,4.289,4.3206,4.2981,4.221,4.3268,4.383,4.2567,4.3748,4.4732,4.4606,4.4988,4.5243,4.5137,4.54,4.5586,4.5586,4.5586,4.5586,4.5586,4.5586,4.5586,4.5586,4.5586,4.5586,4.5586,4.5259,4.524,4.5586,4.5259,4.5259,4.5586,4.5586,4.5586,4.5586,4.5586,4.5586,4.5586,4.5586,4.5586,4.5586,4.5586,4.5586,4.5586,4.5586,4.5586,4.5586,4.5586,4.5586,4.5586,0.0,0.0,0.0,0.0,0.0,0.0,0.0,0.0,0.0,0.0,0.0,0.0,0.0,0.0,0.0,0.0,0.0,0.0,0.0,2.2344,2.2361,2.2496,2.3207,2.4205,2.5473,2.5642,2.5931,2.6455,2.6623,2.6285,2.549,2.4932,2.4608,2.4388,2.3765,2.346,2.3393,2.3325,2.3342,2.3393,2.3393,2.3393,2.3393,2.3393,0.0,0.0,0.0,0.0,0.0,0.0,0.0,0.0,2.4094,2.419,2.4151,2.3928,2.4728,2.6016,2.7633,2.9636,3.2272,3.6323,3.871,4.0696,4.3005,4.4115,4.4638,4.4511,4.4549,4.4606,4.4631,4.465,4.4676,4.4682,4.4943,4.5052,4.4732,4.5222,4.5495,4.518,4.5419,4.5586,4.5586,4.5586,4.5566,4.549,4.5547,4.5566,4.549,4.547,4.547,4.547,4.4643,4.4566,4.5355,4.4662,4.4701,4.547,4.5547,4.5586,4.5586,4.5586,4.5586,4.5586,4.5586,4.5586,4.5586,4.5586,4.5586,4.5586,4.5586,4.5586,4.5586,4.5586,4.5586,4.5586,0.0,0.0,0.0,0.0,0.0,0.0,0.0,0.0,0.0,0.0,0.0,0.0,0.0,0.0,0.0,0.0,0.0,0.0,0.0,2.2632,2.2818,2.3998,2.4729,2.5,2.4729,2.5862,2.5832,2.4497,2.5983,2.6015,2.4746,2.5744,2.5287,2.3646,2.4069,2.3934,2.3359,2.2784,2.2868,2.3393,2.3393,2.3393,2.3393,2.3393,2.2936,0.0,0.0,0.0,0.0,0.0,0.0,0.0,2.417,2.419,2.4318,2.4864,2.628,2.8016,2.9639,3.2895,3.6189,3.7837,4.0642,4.3363,4.4787,4.5247,4.5032,4.3818,4.4134,4.4682,4.4943,4.4988,4.5074,4.5342,4.5438,4.5476,4.54,4.5513,4.5568,4.5495,4.5568,4.5586,4.5586,4.5586,4.5316,4.4624,4.5201,4.5297,4.4624,4.4586,4.4586,4.4586,4.3797,4.3451,4.3643,4.4085,4.4393,4.4586,4.5259,4.5586,4.5586,4.5586,4.5586,4.5586,4.5586,4.5586,4.5586,4.5586,4.5586,4.5586,4.5586,4.5586,4.5586,4.5586,4.5586,4.5586,0.0,0.0,0.0,0.0,0.0,0.0,0.0,0.0,0.0,0.0,0.0,0.0,0.0,0.0,0.0,0.0,0.0,0.0,0.0,0.0,2.3697,2.4472,2.4864,2.505,2.5033,2.5261,2.5063,2.4414,2.4828,2.4547,2.3641,2.4828,2.4673,2.3444,2.4543,2.4408,2.3393,2.3359,2.3579,2.3917,2.3917,2.3917,2.3917,2.3917,2.3241,2.2338,2.2453,0.0,0.0,0.0,0.0,0.0,0.0,0.0,2.4831,2.5093,2.6546,2.8608,3.116,3.3918,3.6803,3.9909,4.2719,4.4882,4.5453,4.5586,4.5263,4.4034,4.4486,4.514,4.5322,4.5342,4.54,4.5568,4.5586,4.5586,4.5586,4.5586,4.5586,4.5586,4.5586,4.5586,4.5586,4.522,4.4951,4.4932,4.4951,4.4778,4.4316,4.4297,4.4124,4.3739,4.2912,4.2681,4.3104,4.3528,4.3912,4.4316,4.5182,4.5586,4.5586,4.5586,4.5586,4.5586,4.5586,4.5586,4.5586,4.5586,4.5586,4.5586,4.5419,4.5362,4.5342,4.5182,4.5118,4.514,0.0,0.0,0.0,0.0,0.0,0.0,0.0,0.0,0.0,0.0,0.0,0.0,0.0,0.0,0.0,0.0,0.0,0.0,0.0,0.0,0.0,2.4523,2.4506,2.4712,2.522,2.4347,2.4067,2.4397,2.3482,2.2863,2.2604,2.3638,2.3964,2.3833,2.4915,2.4797,2.3799,2.4154,2.4472,2.4692,2.4557,2.4506,2.4506,2.4506,2.3579,2.2338,2.2718,2.2995,2.3236,0.0,0.0,0.0,0.0,0.0,2.536,2.5238,2.6666,2.8941,3.189,3.3978,3.654,4.1717,4.4203,4.5336,4.5201,4.5278,4.5124,4.4259,4.4778,4.5374,4.5374,4.5259,4.5259,4.5547,4.547,4.5432,4.5566,4.5586,4.5586,4.5586,4.547,4.5374,4.5374,4.4605,4.4335,4.4893,4.4412,4.4028,4.3874,4.3874,4.3566,4.2893,4.2027,4.1912,4.2643,4.2797,4.3201,4.3874,4.4893,4.5451,4.5586,4.5586,4.5586,4.5586,4.5586,4.5586,4.5586,4.5586,4.5586,4.5568,4.5222,4.5137,4.514,4.4732,4.465,4.4726,0.0,0.0,0.0,0.0,0.0,0.0,0.0,0.0,0.0,0.0,0.0,0.0,0.0,0.0,0.0,0.0,0.0,0.0,0.0,0.0,0.0,2.454,2.4506,2.4239,2.3714,2.3831,2.3291,2.2057,2.2167,2.2178,2.213,2.3998,2.5013,2.5287,2.4831,2.4881,2.5236,2.4052,2.4272,2.5406,2.4746,2.4506,2.4506,2.4506,2.3579,2.2395,2.3061,2.3248,2.3212,2.3236,2.3692,0.0,0.0,0.0,2.5529,2.6185,2.8241,3.0424,3.0897,3.4093,3.8171,4.1762,4.3579,4.4297,4.3585,4.397,4.4239,4.3431,4.3912,4.447,4.447,4.3893,4.3912,4.5355,4.497,4.4739,4.549,4.5586,4.5586,4.5586,4.4932,4.447,4.447,4.3739,4.3008,4.2354,4.2893,4.2931,4.2181,4.2143,4.2085,4.1989,4.1123,4.0719,4.0835,4.1604,4.2027,4.2162,4.372,4.4874,4.5586,4.5586,4.5586,4.5586,4.5586,4.5586,4.5586,4.5586,4.5586,4.5568,4.5222,4.5282,4.5457,4.483,4.4781,4.5052,0.0,0.0,0.0,0.0,0.0,0.0,0.0,0.0,0.0,0.0,0.0,0.0,0.0,0.0,0.0,0.0,0.0,0.0,0.0,0.0,0.0,2.4557,2.4506,2.4137,2.341,2.2681,2.2247,2.2205,2.1239,2.155,2.3078,2.3697,2.4196,2.4563,2.5113,2.4977,2.4357,2.4103,2.4374,2.4915,2.4171,2.4777,2.5966,2.4462,2.3891,2.3936,2.3952,2.363,2.333,2.4136,2.434,2.419,2.419,0.0,0.0,0.0,2.7106,2.8885,3.1016,3.4583,3.8299,4.0801,4.2537,4.3528,4.3181,4.3374,4.3393,4.2547,4.2643,4.3181,4.4124,4.3643,4.3489,4.4682,4.4162,4.3912,4.4739,4.4874,4.4874,4.4874,4.4528,4.4124,4.3662,4.2874,4.2431,4.2527,4.2431,4.22,4.1816,4.1797,4.1585,4.1085,4.07,4.0489,4.0489,4.1354,4.2277,4.3201,4.3489,4.4227,4.5303,4.5013,4.5143,4.5586,4.5586,4.5586,4.5586,4.5586,4.5586,4.5568,4.5222,4.5201,4.5263,4.4781,4.4682,4.4849,0.0,0.0,0.0,0.0,0.0,0.0,0.0,0.0,0.0,0.0,0.0,0.0,0.0,0.0,0.0,0.0,0.0,0.0,0.0,0.0,0.0,2.4099,2.3988,2.3663,2.3122,2.1817,2.1629,2.259,2.0968,2.1374,2.3669,2.3312,2.349,2.4125,2.5355,2.5297,2.4255,2.4611,2.4763,2.476,2.4509,2.5515,2.6879,2.4893,2.458,2.5143,2.4734,2.4113,2.3691,2.4878,2.4939,2.4465,2.4263,2.474,0.0,0.0,0.0,2.705,3.0507,3.3355,3.5923,3.8408,4.0392,4.1786,4.2085,4.245,4.2527,4.1643,4.147,4.1912,4.3393,4.2989,4.2777,4.3835,4.3316,4.3066,4.3874,4.3989,4.3989,4.3989,4.3797,4.3431,4.2835,4.1989,4.1739,4.2393,4.1835,4.147,4.147,4.147,4.1162,4.0508,4.0489,4.0489,4.0489,4.1143,4.222,4.3662,4.2977,4.3407,4.4753,4.4268,4.4518,4.5362,4.5513,4.5586,4.5586,4.5513,4.5457,4.5438,4.4988,4.4924,4.5052,4.4606,4.458,4.4757,0.0,0.0,0.0,0.0,0.0,0.0,0.0,0.0,0.0,0.0,0.0,0.0,2.2613,2.1696,2.1327,2.2067,0.0,0.0,0.0,0.0,0.0,2.2828,2.2547,0.0,2.2361,2.184,2.1811,2.2333,2.1781,2.2021,2.3028,2.3028,2.375,2.5115,2.5462,2.5948,2.6488,2.5828,2.5541,2.5641,2.673,2.6857,2.6347,2.6196,2.5738,2.5202,2.5094,2.4761,2.4395,2.4797,2.512,2.5201,2.4428,2.474,2.5403,0.0,0.0,0.0,2.8511,2.8996,2.9795,3.396,3.6501,3.8254,3.9265,4.0739,4.1623,4.0739,4.0566,4.0854,4.1758,4.1219,4.1181,4.2893,4.2431,4.2181,4.3047,4.3162,4.3162,4.3162,4.2431,4.1912,4.1873,4.1085,4.0585,4.0623,4.0585,4.0566,4.0566,4.0566,4.0546,4.0489,4.0489,4.0489,4.0489,4.0527,4.1027,4.1931,4.1571,4.2256,4.3855,4.3512,4.3825,4.4682,4.5303,4.5586,4.5568,4.5243,4.5137,4.5033,4.4327,4.4463,4.5011,4.429,4.4463,4.5074,0.0,0.0,0.0,0.0,0.0,0.0,0.0,0.0,0.0,0.0,0.0,0.0,0.0,2.0344,2.0368,2.0366,2.1643,0.0,0.0,0.0,0.0,2.3167,2.3081,2.2784,2.2327,2.1823,2.1823,2.231,2.1275,2.1633,2.324,2.2808,2.3453,2.4951,2.5236,2.5607,2.5981,2.571,2.5609,2.5673,2.6586,2.7832,2.8872,2.6695,2.7349,2.9255,2.7802,2.6953,2.6666,2.7551,2.6757,2.5274,2.4447,2.4392,2.463,2.463,2.463,2.5093,2.7154,2.7997,2.8951,3.1711,3.4253,3.6329,3.722,3.8869,4.0239,4.045,4.0489,4.0585,4.0912,4.07,4.0893,4.2066,4.1527,4.1277,4.2143,4.2277,4.2277,4.2277,4.1989,4.1585,4.1027,4.0219,3.9719,3.9719,3.92,3.8892,3.8892,3.8892,3.9142,3.97,3.9719,3.9969,4.0489,4.0489,4.0828,4.1456,4.0845,4.1171,4.2378,4.2498,4.2874,4.3493,4.4511,4.4966,4.4943,4.4849,4.4896,4.5074,4.4806,4.5011,4.54,4.512,4.5203,4.5419,0.0,0.0,0.0,0.0,0.0,0.0,0.0,0.0,0.0,2.0146,0.0,0.0,0.0,0.0,1.9871,1.9832,2.1067,2.2139,2.2842,2.3504,2.3536,2.2815,2.2962,2.2801,2.2327,2.2003,2.2003,2.231,2.1415,2.1695,2.312,2.2545,2.2961,2.4235,2.4418,2.4971,2.5749,2.5898,2.5828,2.5756,2.7695,2.9557,3.0902,2.8319,2.9318,3.1815,2.9545,2.8579,2.8562,2.9752,2.8907,2.7148,2.5511,2.463,2.419,2.419,2.419,2.4468,2.5709,2.647,2.7363,2.9245,3.1516,3.3701,3.5209,3.7198,3.8984,3.9912,4.0296,4.0489,4.0489,4.0489,4.0681,4.1277,4.0873,4.07,4.1277,4.1354,4.1354,4.1354,4.1354,4.1143,4.0546,3.9758,3.9296,3.9296,3.8488,3.8007,3.8007,3.8007,3.8392,3.9258,3.9008,3.9342,4.0372,4.0068,4.0212,4.0722,4.0065,4.0414,4.1605,4.1717,4.2248,4.307,4.3882,4.4364,4.458,4.4447,4.4606,4.4919,4.4762,4.5033,4.5438,4.5438,4.5495,4.5586,0.0,0.0,0.0,0.0,0.0,0.0,0.0,0.0,2.013,2.0389,0.0,0.0,0.0,0.0,0.0,2.0617,2.1033,2.1275,2.129,2.2116,2.2291,2.1661,0.0,0.0,2.231,2.231,2.231,2.231,2.2282,2.2417,2.2588,2.223,2.2428,2.3135,2.3135,2.4207,2.6049,2.6488,2.6268,2.5992,3.0324,3.2065,3.2017,3.1243,3.1746,3.2532,3.0215,2.9611,3.0057,3.1151,3.1446,3.0742,2.7508,2.5436,2.417,2.417,2.419,2.419,0.0,0.0,0.0,2.6525,2.826,3.0246,3.3144,3.5706,3.7821,3.8977,3.9854,4.0412,4.045,4.0469,4.0489,4.0489,4.0489,4.0489,4.0489,4.0489,4.0489,4.0489,4.0469,4.045,4.045,3.97,3.9219,3.9258,3.843,3.793,3.7969,3.7969,3.8354,3.9181,3.843,3.8649,4.0005,3.9204,3.9047,3.9538,3.9238,3.9974,4.1537,4.1235,4.1974,4.3461,4.3513,4.3899,4.4527,4.4165,4.4204,4.4553,4.4165,4.4463,4.5096,4.5096,4.5322,4.5586,0.0,0.0,0.0,0.0,0.0,2.1742,2.0663,2.0442,2.0091,0.0,0.0,0.0,1.8455,1.832,1.8854,2.0273,2.0393,2.0703,2.1455,2.2062,2.2308,2.2106,2.2237,2.231,2.231,2.231,2.231,2.231,2.1974,2.2265,2.3167,2.293,2.3358,2.4337,2.4337,2.4947,2.6016,2.5916,2.6099,2.6805,3.131,3.2834,3.2478,3.3992,3.5224,3.5946,3.4344,3.3939,3.4207,3.4325,3.227,2.9016,2.5321,2.384,2.3522,2.3774,2.3837,0.0,2.4847,0.0,0.0,0.0,0.0,0.0,3.1261,3.3167,3.5114,3.6848,3.7838,3.8654,3.9473,4.0104,4.0489,4.0489,4.0489,4.0489,4.0489,4.0489,4.0489,4.0489,3.9988,3.9623,3.9623,3.8296,3.768,3.8315,3.7007,3.6449,3.7026,3.7065,3.7083,3.7132,3.7515,3.7811,3.7997,3.8355,3.8463,3.8378,3.8872,3.9556,4.0369,4.0868,4.1662,4.2687,4.35,4.3836,4.3791,4.3679,4.3868,4.4175,4.4346,4.4707,4.5118,4.5362,4.5513,4.5586,0.0,0.0,0.0,0.0,0.0,2.1182,2.0106,1.9811,1.9394,0.0,0.0,0.0,1.8508,1.8538,1.894,1.9958,2.0091,2.048,2.1305,2.1764,2.2106,2.2282,2.231,2.231,2.231,2.231,2.231,2.231,2.2032,2.24,2.3393,2.3079,2.3274,2.3951,2.428,2.4676,2.5141,2.5446,2.6031,2.7095,3.1617,3.3364,3.3489,3.5736,3.7269,3.8037,3.6614,3.636,3.6677,3.6415,3.3197,2.8942,2.7029,2.4931,2.336,2.4195,2.4206,0.0,0.0,0.0,0.0,2.6235,0.0,0.0,3.0076,3.1959,3.3978,3.5679,3.6952,3.7977,3.8646,3.9431,3.9988,3.9988,4.0277,4.0489,4.0489,4.0489,4.0489,4.0489,4.0085,3.9796,3.9796,3.8584,3.8007,3.8507,3.7296,3.6603,3.6699,3.6392,3.6228,3.6304,3.6476,3.6692,3.6994,3.7455,3.7698,3.7729,3.8544,3.928,3.9918,4.0396,4.1038,4.1879,4.2996,4.3132,4.2558,4.3175,4.3748,4.429,4.4657,4.5011,4.5322,4.5513,4.5586,4.5586,0.0,0.0,2.0209,2.0525,2.0245,1.9909,1.9494,1.9079,1.8612,0.0,1.8448,1.9031,1.9615,1.969,1.969,1.969,2.0139,2.055,2.0959,2.1446,2.1853,2.2282,2.231,2.2344,2.2429,2.2344,2.2344,2.2429,2.2344,2.2733,2.3511,2.3112,2.2975,2.3157,2.3818,2.4133,2.4282,2.5194,2.6149,2.7384,3.1625,3.3749,3.4655,3.7016,3.8498,3.9127,3.779,3.7621,3.8007,3.7507,3.4202,3.0374,3.0432,2.7492,2.4224,2.5076,2.5015,0.0,0.0,0.0,0.0,2.6195,2.7053,0.0,2.9364,3.1393,3.3373,3.4676,3.6209,3.7356,3.7433,3.8143,3.8719,3.8684,3.9503,4.0207,4.045,4.0489,4.0489,4.0489,4.0412,4.0354,4.0354,3.9623,3.92,3.9277,3.8584,3.7757,3.6892,3.6056,3.578,3.625,3.5435,3.5434,3.6373,3.647,3.6758,3.7221,3.8138,3.8982,3.9772,3.9845,4.0341,4.1148,4.221,4.2075,4.1213,4.2612,4.3648,4.4448,4.481,4.5186,4.555,4.5586,4.5586,4.5586,0.0,2.0856,2.0944,2.092,2.083,2.0541,1.9763,1.9566,1.945,1.9316,1.9405,1.954,1.9675,1.969,1.969,1.969,2.0398,2.0894,2.0991,2.1721,2.2209,2.2282,2.231,2.2581,2.3173,2.2615,2.2598,2.319,2.2598,2.2987,2.4272,2.4194,2.4787,2.5899,2.5445,2.5612,2.6135,2.5762,2.6956,2.9395,3.2811,3.4269,3.4892,3.944,4.0731,4.004,3.9731,3.9496,3.8964,3.6958,3.5431,3.3576,2.9039,2.8442,2.8696,2.5235,2.5674,2.7173,2.6613,2.6517,2.6712,2.736,2.7923,0.0,2.8621,2.9297,3.0197,3.1315,3.2372,3.3258,3.3786,3.4617,3.5103,3.4753,3.6436,3.8403,4.0246,4.0489,4.0489,4.0489,3.9931,3.9527,3.9527,3.8757,3.8546,3.9238,3.9142,3.8661,3.7796,3.6722,3.608,3.5986,3.4945,3.4367,3.4355,3.5018,3.5386,3.5514,3.7,3.8157,3.8964,3.9588,4.0341,4.1111,4.1616,4.1556,4.1158,4.2002,4.266,4.3212,4.3805,4.4508,4.5222,4.5495,4.5586,4.5586,2.1051,2.1498,2.1597,2.1101,2.0991,2.0714,1.9818,1.969,1.9809,2.0154,2.0198,2.0064,1.972,1.969,1.969,1.969,2.0636,2.1335,2.1535,2.2141,2.2597,2.2852,2.2513,2.2479,2.2852,2.2496,2.2665,2.3393,2.3038,2.3596,2.505,2.505,2.5236,2.5609,2.5981,2.5947,2.5625,2.5981,2.7756,3.0519,3.3104,3.4744,3.6121,4.0526,4.156,4.0695,4.0695,4.0123,3.9226,3.8341,3.5878,3.3,3.1858,3.0188,2.8405,2.7163,2.7512,2.807,2.7,2.6852,2.7105,2.7502,2.788,0.0,0.0,2.8233,2.8874,2.9502,3.0057,3.0732,3.1786,3.2408,3.2925,3.3457,3.518,3.6727,3.7503,3.9294,4.0489,4.0489,4.0142,3.9892,3.9892,3.9488,3.9431,3.9873,3.9527,3.9104,3.8661,3.7686,3.6831,3.6103,3.5426,3.4703,3.4012,3.4659,3.5082,3.5269,3.637,3.7382,3.8311,3.8578,3.9129,3.9918,4.0669,4.0574,3.9982,4.1205,4.1765,4.1987,4.3323,4.4209,4.4768,4.5377,4.5586,4.5586,2.1397,2.1887,2.202,2.1166,2.0991,2.0714,1.9818,1.9794,2.0124,2.0812,2.0797,2.0498,1.9944,2.0197,2.0386,2.0386,2.1768,2.268,2.2769,2.3025,2.3251,2.3393,2.2699,2.2378,2.2513,2.2513,2.2868,2.3613,2.3613,2.4289,2.5609,2.5609,2.5355,2.4997,2.657,2.6417,2.5031,2.6604,2.8903,3.1633,3.3415,3.5424,3.7733,4.1034,4.1809,4.1056,4.0867,4.0121,3.9233,3.9442,3.612,3.2213,3.4036,3.16,2.8152,2.8557,2.9042,2.899,2.7197,2.6939,2.7178,2.7178,2.7487,2.7657,0.0,0.0,0.0,2.8479,2.8525,2.8874,3.0149,3.0448,3.0949,3.2201,3.3839,3.4782,3.4336,3.7467,3.9774,3.9639,3.9852,4.0073,4.0241,4.0279,4.0332,4.0489,3.9753,3.9372,3.9527,3.867,3.775,3.6819,3.6196,3.5459,3.4535,3.4809,3.5036,3.5261,3.5906,3.6619,3.7365,3.7497,3.7916,3.8536,3.96,3.9552,3.8805,4.022,4.0738,4.0858,4.2942,4.3981,4.4412,4.5278,4.5586,4.5586,2.2192,2.2243,2.202,2.1166,2.0991,2.0714,1.9818,2.0198,2.0842,2.15,2.1081,2.0677,2.0602,2.1914,2.281,2.281,2.5217,2.6299,2.528,2.5033,2.4459,2.3439,2.2699,2.2615,2.3257,2.3274,2.363,2.4388,2.4388,2.4797,2.5609,2.5609,2.5896,2.6538,2.8506,2.8268,2.6572,2.8523,3.0968,3.3641,3.4581,3.6622,3.9273,4.1437,4.1809,4.0988,4.008,3.9656,3.9331,3.7919,3.6538,3.4655,3.0301,3.1273,3.2839,2.6844,2.847,3.1444,2.7707,2.6725,2.6791,2.6791,2.7051,2.7361,2.7287,0.0,2.7157,2.7842,0.0,2.7165,2.7642,0.0,0.0,2.8373,3.0335,3.199,3.2568,3.54,3.7163,3.6504,3.7509,3.858,3.9359,3.9448,3.9735,4.0454,3.9737,3.9602,4.0319,3.9365,3.8744,3.8612,3.6842,3.5847,3.5711,3.5066,3.4595,3.4367,3.5439,3.5725,3.5386,3.7081,3.7766,3.7661,3.8529,3.8811,3.8707,3.8914,3.9285,3.9989,4.2297,4.3645,4.4412,4.5278,4.5586,4.5586,2.231,2.231,2.202,2.1166,2.0991,2.0714,1.9818,2.0273,2.0528,2.0019,2.0737,2.0976,2.0198,2.1452,2.2566,2.3139,2.5263,2.6516,2.6309,2.6411,2.5932,2.4743,2.3968,2.3714,2.4019,2.4036,2.4391,2.5135,2.5135,2.5524,2.6234,2.6234,2.6184,2.62,2.9106,2.9708,2.8574,2.9847,3.2033,3.4633,3.4954,3.6802,3.9527,4.151,4.1515,4.0294,3.9554,3.9758,4.0226,3.9494,3.6936,3.4205,3.4918,3.3067,3.0467,2.9519,3.0056,3.0342,2.7486,2.7698,2.8415,2.7028,2.7843,2.8509,2.6722,2.6207,2.6191,2.6502,0.0,0.0,0.0,0.0,0.0,0.0,3.0296,3.1161,3.1098,3.3242,3.5276,3.6417,3.7448,3.8179,3.852,3.8539,3.8893,3.9727,3.9488,3.9654,4.0454,4.0079,3.9608,3.9147,3.766,3.6635,3.6141,3.5171,3.4714,3.4735,3.5054,3.5318,3.5552,3.6696,3.7322,3.7533,3.834,3.8707,3.8689,3.8855,3.9063,3.9477,4.1339,4.2694,4.3701,4.4528,4.5163,4.5586,2.204,2.2175,2.202,2.1166,2.0991,2.0714,1.9818,2.0423,2.0572,1.9405,2.0677,2.1261,2.0094,2.2053,2.3718,2.4463,2.7147,2.8624,2.8105,2.8185,2.7674,2.6478,2.5195,2.4754,2.5299,2.4975,2.505,2.5609,2.5812,2.6184,2.6691,2.6691,2.6404,2.6047,2.9176,3.0415,3.0186,3.1249,3.3472,3.6267,3.6348,3.7482,3.9363,4.1581,4.1503,4.0178,3.984,4.0021,4.0395,4.0184,3.7295,3.4367,3.7534,3.4577,3.0273,3.2092,3.2084,3.0928,2.836,2.8881,2.9627,2.7296,2.7999,2.8658,2.6413,2.5761,2.5659,2.5862,2.4898,0.0,0.0,0.0,0.0,0.0,0.0,3.0733,3.0459,3.1895,3.3713,3.5507,3.6935,3.7741,3.7679,3.769,3.8008,3.8784,3.8908,3.929,4.0027,4.0338,4.0219,3.9642,3.8613,3.7649,3.6771,3.5759,3.519,3.5105,3.4981,3.5096,3.5472,3.6475,3.7024,3.7232,3.8332,3.8762,3.8738,3.8923,3.9036,3.9234,4.0378,4.1552,4.2731,4.3876,4.4701,4.5278,2.139,2.1803,2.202,2.1166,2.0991,2.0714,1.9818,2.0812,2.1425,2.0737,2.1261,2.144,2.0752,2.4937,2.782,2.782,3.2829,3.4648,3.1542,3.0706,2.9761,2.8572,2.5942,2.5415,2.7365,2.6202,2.5592,2.5609,2.6319,2.6674,2.6691,2.6691,2.6674,2.6759,2.8831,3.014,3.0991,3.2976,3.5872,3.9166,3.9515,3.922,3.8929,4.1712,4.2082,4.1088,4.1207,4.0329,3.9093,3.8572,3.7624,3.6362,3.4554,3.4921,3.5557,3.3215,3.4171,3.5137,3.1164,3.0136,2.9627,2.7296,2.6759,2.6809,2.6708,2.6116,2.5812,2.6522,2.6065,2.5778,2.659,0.0,0.0,0.0,0.0,0.0,0.0,3.1845,3.236,3.2428,3.513,3.6916,3.6826,3.6908,3.7156,3.7601,3.796,3.8383,3.8918,3.9931,4.0489,4.045,3.9662,3.8834,3.7935,3.707,3.6121,3.5105,3.5354,3.5051,3.4316,3.6499,3.7062,3.6442,3.8285,3.8933,3.8707,3.8707,3.8855,3.9152,3.95,4.035,4.1609,4.3574,4.4316,4.4451,2.0568,2.1042,2.1535,2.1425,2.0794,1.9894,1.8582,1.951,2.0914,2.2372,2.3851,2.5207,2.621,2.8592,3.0387,3.1038,3.3243,3.3714,3.1631,3.1275,3.0693,2.9697,2.7299,2.6994,2.9237,2.7353,2.6336,2.6336,2.6573,2.6691,2.6691,2.6691,2.6691,2.6809,2.9366,3.1797,3.4047,3.4485,3.6749,3.9861,3.7831,3.7966,3.9446,3.9848,3.9438,3.8939,4.106,4.2014,4.2204,4.1756,4.0359,3.8942,3.9811,3.7592,3.4797,3.5536,3.5158,3.4089,3.2319,3.3117,3.3515,2.9656,2.9857,3.0251,2.7366,2.6505,2.6404,2.664,2.6116,2.5981,2.7215,0.0,0.0,0.0,0.0,0.0,0.0,3.1816,3.2313,3.2313,3.4088,3.512,3.459,3.5252,3.5802,3.6056,3.6473,3.7333,3.8823,3.9238,3.9763,4.0469,3.9719,3.9161,3.8854,3.8007,3.7094,3.6174,3.6844,3.6326,3.4889,3.7262,3.7787,3.6924,3.8676,3.9383,3.932,3.932,3.9223,3.9178,3.9712,4.0032,4.0447,4.2678,4.3835,4.4412,2.0534,2.1059,2.1507,2.1259,2.0724,1.9972,1.8814,1.9561,2.1194,2.367,2.5215,2.6889,2.9149,3.1044,3.2422,3.3073,3.4555,3.4483,3.209,3.2876,3.2911,3.1725,3.0416,3.0645,3.2741,2.9761,2.8048,2.7758,2.7046,2.6691,2.6691,2.6691,2.6691,2.6792,2.8595,3.1721,3.5581,3.5381,3.7826,4.1529,3.7301,3.6751,3.845,3.7942,3.759,3.7859,4.1245,4.2607,4.2873,4.314,4.2343,4.1547,4.3161,4.0779,3.7661,3.903,3.7948,3.6091,3.4879,3.5541,3.5658,3.1751,3.1907,3.2097,2.8572,2.7758,2.7504,2.664,2.6219,2.6219,2.7024,2.7752,0.0,0.0,0.0,0.0,0.0,3.1596,3.1901,3.1901,3.3205,3.3972,3.3686,3.4163,3.4561,3.4706,3.5363,3.638,3.7826,3.8537,3.9353,4.0336,3.9957,3.9585,3.9296,3.8738,3.8027,3.7161,3.7318,3.6829,3.5875,3.7604,3.8,3.7483,3.9082,3.9709,3.9599,3.9599,3.9462,3.9339,3.988,3.9982,4.0049,4.2275,4.3816,4.4836,2.1153,2.1735,2.1911,2.0792,2.0852,2.0894,2.0416,2.0922,2.228,2.485,2.5479,2.6807,2.9821,3.2532,3.415,3.415,3.6916,3.702,3.3116,3.5357,3.615,3.4582,3.4839,3.5778,3.7368,3.3144,3.0522,2.9774,2.7707,2.6691,2.6691,2.6691,2.6691,2.6691,2.6691,2.9937,3.5399,3.5369,3.8775,4.3646,3.794,3.5845,3.6229,3.6366,3.6875,3.8015,4.1858,4.2317,4.1351,4.2754,4.356,4.4018,4.4283,4.4154,4.3807,4.3286,4.2276,4.0841,3.8653,3.7416,3.6149,3.3538,3.287,3.2346,3.0307,2.9843,2.9177,2.6835,2.6689,2.6843,2.6291,2.7813,0.0,0.0,0.0,0.0,0.0,3.119,3.119,3.119,3.2442,3.3454,3.3886,3.3594,3.3431,3.3547,3.4569,3.5478,3.6113,3.7845,3.9185,4.0043,4.0339,4.0108,3.9339,3.9354,3.8911,3.8046,3.6941,3.6654,3.7076,3.7471,3.7749,3.7972,3.9461,3.9943,3.9645,3.9645,3.9645,3.9645,4.004,4.0234,4.054,4.2422,4.4162,4.5586,2.0433,2.094,2.1556,2.1782,2.1694,2.1462,2.0975,2.1467,2.3686,2.8704,2.9382,3.121,3.5872,3.7028,3.7466,3.7466,3.8211,3.7606,3.511,3.5625,3.5921,3.5744,3.4772,3.5223,3.7358,3.313,3.0817,3.0574,2.7963,2.6691,2.6691,2.6691,2.6691,2.6691,2.6691,2.8838,3.2463,3.2204,3.4362,3.78,3.6555,3.6107,3.6466,3.8813,3.9415,3.9573,4.3522,4.4707,4.4442,4.482,4.5051,4.5168,4.5241,4.4762,4.4114,4.3771,4.2718,4.1453,4.0413,3.9694,3.8572,3.5929,3.5308,3.4714,3.2446,3.1933,3.1744,3.1124,3.1087,3.067,2.9057,3.0075,3.0657,0.0,0.0,0.0,0.0,3.119,3.119,3.119,3.1529,3.1788,3.1947,3.2659,3.3006,3.2804,3.3575,3.4772,3.6448,3.7225,3.8278,3.9694,4.0042,4.01,3.9908,4.0082,3.9777,3.895,3.847,3.7641,3.6539,3.7927,3.8233,3.7793,3.9599,4.0336,4.0266,4.0266,4.0157,4.0059,4.1013,4.2117,4.3209,4.3126,4.4162,4.5586,2.1042,2.138,2.1904,2.2649,2.3918,2.4564,2.3874,2.2696,2.4154,3.0446,3.0429,3.168,3.6541,3.7728,3.8322,3.867,3.8707,3.7869,3.5833,3.6848,3.7284,3.6749,3.7029,3.7678,3.8692,3.5436,3.3054,3.1681,2.9226,2.7571,2.6691,2.6691,2.6691,2.6691,2.6691,2.8444,3.1583,3.4178,3.5514,3.5993,3.7623,3.8268,0.0,4.023,4.145,4.2527,4.4802,4.5355,4.5028,4.5028,4.5278,4.5586,4.5586,4.5259,4.4837,4.4691,4.3556,4.2268,4.1791,4.0895,3.9715,3.8091,3.7977,3.7652,3.5296,3.5036,3.4916,3.3663,3.3575,3.3237,3.1513,3.1586,3.1408,0.0,0.0,0.0,3.119,3.119,3.119,3.119,3.119,3.119,3.119,3.182,3.2234,3.2249,3.2932,3.3844,3.5066,3.6442,3.7636,3.857,3.9204,3.9637,3.988,3.9948,3.9678,3.9076,3.8461,3.7813,3.7184,3.769,3.7919,3.8002,3.9621,4.0197,3.9988,4.0335,4.0406,4.0381,4.1402,4.2816,4.4239,4.3797,4.4451,4.5586,2.2446,2.2513,2.2649,2.3291,2.6243,2.8338,2.7787,2.5055,2.5281,3.1419,3.0561,3.0951,3.5036,3.6775,3.7936,3.8634,3.8707,3.7961,3.6204,3.8368,3.905,3.754,3.9906,4.0903,4.0148,3.8202,3.574,3.2793,3.0657,2.8594,2.6691,2.6691,2.6691,2.6691,2.6691,2.8377,3.1554,3.7225,3.8225,3.6259,3.9569,4.0905,4.0943,4.135,4.3216,4.5586,4.5586,4.5105,4.447,4.447,4.497,4.5586,4.5586,4.5586,4.5586,4.5586,4.4489,4.3186,4.291,4.159,4.0253,4.0037,4.0484,4.0443,3.8451,3.8506,3.8279,3.5756,3.5596,3.5398,3.3864,3.2652,3.1496,0.0,3.0866,3.1397,3.1662,3.1679,3.1623,3.146,3.1443,0.0,3.1207,3.119,3.1406,3.1858,3.2513,3.3055,3.3401,3.575,3.7198,3.7463,3.8359,3.9025,3.9443,3.9364,3.9164,3.8802,3.7783,3.7634,3.8225,3.7181,3.7304,3.835,3.9407,3.9698,3.9461,4.0117,4.054,4.0861,4.1613,4.2956,4.447,4.447,4.4951,4.5586,2.3951,2.3613,2.3241,2.3376,2.5781,2.8288,2.998,3.0581,3.184,3.4624,3.4142,3.4715,3.7716,3.8303,3.856,3.8689,3.8707,3.8548,3.8193,3.864,3.8569,3.7827,3.9481,3.9913,3.8778,3.7351,3.5479,3.3124,3.0434,2.8285,2.6691,2.6691,2.6691,2.6691,2.6691,2.7944,3.0127,3.2187,3.3696,3.5073,3.9232,4.0905,4.1176,4.379,4.5127,4.5586,4.5586,4.549,4.5355,4.5355,4.547,4.5586,4.5586,4.5586,4.5586,4.5586,4.4874,4.4085,4.4032,4.2785,4.1583,4.1989,4.1661,4.1254,4.1273,4.1172,4.0913,4.0452,4.0184,3.9276,3.6717,3.3383,3.115,3.1512,3.1666,3.2367,3.4005,3.4252,3.3898,3.2882,3.2775,3.2345,3.128,3.119,3.1389,3.1806,3.2209,3.3225,3.505,3.5808,3.6906,3.8414,3.8832,3.8915,3.8623,3.9239,3.9298,3.8796,3.8109,3.7841,3.7953,3.71,3.7323,3.8395,3.8609,3.918,3.9967,3.9825,4.0741,4.2259,4.2412,4.3637,4.5355,4.5355,4.547,4.5586,2.4847,2.4475,2.4414,2.5863,2.8386,3.0825,3.2573,3.4909,3.6054,3.4859,3.4258,3.4473,3.5823,3.7204,3.8248,3.867,3.8707,3.8707,3.8707,3.8433,3.8183,3.7893,3.8483,3.8479,3.7795,3.7283,3.5543,3.2543,3.1162,2.9177,2.6691,2.6691,2.6691,2.6759,2.7775,2.9021,3.0569,3.3938,3.6214,3.7838,4.1787,4.3331,4.3503,4.5013,4.5586,4.5586,4.5586,4.5586,4.5586,4.5586,4.5586,4.5586,4.5586,4.5586,4.5586,4.5586,4.497,4.4201,4.3797,4.3085,4.2417,4.2218,4.2525,4.2872,4.2965,4.3077,4.31,4.2883,4.2562,4.147,3.8655,3.5307,3.3247,3.3988,3.3246,3.3281,3.5261,3.551,3.5065,3.381,3.2956,3.2303,3.1828,3.1072,3.0883,3.1452,3.1992,3.2909,3.4217,3.5368,3.6523,3.7681,3.8199,3.8524,3.856,3.885,3.855,3.7694,3.7403,3.7075,3.664,3.607,3.6433,3.7558,3.7952,3.8644,3.9452,3.9751,4.0686,4.1932,4.1932,4.3139,4.4932,4.4932,4.5201,4.5586,2.6075,2.5416,2.5521,2.8687,3.1066,3.3011,3.4389,3.746,3.8481,3.5274,3.4678,3.455,3.455,3.6461,3.801,3.8652,3.8707,3.8707,3.8707,3.8183,3.7859,3.7755,3.7584,3.7304,3.6882,3.7186,3.568,3.2216,3.1888,3.0192,2.7165,2.6843,2.6928,2.7402,2.9158,3.0779,3.2484,3.7331,4.0021,4.1268,4.4364,4.5586,4.5586,4.5586,4.5586,4.5586,4.5586,4.5586,4.5586,4.5586,4.5586,4.5586,4.5586,4.5586,4.5586,4.5586,4.5105,4.4432,4.3797,4.3508,4.3239,4.2739,4.3417,4.4173,4.409,4.4283,4.4373,4.4076,4.3597,4.2422,3.9797,3.7286,3.5666,3.5722,3.473,3.4447,3.5812,3.638,3.6132,3.4766,3.3365,3.2572,3.2667,3.1269,3.0671,3.1555,3.2134,3.2784,3.3434,3.5081,3.631,3.7025,3.7587,3.7975,3.8095,3.8175,3.7621,3.6435,3.6541,3.6278,3.5639,3.5183,3.5725,3.6987,3.7381,3.8128,3.9072,3.9586,4.0469,4.1449,4.1277,4.2489,4.4297,4.4297,4.4855,4.5586,2.8533,2.671,2.5953,3.0513,3.1551,3.2366,3.4298,3.6985,3.867,3.8267,3.82,3.8218,3.8218,3.842,3.8615,3.8689,3.8707,3.8707,3.8707,3.8183,3.772,3.7285,3.74,3.6939,3.58,3.6503,3.5677,3.327,3.1913,3.0421,2.8738,2.7334,2.7656,2.9449,3.0366,3.2869,3.6494,3.9166,4.1337,4.3177,4.4921,4.5586,4.5586,4.5586,4.5586,4.5586,4.5586,4.5586,4.5586,4.5586,4.5586,4.5586,4.5586,4.5586,4.5586,4.5586,4.5528,4.5451,4.5374,4.4778,4.4355,4.5066,4.4538,4.405,4.481,4.4504,4.4046,4.4016,4.3135,4.1763,3.9688,3.8464,3.7009,3.4523,3.5493,3.6356,3.581,3.7312,3.7784,3.6042,3.5102,3.4446,3.4081,3.2252,3.1611,3.281,3.2968,3.3541,3.4659,3.5545,3.656,3.7767,3.7857,3.7326,3.6148,3.7126,3.6924,3.5625,3.6113,3.6305,3.6213,3.5367,3.6002,3.7757,3.6833,3.7713,3.9743,3.908,4.0086,4.1949,4.1217,4.2311,4.4297,4.4297,4.4855,4.5586,3.141,3.0672,3.0636,3.3561,3.406,3.4744,3.6754,3.8004,3.8707,3.8707,3.8707,3.8524,3.8028,3.8414,3.8707,3.8707,3.8707,3.8707,3.8707,3.8183,3.7685,3.721,3.7281,3.6917,3.6114,3.7161,3.6847,3.5004,3.326,3.1627,3.0145,2.9523,3.0574,3.3013,3.4543,3.6386,3.8492,4.1064,4.2888,4.4166,4.5189,4.5586,4.5586,4.5586,4.5586,4.5586,4.5586,4.5586,4.5586,4.5586,4.5586,4.5586,4.5586,4.5586,4.5586,4.5586,4.5586,4.549,4.4951,4.4951,4.4993,4.4614,4.4551,4.4633,4.4773,4.4401,4.4016,4.4016,4.3467,4.2766,4.1951,4.0193,3.8985,3.9561,3.8928,3.8637,3.9528,3.9932,3.9134,3.6399,3.4569,3.3442,3.3088,3.1125,3.0832,3.3089,3.2461,3.2714,3.4384,3.5048,3.599,3.7416,3.8083,3.7954,3.713,3.7858,3.7461,3.5994,3.6179,3.5771,3.4798,3.4945,3.5965,3.7683,3.7887,3.8726,3.9858,3.9407,4.0052,4.1259,4.0653,4.1399,4.2797,4.2797,4.3662,4.4816,3.397,3.3506,3.3686,3.6266,3.5988,3.6126,3.8352,3.8707,3.8707,3.8707,3.8707,3.8487,3.79,3.8358,3.8707,3.8707,3.8707,3.8707,3.8707,3.8183,3.7755,3.7433,3.7285,3.702,3.6643,3.7796,3.7887,3.6788,3.5168,3.3845,3.2774,3.2317,3.3507,3.6052,3.7727,3.9091,4.0315,4.2547,4.3864,4.4482,4.5182,4.5438,4.5457,4.5568,4.5586,4.5586,4.5586,4.5586,4.5586,4.5586,4.5586,4.5586,4.5586,4.5586,4.5586,4.5586,4.5586,4.547,4.4855,4.5124,4.5359,4.4416,4.4573,4.4872,4.4482,4.4136,4.3849,4.3849,4.366,4.3497,4.3497,4.1878,4.0917,4.2095,4.1097,4.0372,4.0964,4.0881,3.968,3.6791,3.4603,3.3353,3.3399,3.1473,3.1373,3.4189,3.3072,3.2976,3.4658,3.5276,3.6131,3.7361,3.8083,3.8158,3.7551,3.7831,3.7422,3.6285,3.5789,3.5202,3.4559,3.5367,3.6376,3.7562,3.8543,3.9327,3.9908,3.9848,4.0352,4.1146,4.0827,4.138,4.235,4.201,4.2948,4.4365,3.6011,3.4164,3.3588,3.8255,3.6599,3.5521,3.8291,3.8707,3.8707,3.8707,3.8707,3.8707,3.8689,3.8689,3.8707,3.8707,3.8707,3.8707,3.8707,3.8183,3.7911,3.7893,3.7433,3.719,3.7173,3.799,3.838,3.8362,3.7642,3.7253,3.7199,3.5722,3.6123,3.8117,3.8896,4.0391,4.2356,4.3497,4.3998,4.4058,4.4806,4.5096,4.514,4.5457,4.5586,4.5586,4.5586,4.5586,4.5586,4.5586,4.5586,4.5586,4.5586,4.5586,4.5586,4.5586,4.5586,4.5586,4.5586,4.5586,4.5513,4.5161,4.483,4.4501,4.4087,4.3758,4.3532,4.3532,4.3479,4.3497,4.3497,4.3461,4.2551,3.9815,4.0985,4.1306,3.8546,3.9177,3.9261,3.7485,3.5865,3.5155,3.5899,3.4193,3.4093,3.6561,3.5593,3.519,3.5952,3.675,3.7379,3.7859,3.7893,3.7533,3.6723,3.6462,3.6321,3.6266,3.4614,3.4688,3.6303,3.7092,3.7489,3.7562,3.834,3.9148,3.9913,4.0253,4.1057,4.2089,4.2089,4.2773,4.3643,4.2513,4.3171,4.4525,3.8836,3.8218,3.7886,3.8936,3.7848,3.7285,3.8517,3.823,3.8065,3.8634,3.8707,3.8707,3.8707,3.8707,3.8707,3.8707,3.8707,3.8707,3.8707,3.8546,3.8267,3.7911,3.8117,3.805,3.7685,3.9352,4.0251,4.0251,3.9173,3.8652,3.8634,3.8182,3.9311,4.1803,4.2059,4.253,4.3164,4.3738,4.4016,4.4058,4.4806,4.5096,4.5137,4.5457,4.5586,4.5586,4.5586,4.5586,4.5586,4.5586,4.5586,4.5586,4.5586,4.5586,4.5586,4.5586,4.5586,4.5586,4.5586,4.5586,4.5457,4.4896,4.4682,4.4419,4.3804,4.3563,4.3497,4.3497,4.3497,4.3497,4.3497,4.3497,4.3188,4.2297,4.2695,4.2803,4.1894,4.0425,3.8701,3.6774,3.4358,3.3159,3.3964,3.2962,3.345,3.6303,3.57,3.5425,3.5951,3.7095,3.7649,3.7433,3.8642,3.8685,3.7533,3.7794,3.7661,3.7092,3.656,3.6597,3.711,3.7367,3.779,3.8352,3.8783,3.9425,4.0224,4.0777,4.1548,4.2395,4.2679,4.2832,4.2806,4.1884,4.2128,4.2869,3.9943,3.9797,3.9505,3.8768,3.8135,3.7859,3.8187,3.7808,3.7771,3.8597,3.8707,3.8707,3.8707,3.8707,3.8707,3.8707,3.8707,3.8707,3.8707,3.8707,3.8546,3.8216,3.8515,3.8674,3.8652,4.0266,4.1258,4.1552,4.1095,4.0899,4.0899,4.0899,4.1823,4.3497,4.3497,4.3497,4.3513,4.3849,4.4016,4.4058,4.4806,4.5096,4.5137,4.5457,4.5586,4.5586,4.5586,4.5586,4.5586,4.5586,4.5586,4.5586,4.5586,4.5586,4.5586,4.5586,4.5586,4.5586,4.5586,4.5586,4.5438,4.4757,4.458,4.4392,4.3646,4.3497,4.3497,4.3497,4.3497,4.3497,4.3497,4.3497,4.3497,4.3497,4.324,4.2894,4.2408,4.027,3.822,3.6774,3.4747,3.3987,3.5278,3.4924,3.5491,3.7569,3.7684,3.7647,3.7649,3.8086,3.8357,3.8409,3.9909,4.0174,3.905,3.8936,3.8615,3.8098,3.8098,3.7931,3.7654,3.7968,3.8627,3.9528,3.9556,4.0112,4.102,4.1741,4.2438,4.3077,4.3501,4.3493,4.3126,4.1878,4.1726,4.2109,3.9524,3.9264,3.879,3.8044,3.76,3.7371,3.7415,3.7434,3.7698,3.8505,3.867,3.8707,3.8707,3.8707,3.8707,3.8707,3.8707,3.8707,3.8707,3.8707,3.8707,3.8707,3.8707,3.9056,3.979,4.0671,4.1534,4.2378,4.3075,4.3442,4.3497,4.3497,4.3497,4.3497,4.3497,4.3497,4.3513,4.3849,4.4016,4.4058,4.4806,4.5096,4.5137,4.5457,4.5586,4.5586,4.5586,4.5586,4.5586,4.5586,4.5586,4.5586,4.5586,4.5586,4.5586,4.5586,4.5586,4.5586,4.5568,4.5568,4.54,4.4732,4.4527,4.4337,4.3664,4.3497,4.3497,4.3497,4.3497,4.3497,4.3497,4.3497,4.3497,4.3497,4.2763,4.175,4.0582,3.8938,3.7718,3.7343,3.6576,3.6916,3.8992,3.9135,3.9343,3.9937,4.0908,4.1166,4.0514,3.9662,3.9612,4.0495,4.1588,4.1779,4.091,3.9902,3.9365,3.932,3.9266,3.8875,3.8219,3.8939,3.9888,4.0962,4.0664,4.1154,4.22,4.3013,4.3559,4.3954,4.441,4.4542,4.4244,4.2305,4.1822,4.1967,3.881,3.861,3.8418,3.7977,3.6838,3.6107,3.6526,3.6578,3.6872,3.7661,3.8322,3.8707,3.8707,3.8707,3.8707,3.8707,3.8707,3.8707,3.8707,3.8707,3.8707,3.8707,3.8707,3.8799,3.8982,4.0377,4.1791,4.3222,4.2782,4.2892,4.3497,4.3497,4.3497,4.3497,4.3497,4.3497,4.3513,4.3849,4.4016,4.4058,4.4806,4.5096,4.5137,4.5457,4.5586,4.5586,4.5586,4.5586,4.5586,4.5586,4.5586,4.5586,4.5586,4.5586,4.5586,4.5586,4.5586,4.5531,4.5302,4.5222,4.5033,4.4318,4.3943,4.3712,4.3548,4.3497,4.3497,4.3497,4.3497,4.3497,4.3497,4.3497,4.3497,4.3497,4.201,4.0726,4.0456,3.8187,3.672,3.7235,3.6576,3.6916,3.8992,3.8647,3.8943,4.0538,4.0296,4.0396,4.1111,4.1753,4.198,4.1713,4.2561,4.2322,4.091,4.1235,4.1393,4.1393,4.0874,4.0791,4.1111,4.1033,4.1301,4.1817,4.1999,4.2224,4.2555,4.3349,4.3735,4.3893,4.4386,4.4025,4.3081,4.1987,4.1119,4.0364,3.7611,3.776,3.7612,3.65,3.6066,3.5873,3.5981,3.615,3.6707,3.79,3.8432,3.8707,3.8707,3.8707,3.8707,3.8707,3.8707,3.8707,3.8707,3.8707,3.8707,3.8707,3.8707,3.8872,3.9239,4.0102,4.135,4.2947,4.2506,4.2708,4.3497,4.3497,4.3497,4.3497,4.3497,4.3497,4.3548,4.4046,4.4261,4.4346,4.5033,4.5322,4.5342,4.5531,4.5586,4.5586,4.5586,4.5586,4.5586,4.5586,4.5586,4.5586,4.5586,4.5586,4.5586,4.5586,4.5586,4.5568,4.5381,4.5222,4.49,4.4175,4.3758,4.3497,4.3497,4.3497,4.3497,4.3497,4.3497,4.3497,4.3497,4.3497,4.3497,4.3497,4.1447,3.9967,4.0347,3.8059,3.6949,3.8546,3.8472,3.9125,4.1203,4.1015,4.1083,4.1949,4.2062,4.2232,4.2529,4.3631,4.3833,4.2959,4.3849,4.3721,4.2465,4.2376,4.2172,4.1867,4.168,4.1744,4.2095,4.1912,4.2303,4.3113,4.3172,4.3483,4.3982,4.4113,4.4258,4.4405,4.4339,4.3699,4.2704,4.1903,4.0859,3.9795,3.645,3.6835,3.6765,3.4994,3.5367,3.5849,3.5556,3.5951,3.6835,3.8322,3.8615,3.8707,3.8707,3.8707,3.8707,3.8707,3.8707,3.8707,3.8707,3.8707,3.8707,3.8707,3.8707,3.9019,3.9698,3.9717,4.0506,4.2121,4.2121,4.2525,4.3314,4.3424,4.3497,4.3497,4.3497,4.3497,4.3548,4.4223,4.4501,4.458,4.5263,4.5513,4.5531,4.5586,4.5586,4.5586,4.5586,4.5586,4.5586,4.5586,4.5586,4.5586,4.5586,4.5586,4.5586,4.555,4.5513,4.5513,4.5457,4.5161,4.4707,4.4087,4.3693,4.3497,4.3497,4.3497,4.3497,4.3497,4.3497,4.3497,4.3497,4.3497,4.3442,4.3226,4.0778,3.9192,4.0058,3.8186,3.7653,4.0249,4.1029,4.2069,4.3908,4.3975,4.3812,4.3599,4.441,4.4701,4.419,4.5073,4.5168,4.419,4.5092,4.524,4.4489,4.3369,4.2595,4.2216,4.2391,4.2535,4.2631,4.2583,4.3259,4.4489,4.4269,4.4691,4.5476,4.4872,4.4732,4.4853,4.4204,4.3423,4.2634,4.1816,4.0892,3.9955,3.645,3.6395,3.6395,3.608,3.5009,3.4385,3.5007,3.5797,3.6615,3.7551,3.8267,3.8707,3.8707,3.8707,3.8707,3.8707,3.8707,3.8707,3.8707,3.8707,3.8707,3.8707,3.8707,3.8762,3.8891,3.8891,3.968,4.1295,4.1295,4.1699,4.2506,4.3167,4.3497,4.3497,4.3497,4.3497,4.3513,4.3912,4.4087,4.4146,4.4877,4.518,4.5201,4.5495,4.5586,4.5586,4.5586,4.5586,4.5586,4.5586,4.5586,4.5586,4.5586,4.5586,4.5531,4.5263,4.518,4.5118,4.483,4.4252,4.3744,4.3597,4.3548,4.3497,4.3497,4.3497,4.3497,4.3497,4.3497,4.3497,4.3497,4.3497,4.3137,4.1978,3.9445,3.7972,3.9079,3.7751,3.7851,4.0969,4.2275,4.3344,4.4406,4.3823,4.3806,4.4741,4.4353,4.4459,4.5282,4.5491,4.5528,4.5339,4.551,4.5528,4.5393,4.4211,4.4074,4.4959,4.445,4.4497,4.5054,4.4758,4.4917,4.5393,4.5339,4.5285,4.5159,4.4757,4.4428,4.4117,4.3726,4.3085,4.2276,4.1466,4.1084,4.0716,3.5771,3.5973,3.6227,3.5964,3.5096,3.4788,3.5806,3.6168,3.6743,3.7973,3.8469,3.8707,3.8707,3.8707,3.8872,3.9313,3.8946,3.8891,3.9313,3.8946,3.8707,3.8707,3.8707,3.8707,3.8707,3.8707,3.9496,4.1111,4.1111,4.1735,4.2947,4.3314,4.3497,4.3497,4.3497,4.3497,4.3513,4.3849,4.3755,4.3471,4.4616,4.4829,4.455,4.5322,4.5586,4.5586,4.5586,4.5586,4.5586,4.5586,4.5586,4.5586,4.5586,4.5476,4.5302,4.5159,4.4966,4.4757,4.4373,4.4016,4.3726,4.3548,4.3497,4.3497,4.3497,4.3497,4.3497,4.3497,4.3497,4.3497,4.3497,4.3497,4.2953,4.1198,3.9965,3.9431,3.9977,3.9793,4.0464,4.287,4.3812,4.4417,4.4834,4.4512,4.4573,4.5304,4.5036,4.5054,4.5566,4.5586,4.5586,4.5586,4.5586,4.5586,4.5586,4.5054,4.4959,4.5322,4.503,4.5033,4.5322,4.518,4.5263,4.5586,4.5419,4.5243,4.5052,4.4508,4.4175,4.3955,4.3612,4.3002,4.2268,4.1882,4.1479,4.1024,3.5119,3.5716,3.6179,3.5836,3.5495,3.5626,3.6638,3.6557,3.6906,3.8314,3.8496,3.8546,3.8676,3.8872,3.9239,3.9845,3.9331,3.9239,3.9845,3.9148,3.8707,3.8707,3.8707,3.8707,3.8707,3.8707,3.9313,4.0543,4.0928,4.1735,4.2947,4.3314,4.3497,4.3497,4.3497,4.3497,4.3495,4.3569,4.3262,4.2783,4.4065,4.4212,4.3764,4.4938,4.5419,4.5495,4.5495,4.5531,4.5586,4.5586,4.5586,4.5586,4.5513,4.5302,4.5074,4.4877,4.4606,4.428,4.4058,4.3924,4.3836,4.3563,4.3497,4.3497,4.3497,4.3497,4.3497,4.3497,4.3497,4.3497,4.3497,4.3563,4.2999,4.1121,4.0928,4.1144,4.1456,4.1788,4.2697,4.4621,4.5074,4.5222,4.5222,4.5222,4.5322,4.5586,4.5586,4.5586,4.5586,4.5586,4.5586,4.5586,4.5586,4.5586,4.5586,4.5586,4.5476,4.5222,4.5222,4.5222,4.5222,4.5222,4.5322,4.5476,4.5222,4.4988,4.4806,4.4214,4.3955,4.3849,4.3597,4.3112,4.2561,4.2378,4.2029,4.1644,3.5009,3.5716,3.6285,3.6256,3.6201,3.6321,3.6645,3.6702,3.6988,3.7837,3.7946,3.815,3.8658,3.9368,3.9827,3.9882,3.9845,3.9827,3.99,3.9148,3.8707,3.8707,3.8707,3.8707,3.8707,3.8707,3.8762,3.8891,4.0377,4.1167,4.1313,4.28,4.3497,4.3497,4.3497,4.3497,4.3442,4.2724,4.2375,4.2386,4.2802,4.294,4.3006,4.4233,4.4872,4.5137,4.5137,4.5342,4.5586,4.5586,4.5586,4.555,4.5222,4.5118,4.4966,4.4271,4.3818,4.3646,4.3924,4.3772,4.3548,4.3532,4.3497,4.3497,4.3497,4.3497,4.3497,4.3497,4.3497,4.3497,4.3497,4.374,4.3547,4.2202,4.1679,4.1798,4.28,4.2399,4.2873,4.5246,4.555,4.5568,4.5568,4.5568,4.5568,4.5586,4.5586,4.5586,4.5586,4.5586,4.5586,4.5586,4.5586,4.5586,4.5586,4.5586,4.5586,4.5568,4.5568,4.5568,4.5568,4.5568,4.5419,4.5137,4.5096,4.4713,4.4087,4.4028,4.3836,4.3548,4.3513,4.3442,4.3314,4.2561,4.2727,4.3222,3.5807,3.6468,3.7184,3.7698,3.6699,3.6159,3.7262,3.6736,3.6524,3.7362,3.772,3.798,3.8183,3.9209,4.0102,4.0598,4.0194,4.0102,4.0616,3.9423,3.8707,3.8707,3.8382,3.8216,3.8216,3.8382,3.8616,3.8943,4.0507,4.1466,4.1882,4.2983,4.3497,4.3497,4.3497,4.3497,4.3442,4.2635,4.2011,4.1622,4.2451,4.2499,4.2258,4.3966,4.4682,4.48,4.48,4.4872,4.4988,4.4988,4.4988,4.4966,4.4849,4.4612,4.4318,4.3836,4.3597,4.3513,4.3646,4.3597,4.3497,4.3497,4.3497,4.3497,4.3497,4.3497,4.3497,4.3497,4.3679,4.3804,4.3804,4.4106,4.3774,4.2031,4.2859,4.3412,4.2536,4.3474,4.4576,4.5491,4.5586,4.5586,4.5586,4.5586,4.5586,4.5586,4.5586,4.5586,4.5586,4.5586,4.5586,4.5586,4.5586,4.5586,4.5586,4.5586,4.5586,4.5586,4.5586,4.5586,4.5586,4.5586,4.5419,4.5096,4.5096,4.4688,4.4016,4.4016,4.3804,4.3497,4.3497,4.3497,4.3442,4.3149,4.3222,4.3442,3.5899,3.6762,3.7613,3.8008,3.7062,3.6496,3.7291,3.6445,3.6007,3.6855,3.7165,3.7467,3.7875,3.9094,4.0212,4.1038,4.0359,4.023,4.1056,3.9606,3.8707,3.8707,3.8183,3.7893,3.7893,3.7931,3.8322,3.9102,4.0402,4.1488,4.2323,4.3112,4.3497,4.3497,4.3497,4.3497,4.3424,4.2378,4.1754,4.153,4.2038,4.2087,4.1987,4.3613,4.4308,4.4419,4.4419,4.4501,4.458,4.458,4.458,4.458,4.4447,4.4165,4.3804,4.3563,4.3497,4.3497,4.3497,4.3497,4.3497,4.3497,4.3497,4.3497,4.3497,4.3563,4.3646,4.3646,4.3943,4.4175,4.4175,4.4482,4.4291,4.285,4.4106,4.4763,4.3321,4.4557,4.5586,4.5586,4.5586,4.5586,4.5586,4.5586,4.5586,4.5586,4.5586,4.5586,4.5586,4.5586,4.5586,4.5586,4.5586,4.5586,4.5586,4.5586,4.5586,4.5586,4.5586,4.5586,4.5586,4.5586,4.5419,4.5096,4.5096,4.4738,4.4175,4.4175,4.4046,4.3823,4.3712,4.3646,4.3646,4.3548,4.3582,4.3646,3.499,3.6358,3.7339,3.6805,3.7388,3.756,3.6563,3.5758,3.5532,3.6253,3.6162,3.647,3.7769,3.9075,4.0212,4.1038,4.0377,4.0249,4.1056,3.9606,3.8707,3.8707,3.8183,3.7911,3.7893,3.7433,3.7825,3.9102,3.9914,4.0961,4.2304,4.3112,4.3497,4.3479,4.3497,4.3497,4.3387,4.1791,4.1589,4.2231,4.1442,4.1589,4.2396,4.3185,4.3693,4.4016,4.4016,4.4233,4.458,4.458,4.458,4.4527,4.4117,4.3772,4.3497,4.3497,4.3497,4.3497,4.3497,4.3497,4.3497,4.3497,4.3497,4.3497,4.3497,4.3758,4.4016,4.4016,4.4318,4.458,4.4606,4.4872,4.5096,4.5096,4.5381,4.5586,4.5586,4.5586,4.5586,4.5586,4.5586,4.5586,4.5586,4.5586,4.5586,4.5586,4.5586,4.5586,4.5586,4.5586,4.5586,4.5586,4.5586,4.5586,4.5586,4.5586,4.5586,4.5586,4.5586,4.5586,4.5586,4.5586,4.5419,4.5096,4.5096,4.4919,4.458,4.4606,4.4606,4.4553,4.4146,4.4016,4.3955,4.3612,4.3726,4.4016,3.499,3.6358,3.7448,3.729,3.7354,3.7127,3.6262,3.5313,3.4627,3.4337,3.4535,3.5197,3.6417,3.7767,3.9006,4.0143,4.0561,4.0598,4.0286,3.9808,3.9294,3.8726,3.7861,3.7578,3.7893,3.7248,3.737,3.8254,3.9815,4.058,4.0653,4.258,4.3185,4.2671,4.324,4.3497,4.3424,4.2396,4.2084,4.2286,4.2047,4.2084,4.2396,4.3185,4.3563,4.3646,4.3646,4.3744,4.3823,4.3823,4.3823,4.3823,4.3679,4.3563,4.3497,4.3497,4.3497,4.3497,4.3497,4.3497,4.3497,4.3497,4.3497,4.3497,4.3497,4.3563,4.3726,4.3955,4.4318,4.4657,4.4919,4.5222,4.5438,4.5438,4.5531,4.5586,4.5586,4.5586,4.5586,4.5586,4.5586,4.5586,4.5586,4.5586,4.5586,4.5586,4.5586,4.5586,4.5586,4.5586,4.5586,4.5586,4.5586,4.5586,4.5586,4.5586,4.5586,4.5586,4.5586,4.5586,4.5586,4.5586,4.5419,4.5118,4.5342,4.5118,4.4606,4.4849,4.4806,4.4553,4.4146,4.4016,4.3955,4.3612,4.3726,4.4016,3.499,3.6101,3.7081,3.7174,3.6798,3.6345,3.5799,3.4696,3.3792,3.3423,3.3865,3.4579,3.5601,3.7041,3.8407,3.9495,4.0518,4.0763,3.9937,4.0194,4.0029,3.9203,3.8399,3.7936,3.7911,3.7281,3.7399,3.8363,3.9837,4.0672,4.0891,4.2653,4.3222,4.28,4.3277,4.3497,4.3442,4.2635,4.2488,4.2745,4.2433,4.2488,4.2818,4.3296,4.3497,4.3497,4.3497,4.3497,4.3497,4.3497,4.3497,4.3497,4.3497,4.3497,4.3497,4.3497,4.3497,4.3497,4.3497,4.3497,4.3497,4.3497,4.3497,4.3497,4.3497,4.3597,4.3758,4.3955,4.4318,4.4657,4.4872,4.518,4.54,4.54,4.5513,4.5586,4.5586,4.5586,4.5586,4.5586,4.5586,4.5586,4.5586,4.5586,4.5586,4.5586,4.5586,4.5586,4.5586,4.5586,4.5586,4.5586,4.5586,4.5586,4.5586,4.5586,4.5586,4.5586,4.5586,4.5586,4.5586,4.5586,4.5495,4.5322,4.5513,4.5362,4.5011,4.5222,4.5096,4.4757,4.4373,4.4146,4.3955,4.3612,4.3804,4.4233,3.488,3.5661,3.6387,3.662,3.6143,3.5645,3.5465,3.4119,3.3158,3.3328,3.3762,3.4337,3.5144,3.6736,3.811,3.8974,4.0312,4.0763,3.9937,4.0726,4.0836,3.9937,3.9431,3.8847,3.8197,3.7541,3.7844,3.9189,3.9842,4.0887,4.2213,4.2968,4.3334,4.3387,4.3426,4.3463,4.3442,4.2708,4.2818,4.3424,4.269,4.2837,4.3497,4.3497,4.3497,4.3497,4.3497,4.3497,4.3497,4.3497,4.3497,4.3497,4.3497,4.3497,4.3497,4.3497,4.3497,4.3497,4.3497,4.3497,4.3497,4.3497,4.3497,4.3497,4.3497,4.3758,4.3955,4.3998,4.4318,4.458,4.458,4.4872,4.5096,4.5096,4.5342,4.5568,4.5605,4.5586,4.5586,4.5586,4.5586,4.5586,4.5586,4.5586,4.5586,4.5586,4.5586,4.5586,4.5586,4.5586,4.5586,4.5586,4.5586,4.5586,4.5586,4.5586,4.5586,4.5586,4.5586,4.5586,4.5586,4.5586,4.5586,4.5586,4.5586,4.5586,4.5586,4.5586,4.5419,4.5096,4.4732,4.4392,4.4016,4.3664,4.3962,4.4553,3.4064,3.5275,3.6311,3.6387,3.6949,3.7176,3.6556,3.5044,3.3748,3.3239,3.2894,3.3309,3.4834,3.5829,3.7057,3.8647,4.0203,4.0763,3.9937,4.124,4.1405,3.9955,3.98,3.9937,4.0412,3.8295,3.8008,3.9735,3.9474,4.007,4.1354,4.1705,4.2122,4.258,4.2778,4.3105,4.3479,4.3296,4.3332,4.3461,4.3296,4.3332,4.3497,4.3497,4.3497,4.3497,4.3497,4.3497,4.3497,4.3497,4.3497,4.3497,4.3497,4.3497,4.3497,4.3497,4.3497,4.3497,4.3497,4.3497,4.3497,4.3497,4.3497,4.3497,4.3497,4.3548,4.366,4.3955,4.4318,4.458,4.458,4.4872,4.5096,4.5096,4.5159,4.5302,4.5568,4.5586,4.5586,4.5586,4.5586,4.5586,4.5586,4.5586,4.5586,4.5586,4.5586,4.5586,4.5586,4.5586,4.5586,4.5586,4.5586,4.5586,4.5586,4.5586,4.5586,4.5586,4.5586,4.5586,4.5586,4.5586,4.5586,4.5586,4.5586,4.5586,4.5586,4.5586,4.5568,4.5438,4.483,4.4553,4.4392,4.3744,4.3758,4.4204,3.3807,3.4504,3.5349,3.6156,3.6419,3.644,3.6244,3.513,3.3847,3.2645,3.2878,3.3503,3.4475,3.5753,3.7131,3.859,3.9827,4.0506,4.0469,4.1625,4.1919,4.1075,4.1038,4.1056,4.1111,3.9763,3.9511,4.0469,4.0307,4.0582,4.1267,4.1477,4.1893,4.2505,4.2645,4.3014,4.3497,4.3497,4.3497,4.3497,4.3497,4.3497,4.3497,4.3497,4.3497,4.3497,4.3497,4.3497,4.3497,4.3497,4.3497,4.3497,4.3497,4.3497,4.3497,4.3497,4.3497,4.3497,4.3497,4.3497,4.3548,4.3693,4.3631,4.3497,4.3497,4.3497,4.3548,4.3726,4.3931,4.4065,4.4065,4.4346,4.4587,4.4587,4.5073,4.5352,4.5154,4.5587,4.5783,4.5419,4.5495,4.5586,4.5586,4.5586,4.5586,4.5586,4.5586,4.5778,4.6201,4.622,4.6394,4.6778,4.6413,4.622,4.622,4.5797,4.5586,4.5586,4.5586,4.5586,4.5586,4.5586,4.5586,4.5586,4.5586,4.5586,4.5586,4.5586,4.5513,4.5322,4.4966,4.4631,4.428,4.3881,4.3849,4.4087,3.3807,3.3917,3.4449,3.5844,3.5605,3.5326,3.5665,3.4961,3.3884,3.2441,3.3291,3.4106,3.4434,3.6252,3.7791,3.8627,3.9441,4.012,4.0671,4.157,4.2029,4.1901,4.1882,4.1717,4.1313,4.1185,4.1185,4.1313,4.1324,4.1487,4.1759,4.1721,4.2119,4.2826,4.275,4.3014,4.3497,4.3497,4.3497,4.3497,4.3497,4.3497,4.3497,4.3497,4.3497,4.3497,4.3497,4.3497,4.3497,4.3497,4.3497,4.3497,4.3497,4.3497,4.3497,4.3497,4.3497,4.3497,4.3497,4.3497,4.3563,4.3912,4.3758,4.3513,4.3563,4.3548,4.3497,4.3497,4.3548,4.3563,4.3513,4.3772,4.4053,4.4184,4.5048,4.5555,4.5089,4.5746,4.6046,4.5382,4.5477,4.5586,4.5586,4.5586,4.5586,4.5586,4.5586,4.5913,4.6644,4.6682,4.699,4.7644,4.7028,4.6682,4.6682,4.6105,4.5817,4.5817,4.5817,4.574,4.5586,4.5586,4.5586,4.5586,4.555,4.555,4.5605,4.555,4.5381,4.518,4.5118,4.4713,4.4175,4.4046,4.4016,4.4046,3.3807,3.4376,3.4899,3.5137,3.5716,3.6127,3.6208,3.5181,3.4308,3.4087,3.3839,3.411,3.5295,3.7239,3.8546,3.8676,3.9441,3.9643,3.9056,4.0432,4.0946,4.0249,4.0212,4.0818,4.2121,4.1479,4.1442,4.2139,4.1467,4.1837,4.3173,4.1994,4.214,4.3375,4.2902,4.3014,4.3497,4.3497,4.3497,4.3497,4.3497,4.3497,4.3497,4.3497,4.3497,4.3497,4.3497,4.3497,4.3497,4.3497,4.3497,4.3497,4.3497,4.3497,4.3497,4.3497,4.3497,4.3497,4.3497,4.3497,4.3563,4.3912,4.3758,4.3563,4.3881,4.3693,4.3497,4.3497,4.3726,4.3849,4.3529,4.3772,4.424,4.4929,4.5165,4.5615,4.6534,4.6461,4.6275,4.6161,4.5822,4.5586,4.5586,4.5586,4.5586,4.5586,4.5586,4.5643,4.5759,4.5778,4.5817,4.5932,4.5817,4.5778,4.5778,4.6413,4.6721,4.6721,4.6721,4.6336,4.5586,4.5586,4.5586,4.5586,4.5283,4.5322,4.5568,4.5302,4.5322,4.5495,4.5222,4.5052,4.4877,4.4233,4.4016,4.4016,3.3807,3.41,3.4486,3.4917,3.5302,3.5587,3.5587,3.4713,3.3993,3.3768,3.3486,3.3888,3.5435,3.7466,3.8707,3.8707,3.9019,3.9276,3.935,4.0047,4.0469,4.0579,4.0579,4.091,4.1625,4.1735,4.1937,4.2304,4.2084,4.2377,4.305,4.2067,4.2142,4.305,4.2826,4.3014,4.3497,4.3497,4.3497,4.3497,4.3497,4.3497,4.3497,4.3497,4.3497,4.3497,4.3497,4.3497,4.3497,4.3497,4.3497,4.3497,4.3497,4.3497,4.3497,4.3497,4.3497,4.3497,4.3497,4.3497,4.3563,4.3912,4.3758,4.3597,4.3924,4.4077,4.4048,4.3589,4.3631,4.3808,4.4101,4.4312,4.4635,4.5448,4.5965,4.6292,4.6364,4.6368,4.618,4.57,4.5611,4.5778,4.6278,4.6336,4.6509,4.6951,4.699,4.7201,4.7702,4.7721,4.7952,4.8432,4.7971,4.7721,4.7721,4.7625,4.7567,4.7567,4.7567,4.7124,4.6317,4.5817,4.5586,4.5586,4.5243,4.5302,4.5568,4.5243,4.5302,4.5586,4.5438,4.5263,4.5011,4.4271,4.4016,4.3986]}]]